[[{"header":{"parameterUnit":"m.s-1","parameterCategory":1,"la1":31.0,"la2":29.5877,"lo1":-88.7671,"lo2":-86.6584,"dy":0.0162,"dx":0.0185,"nx":115,"ny":88,"refTime":"2024-06-29T06:00:00:Z","depth":0,"parameterNumber":2,"parameterNumberName":"U-component_of_WINDS"},"data":[0.0,0.0,0.0,0.0,0.0,0.0,0.0,0.0,0.0,0.0,0.0,0.0,0.0,0.0,0.0,0.0,0.0,0.0,0.0,0.0,0.0,0.0,0.0,0.0,0.0,0.0,0.0,0.0,0.0,0.0,0.0,0.0,0.0,0.0,0.0,0.0,0.0,0.0,0.0,0.0,0.0,0.0,0.0,0.0,0.0,0.0,0.0,0.0,0.0,0.0,0.0,0.0,0.0,0.0,0.0,0.0,0.0,0.0,0.0,0.0,0.0,0.0,0.0,0.0,0.0,0.0,0.0,0.0,0.0,0.0,0.0,0.0,0.0,0.0,0.0,0.0,0.0,0.0,0.0,0.0,0.0,0.0,0.0,0.0,0.0,0.0,0.0,0.0,0.0,0.0,0.0,0.0,0.0,0.0,0.0,0.0,0.0,0.0,0.0,0.0,0.0,0.0,0.0,0.0,0.0,0.0,0.0,0.0,0.0,0.0,0.0,0.0,0.0,0.0,0.0,0.0,0.0,0.0,0.0,0.0,0.0,0.0,0.0,0.0,0.0,0.0,0.0,0.0,0.0,0.0,0.0,0.0,0.0,0.0,0.0,0.0,0.0,0.0,0.0,0.0,0.0,0.0,0.0,0.0,0.0,0.0,0.0,0.0,0.0,0.0,0.0,0.0,0.0,0.0,0.0,0.0,0.0,0.0,0.0,0.0,0.0,0.0,0.0,0.0,0.0,0.0,0.0,0.0,0.0,0.0,0.0,0.0,0.0,0.0,0.0,0.0,0.0,0.0,0.0,0.0,0.0,0.0,0.0,0.0,0.0,0.0,0.0,0.0,0.0,0.0,0.0,0.0,0.0,0.0,0.0,0.0,0.0,0.0,0.0,0.0,0.0,0.0,0.0,0.0,0.0,0.0,0.0,0.0,0.0,0.0,0.0,0.0,0.0,0.0,0.0,0.0,0.0,0.0,0.0,0.0,0.0,0.0,0.0,0.0,0.0,0.0,0.0,0.0,0.0,0.0,0.0,0.0,0.0,0.0,0.0,0.0,0.0,0.0,0.0,0.0,0.0,0.0,0.0,0.0,0.0,0.0,0.0,0.0,0.0,0.0,0.0,0.0,0.0,0.0,0.0,0.0,0.0,0.0,0.0,0.0,0.0,0.0,0.0,0.0,0.0,0.0,0.0,0.0,0.0,0.0,0.0,0.0,0.0,0.0,0.0,0.0,0.0,0.0,0.0,0.0,0.0,0.0,0.0,0.0,0.0,0.0,0.0,0.0,0.0,0.0,0.0,0.0,0.0,0.0,0.0,0.0,0.0,0.0,0.0,0.0,0.0,0.0,0.0,0.0,0.0,0.0,0.0,0.0,0.0,0.0,0.0,0.0,0.0,0.0,0.0,0.0,0.0,0.0,0.0,0.0,0.0,0.0,0.0,0.0,0.0,0.0,0.0,0.0,0.0,0.0,0.0,0.0,0.0,0.0,0.0,0.0,0.0,0.0,0.0,0.0,0.0,0.0,0.0,0.0,0.0,0.0,0.0,0.0,0.0,0.0,0.0,0.0,0.0,0.0,0.0,0.0,0.0,0.0,0.0,0.0,0.0,0.0,0.0,0.0,0.0,0.0,0.0,0.0,0.0,0.0,0.0,0.0,0.0,0.0,0.0,0.0,0.0,0.0,0.0,0.0,0.0,0.0,0.0,0.0,0.0,0.0,0.0,0.0,0.0,0.0,0.0,0.0,0.0,0.0,0.0,0.0,0.0,0.0,0.0,0.0,0.0,0.0,0.0,0.0,0.0,0.0,0.0,0.0,0.0,0.0,0.0,0.0,0.0,0.0,0.0,0.0,0.0,0.0,0.0,0.0,0.0,0.0,0.0,0.0,0.0,0.0,0.0,0.0,0.0,0.0,0.0,0.0,0.0,0.0,0.0,0.0,0.0,0.0,0.0,0.0,0.0,0.0,0.0,0.0,0.0,0.0,0.0,0.0,0.0,0.0,0.0,0.0,0.0,0.0,0.0,0.0,0.0,0.0,0.0,0.0,0.0,0.0,0.0,0.0,0.0,0.0,0.0,0.0,0.0,0.0,0.0,0.0,0.0,0.0,0.0,0.0,0.0,0.0,0.0,0.0,0.0,0.0,0.0,0.0,0.0,0.0,0.0,0.0,0.0,0.0,0.0,0.0,0.0,0.0,0.0,0.0,0.0,0.0,0.0,0.0,0.0,0.0,0.0,0.0,0.0,0.0,0.0,0.0,0.0,0.0,0.0,0.0,0.0,0.0,0.0,0.0,0.0,0.0,0.0,0.0,0.0,0.0,0.0,0.0,0.0,0.0,0.0,0.0,0.0,0.0,0.0,0.0,0.0,0.0,0.0,0.0,0.0,0.0,0.0,0.0,0.0,0.0,0.0,0.0,0.0,0.0,0.0,0.0,0.0,0.0,0.0,0.0,0.0,0.0,0.0,0.0,0.0,0.0,0.0,0.0,0.0,0.0,0.0,0.0,0.0,0.0,0.0,0.0,0.0,0.0,0.0,0.0,0.0,0.0,0.0,0.0,0.0,0.0,0.0,0.0,0.0,0.0,0.0,0.0,0.0,0.0,0.0,0.0,0.0,0.0,0.0,0.0,0.0,0.0,0.0,0.0,0.0,0.0,0.0,0.0,0.0,0.0,0.0,0.0,0.0,0.0,0.0,0.0,0.0,0.0,0.0,0.0,0.0,0.0,0.0,0.0,0.0,0.0,0.0,0.0,0.0,0.0,0.0,0.0,0.0,0.0,0.0,0.0,0.0,0.0,0.0,0.0,0.0,0.0,0.0,0.0,0.0,0.0,0.0,0.0,0.0,0.0,0.0,0.0,0.0,0.0,0.0,0.0,0.0,0.0,0.0,0.0,0.0,0.0,0.0,0.0,0.0,0.0,0.0,0.0,0.0,0.0,0.0,0.0,0.0,0.0,0.0,0.0,0.0,0.0,0.0,0.0,0.0,0.0,0.0,0.0,0.0,0.0,0.0,0.0,0.0,0.0,0.0,0.0,0.0,0.0,0.0,0.0,0.0,0.0,0.0,0.0,0.0,0.0,0.0,0.0,0.0,0.0,0.0,0.0,0.0,0.0,0.0,0.0,0.0,0.0,0.0,0.0,0.0,0.0,0.0,0.0,0.0,0.0,0.0,0.0,0.0,0.0,0.0,0.0,0.0,0.0,0.0,0.0,0.0,0.0,0.0,0.0,0.0,0.0,0.0,0.0,0.0,0.0,0.0,0.0,0.0,0.0,0.0,0.0,0.0,0.0,0.0,0.0,0.0,0.0,0.0,0.0,0.0,0.0,0.0,0.0,0.0,0.0,0.0,0.0,0.0,0.0,0.0,0.0,0.0,0.0,0.0,0.0,0.0,0.0,0.0,0.0,0.0,0.0,0.0,0.0,0.0,0.0,0.0,0.0,0.0,0.0,0.0,0.0,0.0,0.0,0.0,0.0,0.0,0.0,0.0,0.0,0.0,0.0,0.0,0.0,0.0,0.0,0.0,0.0,0.0,0.0,0.0,0.0,0.0,0.0,0.0,0.0,0.0,0.0,0.0,0.0,0.0,0.0,0.0,0.0,0.0,0.0,0.0,0.0,0.0,0.0,0.0,0.0,0.0,0.0,0.0,0.0,0.0,0.0,0.0,0.0,0.0,0.0,0.0,0.0,0.0,0.0,0.0,0.0,0.0,0.0,0.0,0.0,0.0,0.0,0.0,0.0,0.0,0.0,0.0,0.0,0.0,0.0,0.0,0.0,0.0,0.0,0.0,0.0,0.0,0.0,0.0,0.0,0.0,0.0,0.0,0.0,0.0,0.0,0.0,0.0,0.0,0.0,0.0,0.0,0.0,0.0,0.0,0.0,0.0,0.0,0.0,0.0,0.0,0.0,0.0,0.0,0.0,0.0,0.0,0.0,0.0,0.0,0.0,0.0,0.0,0.0,0.0,0.0,0.0,0.0,0.0,0.0,0.0,0.0,0.0,0.0,0.0,0.0,0.0,0.0,0.0,0.0,0.0,0.0,0.0,0.0,0.0,0.0,0.0,0.0,0.0,0.0,0.0,0.0,0.0,0.0,0.0,0.0,0.0,0.0,0.0,0.0,0.0,0.0,0.0,0.0,0.0,0.0,0.0,0.0,0.0,0.0,0.0,0.0,0.0,0.0,0.0,0.0,0.0,0.0,0.0,0.0,0.0,0.0,0.0,0.0,0.0,0.0,0.0,0.0,0.0,0.0,0.0,0.0,0.0,0.0,0.0,0.0,-0.2287,0.0,0.0,0.0,0.0,0.0,0.0,0.0,0.0,0.0,0.0,0.0,0.0,0.0,0.0,0.0,0.0,0.0,0.0,0.0,0.0,0.0,0.0,0.0,0.0,0.0,0.0,0.0,0.0,0.0,0.0,0.0,0.0,0.0,0.0,0.0,0.0,0.0,0.0,0.0,0.0,0.0,0.0,0.0,0.0,0.0,0.0,0.0,0.0,0.0,0.0,0.0,0.0,0.0,0.0,0.0,0.0,0.0,0.0,0.0,0.0,0.0,0.0,0.0,0.0,0.0,0.0,0.0,0.0,0.0,0.0,0.0,0.0,0.0,0.0,0.0,0.0,0.0,0.0,0.0,0.0,0.0,0.0,0.0,0.0,0.0,0.0,0.0,0.0,0.0,0.0,0.0,0.0,0.0,0.0,0.0,0.0,0.0,0.0,0.0,0.0,0.0,0.0,0.0,0.0,0.0,0.0,0.0,0.0,0.0,0.0,-0.2365,-0.2222,-0.2278,-0.225,-0.2134,0.0,0.0,0.0,0.0,0.0,0.0,0.0,0.0,0.0,0.0,0.0,0.0,0.0,0.0,0.0,0.0,0.0,0.0,0.0,0.0,0.0,0.0,0.0,0.0,0.0,0.0,0.0,0.0,0.0,0.0,0.0,0.0,0.0,0.0,0.0,0.0,0.0,0.0,0.0,0.0,0.0,0.0,0.0,0.0,0.0,0.0,0.0,0.0,0.0,0.0,0.0,0.0,0.0,0.0,0.0,0.0,0.0,0.0,0.0,0.0,0.0,0.0,0.0,0.0,0.0,0.0,0.0,0.0,0.0,0.0,0.0,0.0,0.0,0.0,0.0,0.0,0.0,0.0,0.0,0.0,0.0,0.0,0.0,0.0,0.0,0.0,0.0,0.0,0.0,0.0,0.0,0.0,0.0,0.0,0.0,0.0,0.0,0.0,0.0,0.0,0.0,0.0,0.0,0.0,0.0,0.0,0.0,0.0,0.0,0.0,0.0,0.0,-0.2517,-0.2369,-0.2008,0.0,0.0,0.0,0.0,0.0,0.0,0.0,0.0,0.0,0.0,0.0,0.0,0.0,0.0,0.0,0.0,0.0,0.0,0.0,0.0,0.0,0.0,0.0,0.0,0.0,0.0,0.0,0.0,0.0,0.0,0.0,0.0,0.0,0.0,0.0,0.0,0.0,0.0,0.0,0.0,0.0,0.0,0.0,0.0,0.0,0.0,0.0,0.0,0.0,0.0,0.0,0.0,0.0,0.0,0.0,0.0,0.0,0.0,0.0,0.0,0.0,0.0,0.0,0.0,0.0,0.0,0.0,0.0,0.0,0.0,0.0,0.0,0.0,0.0,0.0,0.0,0.0,0.0,0.0,0.0,0.0,0.0,0.0,0.0,0.0,0.0,0.0,0.0,0.0,0.0,0.0,0.0,0.0,0.0,0.0,0.0,0.0,0.0,0.0,0.0,0.0,0.0,0.0,0.0,0.0,0.0,0.0,0.0,0.0,0.0,-0.2728,-0.2594,-0.264,0.0,-0.2034,0.0,0.0,0.0,0.0,0.0,0.0,0.0,0.0,0.0,0.0,0.0,0.0,0.0,0.0,0.0,0.0,0.0,0.0,0.0,0.0,0.0,0.0,0.0,0.0,0.0,0.0,0.0,0.0,0.0,0.0,0.0,0.0,0.0,0.0,0.0,0.0,0.0,0.0,0.0,0.0,0.0,0.0,0.0,0.0,0.0,0.0,0.0,0.0,0.0,0.0,0.0,0.0,0.0,0.0,0.0,0.0,0.0,0.0,0.0,0.0,0.0,0.0,0.0,0.0,0.0,0.0,0.0,0.0,0.0,0.0,0.0,0.0,0.0,0.0,0.0,0.0,0.0,0.0,0.0,0.0,0.0,0.0,0.0,0.0,0.0,0.0,0.0,0.0,0.0,0.0,0.0,0.0,0.0,0.0,0.0,0.0,0.0,0.0,0.0,0.0,0.0,0.0,0.0,0.0,0.0,0.0,0.0,0.0,0.0,0.0,0.0,-0.2906,-0.2634,-0.2304,0.0,0.0,0.0,0.0,0.0,0.0,0.0,0.0,0.0,0.0,0.0,0.0,0.0,0.0,0.0,0.0,0.0,0.0,0.0,0.0,0.0,0.0,0.0,0.0,0.0,0.0,0.0,0.0,0.0,0.0,0.0,0.0,0.0,0.0,0.0,0.0,0.0,0.0,0.0,0.0,0.0,0.0,0.0,0.0,0.0,0.0,0.0,0.0,0.0,0.0,0.0,0.0,0.0,0.0,0.0,0.0,0.0,0.0,0.0,0.0,0.0,0.0,0.0,0.0,0.0,0.0,0.0,0.0,0.0,0.0,0.0,0.0,0.0,0.0,0.0,0.0,0.0,0.0,0.0,0.0,0.0,0.0,0.0,0.0,0.0,0.0,0.0,0.0,0.0,0.0,0.0,0.0,0.0,0.0,0.0,0.0,0.0,0.0,0.0,0.0,0.0,0.0,0.0,0.0,0.0,0.0,0.0,0.0,0.0,0.0,-0.3647,0.0,-0.3136,-0.2661,-0.228,-0.2025,0.0,0.0,0.0,0.0,0.0,0.0,0.0,0.0,0.0,0.0,0.0,0.0,0.0,0.0,0.0,0.0,0.0,0.0,0.0,0.0,0.0,0.0,0.0,0.0,0.0,0.0,0.0,0.0,0.0,0.0,0.0,0.0,0.0,0.0,0.0,0.0,0.0,0.0,0.0,0.0,0.0,0.0,0.0,0.0,0.0,0.0,0.0,0.0,0.0,0.0,0.0,0.0,0.0,0.0,0.0,0.0,0.0,0.0,0.0,0.0,0.0,0.0,0.0,0.0,0.0,0.0,0.0,0.0,0.0,0.0,0.0,0.0,0.0,0.0,0.0,0.0,0.0,0.0,0.0,0.0,0.0,0.0,0.0,0.0,0.0,0.0,0.0,0.0,0.0,0.0,0.0,0.0,0.0,0.0,0.0,0.0,0.0,0.0,0.0,0.0,0.0,0.0,0.0,0.0,0.0,0.0,0.0,0.0,0.0,-0.3541,-0.3393,-0.3184,-0.287,-0.2559,0.0,0.0,0.0,0.0,0.0,0.0,0.0,0.0,0.0,0.0,0.0,0.0,0.0,0.0,0.0,0.0,0.0,0.0,0.0,0.0,0.0,0.0,0.0,0.0,0.0,0.0,0.0,0.0,0.0,0.0,0.0,0.0,0.0,0.0,0.0,0.0,0.0,0.0,0.0,0.0,0.0,0.0,0.0,0.0,0.0,0.0,0.0,0.0,0.0,0.0,0.0,0.0,0.0,0.0,0.0,0.0,0.0,0.0,0.0,0.0,0.0,0.0,0.0,0.0,0.0,0.0,0.0,0.0,0.0,0.0,0.0,0.0,0.0,0.0,0.0,0.0,0.0,0.0,0.0,0.0,0.0,0.0,0.0,0.0,0.0,0.0,0.0,0.0,0.0,0.0,0.0,0.0,0.0,0.0,0.0,0.0,0.0,0.0,0.0,0.0,0.0,0.0,0.0,0.0,0.0,0.0,0.0,0.0,0.0,-0.3591,-0.345,-0.339,-0.3387,-0.3083,-0.277,0.0,0.0,0.0,0.0,0.0,0.0,0.0,0.0,0.0,0.0,0.0,0.0,0.0,0.0,0.0,0.0,0.0,0.0,0.0,0.0,0.0,0.0,0.0,0.0,0.0,0.0,0.0,0.0,0.0,0.0,0.0,0.0,0.0,0.0,0.0,0.0,0.0,0.0,0.0,0.0,0.0,0.0,0.0,0.0,0.0,0.0,0.0,0.0,0.0,0.0,0.0,0.0,0.0,0.0,0.0,0.0,0.0,0.0,0.0,0.0,0.0,0.0,0.0,0.0,0.0,0.0,0.0,0.0,0.0,0.0,0.0,0.0,0.0,0.0,0.0,0.0,0.0,0.0,0.0,0.0,0.0,0.0,0.0,0.0,0.0,0.0,0.0,0.0,0.0,0.0,0.0,0.0,0.0,0.0,0.0,0.0,0.0,0.0,0.0,0.0,0.0,0.0,0.0,0.0,0.0,0.0,0.0,0.0,0.0,-0.3794,0.0,-0.3589,0.0,-0.3284,-0.2995,0.0,0.0,0.0,0.0,0.0,0.0,0.0,0.0,0.0,0.0,0.0,0.0,0.0,0.0,0.0,0.0,0.0,0.0,0.0,0.0,0.0,0.0,0.0,0.0,0.0,0.0,0.0,0.0,0.0,0.0,0.0,0.0,0.0,0.0,0.0,0.0,0.0,0.0,0.0,0.0,0.0,0.0,0.0,0.0,0.0,0.0,0.0,0.0,0.0,0.0,0.0,0.0,0.0,0.0,0.0,0.0,0.0,0.0,0.0,0.0,0.0,0.0,0.0,0.0,0.0,0.0,0.0,0.0,0.0,0.0,0.0,0.0,0.0,0.0,0.0,0.0,0.0,0.0,0.0,0.0,0.0,0.0,0.0,0.0,0.0,0.0,0.0,0.0,0.0,0.0,0.0,0.0,0.0,0.0,0.0,0.0,0.0,0.0,0.0,0.0,0.0,0.0,0.0,0.0,0.0,0.0,0.0,0.0,-0.4241,-0.4217,-0.4209,-0.4082,-0.3828,-0.3571,-0.3252,0.0,0.0,0.0,0.0,0.0,0.0,0.0,0.0,0.0,0.0,0.0,0.0,0.0,0.0,0.0,0.0,0.0,0.0,0.0,0.0,0.0,0.0,0.0,0.0,0.0,0.0,0.0,0.0,0.0,0.0,0.0,0.0,0.0,0.0,0.0,0.0,0.0,0.0,0.0,0.0,0.0,0.0,0.0,0.0,0.0,0.0,0.0,0.0,0.0,0.0,0.0,0.0,0.0,0.0,0.0,0.0,0.0,0.0,0.0,0.0,0.0,0.0,0.0,0.0,0.0,0.0,0.0,0.0,0.0,0.0,0.0,0.0,0.0,0.0,0.0,0.0,0.0,0.0,0.0,0.0,0.0,0.0,0.0,0.0,0.0,0.0,0.0,0.0,0.0,0.0,0.0,0.0,0.0,0.0,0.0,0.0,0.0,0.0,0.0,0.0,0.0,0.0,0.0,0.0,0.0,0.0,0.0,0.0,0.0,-0.492,-0.4799,-0.4735,-0.4672,-0.4211,-0.3744,0.0,0.0,0.0,0.0,0.0,0.0,0.0,0.0,0.0,0.0,0.0,0.0,0.0,0.0,0.0,0.0,0.0,0.0,0.0,0.0,0.0,0.0,0.0,0.0,0.0,0.0,0.0,0.0,0.0,0.0,0.0,0.0,0.0,0.0,0.0,0.0,0.0,0.0,0.0,0.0,0.0,0.0,0.0,0.0,0.0,0.0,0.0,0.0,0.0,0.0,0.0,0.0,0.0,0.0,0.0,0.0,0.0,0.0,0.0,0.0,0.0,0.0,0.0,0.0,0.0,0.0,0.0,0.0,0.0,0.0,0.0,0.0,0.0,0.0,0.0,0.0,0.0,0.0,0.0,0.0,0.0,0.0,0.0,0.0,0.0,0.0,0.0,0.0,0.0,0.0,0.0,0.0,0.0,0.0,0.0,0.0,0.0,0.0,0.0,0.0,0.0,0.0,0.0,0.0,0.0,0.0,0.0,0.0,0.0,-0.6069,-0.5848,-0.5699,-0.5595,-0.502,-0.4423,-0.3817,0.0,0.0,0.0,0.0,0.0,0.0,0.0,0.0,0.0,0.0,0.0,0.0,0.0,0.0,0.0,0.0,0.0,0.0,0.0,0.0,0.0,0.0,0.0,0.0,0.0,0.0,0.0,0.0,0.0,0.0,0.0,0.0,0.0,0.0,0.0,0.0,0.0,0.0,0.0,0.0,0.0,0.0,0.0,0.0,0.0,0.0,0.0,0.0,0.0,0.0,0.0,0.0,0.0,0.0,0.0,0.0,0.0,0.0,0.0,0.0,0.0,0.0,0.0,0.0,0.0,0.0,0.0,0.0,0.0,0.0,0.0,0.0,0.0,0.0,0.0,0.0,0.0,0.0,0.0,0.0,0.0,0.0,0.0,0.0,0.0,0.0,0.0,0.0,0.0,0.0,0.0,0.0,0.0,0.0,0.0,0.0,0.0,0.0,0.0,0.0,0.0,0.0,0.0,0.0,0.0,0.0,0.0,0.0,-0.7569,-0.7234,-0.6916,-0.6606,-0.5948,-0.5191,0.0,0.0,0.0,0.0,0.0,0.0,0.0,0.0,0.0,0.0,0.0,0.0,0.0,0.0,0.0,0.0,0.0,0.0,0.0,0.0,0.0,0.0,0.0,0.0,0.0,0.0,0.0,0.0,0.0,0.0,0.0,0.0,0.0,0.0,0.0,0.0,0.0,0.0,0.0,0.0,0.0,0.0,0.0,0.0,0.0,0.0,0.0,0.0,0.0,0.0,0.0,0.0,0.0,0.0,0.0,0.0,0.0,0.0,0.0,0.0,0.0,0.0,0.0,0.0,0.0,0.0,0.0,0.0,0.0,0.0,0.0,0.0,0.0,0.0,0.0,0.0,0.0,0.0,0.0,0.0,0.0,0.0,0.0,0.0,0.0,0.0,0.0,0.0,0.0,0.0,0.0,0.0,0.0,0.0,0.0,0.0,0.0,0.0,0.0,0.0,0.0,0.0,0.0,0.0,0.0,0.0,0.0,0.0,0.0,-0.8593,-0.8603,-0.8315,-0.774,-0.6866,-0.6026,0.0,0.0,0.0,0.0,0.0,0.0,0.0,0.0,0.0,0.0,0.0,0.0,0.0,0.0,0.0,0.0,0.0,0.0,0.0,0.0,0.0,0.0,0.0,0.0,0.0,0.0,0.0,0.0,0.0,0.0,0.0,0.0,0.0,0.0,0.0,0.0,0.0,0.0,0.0,0.0,0.0,0.0,0.0,0.0,0.0,0.0,0.0,0.0,0.0,0.0,0.0,0.0,0.0,0.0,0.0,0.0,0.0,0.0,0.0,0.0,0.0,0.0,0.0,0.0,0.0,0.0,0.0,0.0,0.0,0.0,0.0,0.0,0.0,0.0,0.0,0.0,0.0,0.0,0.0,0.0,0.0,0.0,0.0,0.0,0.0,0.0,0.0,0.0,0.0,0.0,0.0,0.0,0.0,0.0,0.0,0.0,0.0,0.0,0.0,0.0,0.0,0.0,0.0,0.0,0.0,0.0,0.0,0.0,-0.8345,-0.9079,-0.9427,-0.9407,-0.903,-0.7896,-0.6853,0.0,0.0,0.0,0.0,0.0,0.0,0.0,0.0,0.0,0.0,0.0,0.0,0.0,0.0,0.0,0.0,0.0,0.0,0.0,0.0,0.0,0.0,0.0,0.0,0.0,0.0,0.0,0.0,0.0,0.0,0.0,0.0,0.0,0.0,0.0,0.0,0.0,0.0,0.0,0.0,0.0,0.0,0.0,0.0,0.0,0.0,0.0,0.0,0.0,0.0,0.0,0.0,0.0,0.0,0.0,0.0,0.0,0.0,0.0,0.0,0.0,0.0,0.0,0.0,0.0,0.0,0.0,0.0,0.0,0.0,0.0,0.0,0.0,0.0,0.0,0.0,0.0,0.0,0.0,0.0,0.0,0.0,0.0,0.0,0.0,0.0,0.0,0.0,0.0,0.0,0.0,0.0,0.0,0.0,0.0,0.0,0.0,0.0,0.0,0.0,0.0,0.0,0.0,0.0,0.0,0.0,0.0,0.0,-0.8644,-0.9244,-0.9874,-1.0213,-1.014,-0.882,-0.7602,0.0,0.0,0.0,0.0,0.0,0.0,0.0,0.0,0.0,0.0,0.0,0.0,0.0,0.0,0.0,0.0,0.0,0.0,0.0,0.0,0.0,0.0,0.0,0.0,0.0,0.0,0.0,0.0,0.0,0.0,0.0,0.0,0.0,0.0,0.0,0.0,0.0,0.0,0.0,0.0,0.0,0.0,0.0,0.0,0.0,0.0,0.0,0.0,0.0,0.0,0.0,0.0,0.0,0.0,0.0,0.0,0.0,0.0,0.0,0.0,0.0,0.0,0.0,0.0,0.0,0.0,0.0,0.0,0.0,0.0,0.0,0.0,0.0,0.0,0.0,0.0,0.0,0.0,0.0,0.0,0.0,0.0,0.0,0.0,0.0,0.0,0.0,0.0,0.0,0.0,0.0,0.0,0.0,0.0,0.0,0.0,0.0,0.0,0.0,0.0,0.0,0.0,0.0,0.0,0.0,0.0,0.0,0.0,-0.885,-0.9668,-0.9878,-1.0037,-1.0236,-0.9217,-0.8141,0.0,0.0,0.0,0.0,0.0,0.0,0.0,0.0,0.0,0.0,0.0,0.0,0.0,0.0,0.0,0.0,0.0,0.0,0.0,0.0,0.0,0.0,0.0,0.0,0.0,0.0,0.0,0.0,0.0,0.0,0.0,0.0,0.0,0.0,0.0,0.0,0.0,0.0,0.0,0.0,0.0,0.0,0.0,0.0,0.0,0.0,0.0,0.0,-0.14,0.0,0.0,0.0,0.0,0.0,0.0,0.0,0.0,0.0,0.0,0.0,0.0,0.0,0.0,0.0,0.0,0.0,0.0,0.0,0.0,0.0,0.0,0.0,0.0,0.0,0.0,0.0,0.0,0.0,0.0,0.0,0.0,0.0,0.0,0.0,0.0,0.0,0.0,0.0,0.0,0.0,0.0,0.0,0.0,0.0,0.0,0.0,0.0,0.0,0.0,0.0,0.0,0.0,0.0,0.0,0.0,0.0,0.0,0.0,-0.904,-0.9841,-1.0109,-1.0369,-1.0484,-0.9844,-0.8998,0.0,0.0,0.0,0.0,0.0,0.0,0.0,0.0,0.0,0.0,0.0,0.0,0.0,0.0,0.0,0.0,0.0,0.0,0.0,0.0,0.0,0.0,0.0,0.0,0.0,0.0,0.0,0.0,0.0,0.0,0.0,0.0,0.0,0.0,0.0,0.0,0.0,0.0,0.0,0.0,0.0,0.0,0.0,0.0,0.0,0.0,0.0,0.0,0.0,0.0,0.0,0.0,0.0,0.0,0.0,0.0,0.0,0.0,0.0,0.0,0.0,0.0,0.0,0.0,0.0,0.0,0.0,0.0,0.0,0.0,0.0,0.0,0.0,0.0,0.0,0.0,0.0,0.0,0.0,0.0,0.0,0.0,0.0,0.0,0.0,0.0,0.0,0.0,0.0,0.0,0.0,0.0,0.0,0.0,0.0,0.0,0.0,0.0,0.0,0.0,0.0,0.0,0.0,0.0,0.0,0.0,0.0,-0.8482,-0.9234,-1.0024,-1.0443,-1.0683,-1.0834,-1.0508,-0.9808,-0.8783,0.0,0.0,0.0,0.0,0.0,0.0,0.0,0.0,0.0,0.0,0.0,0.0,0.0,0.0,0.0,0.0,0.0,0.0,0.0,0.0,0.0,0.0,0.0,0.0,0.0,0.0,0.0,0.0,0.0,0.0,0.0,0.0,0.0,0.0,0.0,0.0,0.0,0.0,-0.1043,-0.1133,0.0,0.0,0.0,0.0,0.0,0.0,0.0,0.0,-0.1576,0.0,0.0,0.0,0.0,0.0,0.0,0.0,0.0,0.0,0.0,0.0,0.0,0.0,0.0,0.0,0.0,0.0,0.0,0.0,0.0,0.0,0.0,0.0,0.0,0.0,0.0,0.0,0.0,0.0,0.0,0.0,0.0,0.0,0.0,0.0,0.0,0.0,0.0,0.0,0.0,0.0,0.0,0.0,0.0,0.0,0.0,0.0,0.0,0.0,0.0,0.0,0.0,0.0,0.0,0.0,0.0,-0.8135,-0.8486,-0.9284,-1.0583,-1.0495,-1.0716,-1.1276,-1.0701,-0.9982,-0.934,0.0,0.0,0.0,0.0,0.0,0.0,0.0,0.0,0.0,0.0,0.0,0.0,0.0,0.0,0.0,0.0,0.0,0.0,0.0,0.0,0.0,0.0,0.0,0.0,0.0,0.0,0.0,0.0,0.0,0.0,0.0,0.0,0.0,0.0,0.0,0.0,0.0,0.0,0.0,-0.1122,-0.1209,0.0,0.0,0.0,0.0,0.0,0.0,0.0,0.0,-0.172,0.0,0.0,0.0,0.0,0.0,0.0,0.0,0.0,0.0,0.0,0.0,0.0,0.0,0.0,0.0,0.0,0.0,0.0,0.0,0.0,0.0,0.0,0.0,0.0,0.0,0.0,0.0,0.0,0.0,0.0,0.0,0.0,0.0,0.0,0.0,0.0,0.0,0.0,0.0,0.0,0.0,0.0,0.0,0.0,0.0,0.0,0.0,0.0,0.0,0.0,0.0,0.0,0.0,0.0,0.0,-0.823,-0.8782,-0.9525,-1.0622,-1.0761,-1.0965,-1.1278,-1.0941,-1.0363,0.0,0.0,0.0,0.0,0.0,0.0,0.0,0.0,0.0,0.0,0.0,0.0,0.0,0.0,0.0,0.0,0.0,0.0,0.0,0.0,0.0,0.0,0.0,0.0,0.0,0.0,0.0,0.0,0.0,0.0,0.0,0.0,0.0,0.0,0.0,0.0,0.0,0.0,0.0,0.0,-0.1337,-0.1468,-0.1646,0.0,0.0,0.0,0.0,0.0,0.0,-0.1924,-0.1955,0.0,0.0,0.0,0.0,0.0,0.0,0.0,0.0,0.0,0.0,0.0,0.0,0.0,0.0,0.0,0.0,0.0,0.0,0.0,0.0,0.0,0.0,0.0,0.0,0.0,0.0,0.0,0.0,0.0,0.0,0.0,0.0,0.0,0.0,0.0,0.0,0.0,0.0,0.0,0.0,0.0,0.0,0.0,0.0,0.0,0.0,0.0,0.0,0.0,0.0,0.0,0.0,0.0,0.0,0.0,-0.8385,-0.8981,-0.9723,-1.0483,-1.0958,-1.1175,-1.1288,-1.1081,-1.0586,0.0,0.0,0.0,0.0,0.0,0.0,0.0,0.0,0.0,0.0,0.0,0.0,0.0,0.0,0.0,0.0,0.0,0.0,0.0,0.0,0.0,0.0,0.0,0.0,0.0,0.0,0.0,0.0,0.0,0.0,0.0,0.0,0.0,0.0,0.0,0.0,0.0,0.0,0.0,0.0,0.0,-0.1749,-0.1897,-0.205,0.0,0.0,0.0,0.0,-0.2173,-0.2209,0.0,0.0,0.0,0.0,0.0,0.0,0.0,0.0,0.0,0.0,0.0,0.0,0.0,0.0,0.0,0.0,0.0,0.0,0.0,0.0,0.0,0.0,0.0,0.0,0.0,0.0,0.0,0.0,0.0,0.0,0.0,0.0,0.0,0.0,0.0,0.0,0.0,0.0,0.0,0.0,0.0,0.0,0.0,0.0,0.0,0.0,0.0,0.0,0.0,0.0,0.0,0.0,0.0,0.0,0.0,0.0,-0.8449,-0.8805,-0.945,-1.0556,-1.0806,-1.11,-1.1541,-1.1004,-1.049,0.0,0.0,0.0,0.0,0.0,0.0,0.0,0.0,0.0,0.0,0.0,0.0,0.0,0.0,0.0,0.0,0.0,0.0,0.0,0.0,0.0,0.0,0.0,0.0,0.0,0.0,0.0,0.0,0.0,0.0,0.0,0.0,0.0,0.0,0.0,0.0,0.0,0.0,0.0,0.0,0.0,-0.1841,-0.2251,-0.2416,-0.2515,0.0,0.0,-0.2805,-0.2768,-0.281,0.0,0.0,0.0,0.0,0.0,0.0,0.0,0.0,0.0,0.0,0.0,0.0,0.0,0.0,0.0,0.0,0.0,0.0,0.0,0.0,0.0,0.0,0.0,0.0,0.0,0.0,0.0,0.0,0.0,0.0,0.0,0.0,0.0,0.0,0.0,0.0,0.0,0.0,0.0,0.0,0.0,0.0,0.0,0.0,0.0,0.0,0.0,0.0,0.0,0.0,0.0,0.0,0.0,0.0,0.0,-0.7995,-0.8713,-0.8953,-0.959,-1.0597,-1.0954,-1.1392,-1.1811,-1.1522,-1.1082,0.0,0.0,0.0,0.0,0.0,0.0,0.0,0.0,0.0,0.0,0.0,0.0,0.0,0.0,0.0,0.0,0.0,0.0,0.0,0.0,0.0,0.0,0.0,0.0,0.0,0.0,0.0,0.0,0.0,0.0,0.0,0.0,0.0,0.0,0.0,0.0,0.0,0.0,0.0,0.0,0.0,0.0,-0.2631,-0.2735,0.0,0.0,0.0,-0.2971,-0.3021,0.0,0.0,0.0,0.0,0.0,0.0,0.0,0.0,0.0,0.0,0.0,0.0,0.0,0.0,0.0,0.0,0.0,0.0,0.0,0.0,0.0,0.0,0.0,0.0,0.0,0.0,0.0,0.0,0.0,0.0,0.0,0.0,0.0,0.0,0.0,0.0,0.0,0.0,0.0,0.0,0.0,0.0,0.0,0.0,0.0,0.0,0.0,0.0,0.0,0.0,0.0,0.0,0.0,0.0,0.0,0.0,0.0,-0.8972,-0.9244,-0.982,-1.0679,-1.1244,-1.1717,-1.2135,-1.2049,0.0,0.0,0.0,0.0,0.0,0.0,0.0,0.0,0.0,0.0,0.0,0.0,0.0,0.0,0.0,0.0,0.0,0.0,0.0,0.0,0.0,0.0,0.0,0.0,0.0,0.0,0.0,-0.2293,0.0,0.0,0.0,0.0,0.0,0.0,0.0,0.0,0.0,0.0,0.0,0.0,0.0,0.0,-0.282,-0.3076,-0.3171,-0.3278,0.0,0.0,-0.3395,-0.3448,-0.3395,-0.3376,0.0,0.0,0.0,0.0,0.0,0.0,0.0,0.0,0.0,0.0,0.0,0.0,0.0,0.0,0.0,0.0,0.0,0.0,0.0,0.0,0.0,0.0,0.0,0.0,0.0,0.0,0.0,0.0,0.0,0.0,0.0,0.0,0.0,0.0,0.0,0.0,0.0,0.0,0.0,0.0,0.0,0.0,0.0,0.0,0.0,0.0,0.0,0.0,0.0,0.0,0.0,0.0,0.0,0.0,0.0,-0.9231,-0.9472,-1.0043,-1.0985,-1.1476,-1.1978,-1.263,-1.2365,-1.1809,0.0,0.0,0.0,0.0,0.0,0.0,0.0,0.0,0.0,0.0,0.0,0.0,0.0,0.0,0.0,0.0,0.0,0.0,0.0,0.0,0.0,0.0,0.0,0.0,0.0,0.0,0.0,0.0,0.0,0.0,0.0,0.0,0.0,0.0,0.0,0.0,0.0,0.0,0.0,0.0,0.0,-0.309,-0.3572,-0.3809,-0.4016,0.0,0.0,-0.4426,-0.4423,-0.4366,-0.4343,-0.4092,0.0,0.0,0.0,0.0,0.0,0.0,0.0,0.0,0.0,0.0,0.0,0.0,0.0,0.0,0.0,0.0,0.0,0.0,0.0,0.0,0.0,0.0,0.0,0.0,0.0,0.0,0.0,0.0,0.0,0.0,0.0,0.0,0.0,0.0,0.0,0.0,0.0,0.0,0.0,0.0,0.0,0.0,0.0,0.0,0.0,0.0,0.0,0.0,0.0,0.0,0.0,0.0,0.0,-0.8988,-0.9472,-0.9986,-1.0556,-1.1209,-1.1942,-1.2612,-1.3142,-1.2952,-1.2635,0.0,0.0,0.0,0.0,0.0,0.0,0.0,0.0,0.0,0.0,0.0,0.0,0.0,0.0,0.0,0.0,0.0,0.0,0.0,0.0,0.0,0.0,0.0,0.0,0.0,0.0,0.0,0.0,-0.3199,-0.3291,-0.3325,0.0,0.0,0.0,0.0,0.0,0.0,0.0,0.0,0.0,0.0,-0.375,-0.4115,-0.4297,0.0,0.0,-0.4734,-0.4764,-0.4681,-0.4739,-0.4729,-0.448,-0.4194,0.0,0.0,0.0,0.0,0.0,0.0,0.0,0.0,0.0,0.0,0.0,0.0,0.0,0.0,0.0,0.0,0.0,0.0,0.0,0.0,0.0,0.0,0.0,0.0,0.0,0.0,0.0,0.0,0.0,0.0,0.0,0.0,0.0,0.0,0.0,0.0,0.0,0.0,0.0,0.0,0.0,0.0,0.0,0.0,0.0,0.0,0.0,0.0,0.0,0.0,0.0,0.0,-0.961,-1.0146,-1.0726,-1.1219,-1.1798,-1.2455,-1.3016,-1.3548,-1.3463,-1.312,0.0,0.0,0.0,0.0,0.0,0.0,0.0,0.0,0.0,0.0,0.0,0.0,0.0,0.0,0.0,0.0,0.0,0.0,0.0,0.0,0.0,0.0,0.0,0.0,0.0,0.0,0.0,0.0,-0.3597,-0.3724,-0.38,0.0,0.0,0.0,0.0,0.0,0.0,0.0,0.0,0.0,0.0,-0.4523,-0.4758,-0.4864,-0.4955,-0.5058,-0.5269,-0.5281,-0.5071,-0.5196,-0.5199,-0.4885,0.0,0.0,0.0,0.0,0.0,0.0,0.0,0.0,0.0,0.0,0.0,0.0,0.0,0.0,0.0,0.0,0.0,0.0,0.0,0.0,0.0,0.0,0.0,0.0,0.0,0.0,0.0,-0.5491,0.0,0.0,-0.5428,0.0,0.0,0.0,0.0,0.0,0.0,0.0,0.0,0.0,0.0,0.0,0.0,0.0,0.0,0.0,0.0,0.0,0.0,0.0,0.0,0.0,0.0,-1.071,-1.1446,-1.153,-1.2018,-1.2946,-1.2978,-1.3374,-1.4068,-1.3794,-1.3287,-1.2536,0.0,0.0,0.0,0.0,0.0,0.0,0.0,0.0,0.0,0.0,0.0,0.0,0.0,0.0,0.0,0.0,0.0,0.0,0.0,0.0,0.0,0.0,0.0,0.0,0.0,0.0,-0.3808,-0.4137,-0.4333,0.0,0.0,0.0,0.0,0.0,0.0,0.0,0.0,0.0,0.0,-0.4836,-0.5307,-0.5397,-0.5596,-0.5834,-0.5997,-0.6076,-0.6026,-0.5859,-0.5841,-0.5745,0.0,0.0,0.0,0.0,0.0,0.0,0.0,0.0,0.0,0.0,0.0,0.0,0.0,0.0,0.0,0.0,0.0,0.0,0.0,0.0,0.0,0.0,0.0,0.0,0.0,0.0,0.0,-0.6546,-0.7404,0.0,0.0,0.0,0.0,0.0,0.0,0.0,0.0,0.0,0.0,0.0,-1.0093,-1.0086,0.0,0.0,0.0,0.0,0.0,0.0,0.0,0.0,0.0,0.0,0.0,0.0,-1.0988,-1.1632,-1.2205,-1.2706,-1.2978,-1.3502,-1.382,-1.4082,-1.4149,-1.3886,-1.345,0.0,0.0,0.0,0.0,0.0,0.0,0.0,0.0,0.0,0.0,0.0,0.0,0.0,0.0,0.0,0.0,0.0,0.0,0.0,0.0,0.0,0.0,0.0,0.0,0.0,-0.412,0.0,0.0,0.0,0.0,0.0,0.0,0.0,0.0,0.0,0.0,0.0,-0.4874,-0.5031,-0.5439,-0.5774,-0.604,-0.616,-0.627,0.0,0.0,0.0,0.0,0.0,0.0,0.0,0.0,0.0,0.0,0.0,0.0,0.0,0.0,-0.4574,-0.3614,-0.3439,-0.3387,-0.3387,0.0,0.0,0.0,0.0,0.0,0.0,0.0,0.0,0.0,0.0,0.0,0.0,0.0,0.0,-0.8236,0.0,-0.8926,0.0,0.0,0.0,0.0,0.0,0.0,0.0,0.0,-1.0658,-1.0942,-1.1445,-1.129,-1.1391,0.0,-1.137,-1.0962,0.0,0.0,0.0,0.0,0.0,0.0,0.0,0.0,-1.1781,-1.2516,-1.3279,-1.3668,-1.3774,-1.4321,-1.4647,-1.4647,-1.4599,-1.4503,-1.4165,-1.3426,-1.2663,0.0,0.0,0.0,0.0,0.0,0.0,0.0,0.0,0.0,0.0,0.0,0.0,0.0,0.0,0.0,0.0,0.0,0.0,0.0,0.0,0.0,0.0,0.0,-0.4837,0.0,0.0,0.0,0.0,0.0,0.0,0.0,0.0,0.0,-0.4973,-0.5285,-0.5594,-0.5765,-0.614,-0.6433,-0.6577,0.0,0.0,0.0,0.0,0.0,0.0,0.0,-0.6345,-0.5899,-0.5725,-0.5734,-0.5874,-0.5993,-0.6124,-0.6192,0.0,0.0,-0.468,-0.4376,-0.4361,-0.4405,-0.4376,-0.4302,-0.4228,-0.4299,-0.4284,0.0,0.0,0.0,0.0,0.0,0.0,0.0,0.0,-1.0046,-1.0255,0.0,-1.0465,0.0,0.0,0.0,0.0,0.0,-1.0361,0.0,0.0,-1.1848,-1.2225,-1.3023,-1.2621,-1.2587,-1.2849,-1.2573,-1.2654,-1.2973,-1.1498,0.0,0.0,0.0,0.0,0.0,0.0,-1.3161,-1.3926,-1.4525,-1.5,-1.5203,-1.5497,-1.5747,-1.5725,-1.5355,-1.4982,-1.4646,-1.4355,-1.3926,-1.3397,-1.2239,0.0,0.0,0.0,0.0,0.0,0.0,0.0,0.0,0.0,0.0,0.0,0.0,0.0,0.0,0.0,0.0,0.0,0.0,0.0,0.0,-0.6023,0.0,0.0,0.0,0.0,0.0,0.0,0.0,0.0,0.0,0.0,-0.5624,-0.5927,-0.6293,-0.6531,0.0,0.0,0.0,0.0,-0.7192,-0.72,-0.7038,-0.6904,-0.6682,-0.6506,-0.6236,-0.5937,0.0,0.0,-0.6414,-0.6769,-0.7068,-0.706,-0.7077,-0.6804,-0.6071,-0.56,-0.5392,-0.5515,-0.5434,-0.5274,-0.5124,-0.5137,-0.5045,-1.4042,0.0,0.0,0.0,0.0,-1.0371,-1.0718,-1.1803,-1.1545,-1.1933,-1.2582,-1.2498,0.0,0.0,0.0,0.0,0.0,0.0,-1.2503,-1.2836,-1.29,-1.3246,-1.3773,-1.3763,-1.416,-1.4809,-1.4512,-1.4646,-1.5092,-1.4525,-1.355,-1.2332,0.0,0.0,0.0,0.0,-1.3682,-1.4,-1.5077,-1.5886,-1.6352,-1.6257,-1.6293,-1.647,-1.6199,-1.6036,-1.6064,-1.5725,-1.526,-1.4577,-1.3598,0.0,0.0,0.0,0.0,0.0,0.0,0.0,0.0,0.0,0.0,0.0,0.0,0.0,0.0,0.0,0.0,0.0,0.0,0.0,-0.6455,-0.6418,-0.6423,0.0,0.0,0.0,0.0,0.0,0.0,0.0,0.0,0.0,-0.7358,-0.7264,-0.7168,0.0,0.0,-0.7418,-0.7315,-0.7488,-0.7644,-0.7765,-0.7696,0.0,-0.74,-0.7496,-0.7434,-0.7266,-0.7315,-0.747,-0.7632,-0.7791,-0.8023,-0.8019,-0.8111,-0.8151,-0.7871,-0.7098,-0.6561,-0.6569,-0.6337,-0.611,-0.601,-0.5811,-0.5594,-1.7327,-1.5984,-1.4077,-1.349,-1.3607,-1.28,-1.3044,-1.3873,-1.3542,-1.3719,-1.4358,-1.4156,-1.3851,-1.3519,-1.3461,0.0,0.0,0.0,-1.4251,-1.4388,-1.4626,-1.4943,-1.5154,-1.5252,-1.5532,-1.5973,-1.5798,-1.5977,-1.6428,-1.6234,-1.5499,-1.4489,0.0,0.0,-1.401,-1.4543,-1.4748,-1.4815,-1.6067,-1.6743,-1.6959,-1.6974,-1.6981,-1.7115,-1.7011,-1.6949,-1.6977,-1.6846,-1.6495,-1.5738,-1.4979,-1.404,0.0,0.0,0.0,0.0,0.0,0.0,0.0,0.0,0.0,0.0,0.0,-0.7092,0.0,0.0,0.0,0.0,-0.7875,-0.7866,-0.7399,-0.7315,0.0,0.0,0.0,0.0,0.0,0.0,0.0,-0.7381,-0.7762,-0.8153,-0.8534,-0.8458,-0.828,-0.7899,-0.7927,-0.7888,-0.7758,0.0,-0.8145,-0.825,-0.8345,-0.8427,-0.8271,-0.8276,-0.8313,-0.8123,-0.8185,-0.8349,-0.8345,-0.8591,-0.875,-0.875,-0.8837,-0.8919,-0.8923,-0.8286,-0.7677,-0.7446,-0.7163,-0.6915,-0.667,-0.6457,-0.6215,-2.0079,-1.9343,-1.6357,-1.5412,-1.5817,-1.5431,-1.5579,-1.5981,-1.5715,-1.5703,-1.5817,-1.5617,-1.5268,-1.4919,-1.4926,0.0,-1.5471,-1.5724,-1.6006,-1.6405,-1.6638,-1.6812,-1.6898,-1.6883,-1.681,-1.6677,-1.6655,-1.6898,-1.7244,-1.7082,-1.6906,-1.6795,-1.594,-1.5432,-1.5411,-1.5871,-1.6089,-1.6235,-1.7146,-1.753,-1.7364,-1.7565,-1.7757,-1.7719,-1.7869,-1.7788,-1.7548,-1.766,-1.7421,-1.677,-1.6212,-1.5599,-1.4759,0.0,0.0,0.0,0.0,0.0,0.0,0.0,0.0,0.0,0.0,0.0,0.0,0.0,0.0,0.0,-0.8864,0.0,-0.85,-0.851,0.0,0.0,0.0,-0.8042,-0.8204,-0.826,-0.8217,-0.8203,0.0,0.0,-0.9151,-0.9555,-0.9601,-0.8968,-0.8781,-0.86,-0.8197,-0.8535,-0.879,-0.8826,-0.8982,-0.9142,-0.9096,-0.9013,-0.8857,-0.8713,-0.8734,-0.883,-0.883,-0.9073,-0.9302,-0.9321,-0.9297,-0.9306,-0.9297,-0.9041,-0.8799,-0.8119,-0.789,-0.7652,-0.7111,-0.6973,-0.6763,-2.1319,-2.108,-2.0119,-1.8955,-1.7753,-1.7586,-1.7648,-1.7944,-1.7501,-1.7515,-1.7684,-1.7594,-1.7464,-1.7311,-1.7159,-1.6991,-1.6653,-1.6978,-1.6915,-1.6741,-1.7164,-1.7536,-1.7835,-1.7763,-1.8001,-1.8373,-1.8164,-1.8133,-1.8391,-1.8399,-1.8125,-1.7743,-1.769,-1.7221,-1.6199,-1.6669,-1.6974,-1.6907,-1.7774,-1.8349,-1.8425,-1.8342,-1.8342,-1.8525,-1.8084,-1.7877,-1.7707,-1.7533,-1.7191,-1.6746,-1.6134,-1.5858,-1.6206,-1.4057,0.0,0.0,0.0,0.0,0.0,0.0,0.0,0.0,0.0,-0.9205,-0.9376,0.0,-0.9694,0.0,-0.9201,-0.9321,-0.9383,-0.9244,0.0,0.0,-0.905,-0.904,-0.9275,-0.9321,-0.9194,-0.8951,-0.937,-0.971,-0.9809,-1.0331,-1.0632,-1.0449,-0.9854,-0.9466,-0.9294,-0.9405,-0.9545,-0.9676,-0.979,-0.9804,-0.979,-0.9719,-0.967,-0.9587,-0.9648,-0.9719,-0.9719,-0.9804,-0.9804,-0.9547,-0.9542,-0.9461,-0.9366,-0.9121,-0.8767,-0.8229,-0.7922,-0.764,-0.727,-0.7033,-0.6771,-2.2167,-2.2212,-2.2108,-2.1347,-2.0159,-1.9469,-1.9241,-1.9367,-1.898,-1.8991,-1.9198,-1.893,-1.8863,-1.896,-1.8879,-1.8702,-1.8515,-1.8856,-1.8831,-1.847,-1.8902,-1.9192,-1.9296,-1.9284,-1.9303,-1.9566,-1.9241,-1.9074,-1.9058,-1.8907,-1.8643,-1.828,-1.8465,-1.8187,-1.7379,-1.7629,-1.788,-1.7834,-1.8372,-1.8666,-1.8827,-1.8558,-1.8566,-1.8827,-1.8454,-1.8186,-1.8017,-1.7826,-1.7493,-1.7,-1.6603,-1.6349,-1.6246,-1.4809,-1.3515,0.0,0.0,0.0,0.0,0.0,0.0,0.0,0.0,0.0,0.0,0.0,-1.1263,-1.1197,-1.092,-1.0791,-1.0927,-1.0514,-1.0355,-1.0463,-1.0313,-1.0273,-1.0529,-1.0529,-1.029,-0.9968,-1.029,-1.0559,-1.0547,-1.1022,-1.1357,-1.1408,-1.1032,-1.0574,-1.0174,-1.0288,-1.0419,-1.0448,-1.0646,-1.0651,-1.0477,-1.0299,-1.0163,-1.0088,-1.0027,-1.0038,-1.0038,-1.0038,-0.9951,-0.9694,-0.9607,-0.9519,-0.9345,-0.8995,-0.8732,-0.8532,-0.8225,-0.7847,-0.758,-0.7154,-0.6898,-2.285,-2.3028,-2.288,-2.2681,-2.2341,-2.114,-2.0571,-2.0476,-2.024,-2.0223,-2.0354,-2.002,-1.9979,-2.0171,-2.0171,-2.0263,-2.0371,-2.0788,-2.0849,-2.0559,-2.099,-2.1071,-2.0823,-2.0782,-2.0588,-2.0427,-2.0077,-1.9811,-1.9518,-1.9207,-1.8854,-1.8644,-1.8806,-1.8814,-1.8636,-1.8636,-1.8721,-1.8899,-1.8846,-1.8846,-1.8899,-1.8682,-1.8566,-1.8735,-1.8688,-1.8522,-1.8229,-1.8126,-1.781,-1.7241,-1.7107,-1.6656,-1.5864,-1.5224,-1.45,0.0,-1.2905,0.0,0.0,0.0,0.0,0.0,0.0,0.0,0.0,-1.2192,-1.2725,-1.376,-1.3154,-1.2674,-1.2567,-1.2017,-1.1852,-1.1998,-1.1745,-1.1706,-1.1863,-1.1666,-1.1405,-1.1111,-1.1277,-1.1451,-1.1488,-1.1671,-1.1935,-1.2032,-1.202,-1.1735,-1.1068,-1.1144,-1.1235,-1.1073,-1.1429,-1.1354,-1.1008,-1.0651,-1.0386,-1.0386,-1.0212,-1.0038,-1.0038,-0.9951,-0.9864,-0.9602,-0.9519,-0.9432,-0.9262,-0.8819,-0.864,-0.8732,-0.8444,-0.8086,-0.791,-0.7552,-0.7319,-2.35,-2.3534,-2.293,-2.2762,-2.2868,-2.2113,-2.1778,-2.1695,-2.142,-2.1282,-2.1215,-2.1139,-2.1104,-2.1104,-2.1104,-2.0923,-2.0654,-2.1086,-2.1024,-2.0649,-2.11,-2.1391,-2.1377,-2.1189,-2.1003,-2.104,-2.0726,-2.0465,-2.0473,-2.0207,-1.9837,-1.9563,-1.9359,-1.9264,-1.9272,0.0,0.0,0.0,-1.928,-1.9391,-1.9264,-1.8885,-1.8651,-1.8566,-1.8201,0.0,-1.7748,-1.7239,-1.6892,-1.6761,-1.6237,0.0,0.0,0.0,0.0,0.0,0.0,0.0,0.0,0.0,0.0,0.0,-1.3536,-1.323,-1.2942,-1.2884,-1.3287,-1.418,-1.4685,-1.448,-1.3292,-1.2977,-1.2918,-1.2973,-1.3076,-1.3145,-1.2945,-1.2892,-1.2591,-1.1918,-1.218,-1.2522,-1.2422,-1.2448,-1.2454,-1.2398,-1.2454,-1.2448,-1.2112,-1.1774,-1.1602,-1.1613,-1.1521,-1.1267,-1.1013,-1.0916,-1.0738,-1.0646,-1.0381,-1.0294,-1.0207,-0.9951,-0.9602,-0.9432,-0.9174,-0.8999,-0.8828,-0.8468,-0.8372,-0.8288,-0.8285,-0.8285,-0.8372,-0.8025,-0.7672,-2.4489,0.0,-2.4347,-2.4049,0.0,-2.3573,-2.3167,-2.2842,-2.2308,-2.2059,-2.197,-2.1978,-2.197,-2.197,-2.197,-2.188,-2.1683,-2.1872,-2.188,-2.1683,-2.1872,-2.2073,-2.2062,-2.1883,-2.1776,-2.1628,-2.1287,-2.1128,-2.0908,-2.0654,-2.0377,-2.0197,-2.011,-2.0006,-2.0014,-2.0176,-2.0079,-1.9614,-1.9734,-1.9662,-1.9376,-1.9193,-1.8925,-1.8481,-1.831,0.0,0.0,0.0,0.0,0.0,0.0,0.0,0.0,0.0,0.0,-1.4787,-1.4575,-1.4318,-1.4011,-1.3975,-1.4114,-1.4428,-1.4604,-1.4452,-1.4004,-1.3653,-1.3981,-1.5148,-1.5742,-1.5644,-1.4692,-1.4368,-1.4186,-1.4116,-1.4052,-1.4044,-1.387,-1.3695,-1.3357,-1.3034,-1.3112,-1.329,-1.3242,-1.324,-1.3197,-1.3015,-1.3021,-1.2961,-1.2754,-1.2365,-1.1952,-1.1699,-1.1516,-1.1251,-1.117,-1.1084,-1.0997,-1.0814,-1.0641,-1.0467,-1.0294,-1.0125,-0.9864,-0.9519,-0.9345,-0.917,-0.8823,-0.8552,-0.8376,-0.8552,-0.8464,-0.8464,-0.864,-0.8201,-0.7848,-2.5404,-2.567,-2.5617,-2.5295,-2.4788,-2.4727,-2.4393,-2.3833,0.0,0.0,0.0,-2.2679,-2.2644,-2.2653,-2.2653,-2.2653,-2.2653,-2.2653,-2.2653,-2.2653,-2.2653,-2.2653,-2.2653,-2.2653,-2.2443,-2.2215,-2.1936,-2.1694,-2.1462,-2.1089,-2.0923,-2.0865,-2.0856,-2.0751,-2.0776,-2.1098,-2.0925,-2.0255,-2.0313,-2.0144,-1.9758,-1.9621,-1.9233,-1.8567,-1.8605,-1.8249,-1.769,-1.7606,-1.7453,-1.7098,-1.7125,-1.6923,-1.6575,-1.6455,-1.6119,-1.5606,-1.5292,-1.5006,-1.4743,-1.467,-1.475,-1.5006,-1.5277,-1.5277,-1.4926,-1.4417,-1.4696,-1.5965,-1.6338,-1.6342,-1.5845,-1.5618,-1.5375,-1.5117,-1.4929,-1.4838,-1.4747,-1.4475,-1.4185,-1.4007,-1.4068,-1.4085,-1.4007,-1.3963,-1.3882,-1.3689,-1.3562,-1.3447,-1.3123,-1.2655,-1.2198,-1.1693,-1.1516,-1.1413,-1.1327,-1.1332,-1.116,-1.1165,-1.0987,-1.0727,-1.0467,-1.0294,-1.012,-0.9694,-0.9607,-0.934,-0.8999,-0.8819,-0.8727,-0.8911,-0.8727,-0.8723,-0.8819,-0.838,-0.8025,-2.5634,-2.5661,-2.5333,-2.5164,-2.4986,-2.4968,-2.4885,-2.4691,-2.3841,-2.3563,-2.375,-2.3204,-2.2955,-2.2946,-2.2745,-2.2653,-2.2653,-2.2653,-2.2653,-2.2653,-2.2653,-2.2653,-2.2653,-2.2653,-2.2544,-2.2544,-2.2492,-2.2466,-2.2357,-2.2097,-2.1728,-2.146,-2.1213,-2.1098,-2.1139,-2.1469,-2.1525,-2.1467,-2.1163,-2.0983,-2.0925,-2.0325,-1.9706,-1.8989,-1.88,-1.8442,-1.7747,-1.7644,-1.756,-1.7507,-1.7424,-1.7247,-1.6793,-1.6938,-1.6805,-1.6308,-1.595,-1.576,-1.5701,-1.5452,-1.5313,-1.5357,-1.5401,-1.5401,-1.535,-1.5231,-1.542,-1.6117,-1.674,-1.6892,-1.6211,-1.6009,-1.5953,-1.5685,-1.5604,-1.551,-1.5389,-1.5302,-1.5018,-1.4677,-1.4759,-1.4752,-1.4635,-1.4572,-1.4372,-1.416,-1.3938,-1.3695,-1.3231,-1.2762,-1.2141,-1.1602,-1.1693,-1.178,-1.1743,-1.1785,-1.1727,-1.1607,-1.1354,-1.1089,-1.0641,-1.0313,-0.9975,-0.9699,-0.9542,-0.9362,-0.9275,-0.8995,-0.8907,-0.8911,-0.8819,-0.8823,-0.8823,-0.838,-0.8109,-2.6145,-2.6227,-2.6145,-2.5964,-2.563,-2.5658,-2.5684,-2.5754,-2.5162,-2.4655,-2.4251,-2.3971,-2.3776,-2.3591,-2.337,-2.3155,-2.2846,-2.2846,-2.2754,-2.2653,-2.2653,-2.2653,-2.2653,-2.2653,-2.2653,-2.2653,-2.2653,-2.2653,-2.2552,-2.2434,-2.2257,-2.2104,-2.1987,-2.1979,-2.1996,-2.2148,-2.203,-2.1725,-2.1257,-2.1078,-2.1172,-2.0565,-1.9918,-1.9257,-1.9177,-1.873,-1.7908,-1.7842,-1.7942,-1.8125,-1.8068,-1.799,-1.7908,-1.7712,-1.7447,-1.7093,-1.6677,-1.6345,-1.6177,-1.6023,-1.5935,-1.5935,-1.5935,-1.5884,-1.5767,-1.5555,-1.5796,-1.6645,-1.6843,-1.6807,-1.6385,-1.623,-1.613,-1.5825,-1.5825,-1.5737,-1.5642,-1.554,-1.5452,-1.5255,-1.5246,-1.5143,-1.5023,-1.4933,-1.4788,-1.449,-1.4211,-1.3737,-1.3448,-1.3225,-1.2792,-1.2265,-1.2354,-1.2443,-1.2443,-1.2443,-1.2303,-1.2096,-1.1794,-1.1292,-1.0871,-1.0465,-1.0288,-1.0037,-0.986,-0.9776,-0.9687,-0.9328,-0.9099,-0.8911,-0.8823,-0.8736,-0.8556,-0.8116,-0.7764,-2.6691,-2.68,-2.6999,-2.6881,-2.6455,-2.6455,-2.6554,-2.6844,-2.643,-2.5815,-2.511,-2.4825,-2.4521,-2.4088,-2.4061,-2.3635,-2.3081,-2.3046,-2.2854,-2.2644,-2.2653,-2.2653,-2.2653,-2.2653,-2.2653,-2.2653,-2.2653,-2.2653,-2.2653,-2.2653,-2.2653,-2.2653,-2.2653,-2.2653,-2.2653,-2.2653,-2.2333,-2.1725,-2.1232,-2.0985,-2.1113,-2.0724,-2.0287,-1.9606,-1.9565,-1.9177,-1.8295,-1.8365,-1.845,-1.8635,-1.8727,-1.8819,-1.892,-1.855,-1.8149,-1.7713,-1.7258,-1.6801,-1.6404,-1.6367,-1.6367,-1.6367,-1.6463,-1.6404,-1.6359,-1.5948,-1.6096,-1.7028,-1.685,-1.6588,-1.6574,-1.64,-1.6123,-1.5832,-1.5825,-1.5825,-1.5825,-1.5635,-1.554,-1.554,-1.554,-1.5439,-1.5267,-1.5178,-1.5051,-1.4721,-1.4313,-1.4008,-1.3784,-1.3716,-1.3516,-1.3205,-1.3049,-1.2945,-1.3156,-1.3041,-1.2864,-1.2517,-1.2137,-1.1615,-1.1149,-1.0751,-1.0646,-1.0486,-1.0381,-1.0201,-0.9944,-0.9687,-0.9339,-0.9076,-0.8906,-0.8706,-0.8531,-0.8173,-0.7663,-2.7098,-2.7323,-2.7314,-2.753,-2.7647,-2.7431,-2.7431,-2.7628,-2.7159,-2.6924,-2.6559,-2.5481,-2.4756,-2.4404,-2.4181,-2.3653,-2.3081,-2.3046,-2.2854,-2.2644,-2.2653,-2.2653,-2.2653,-2.2653,-2.2653,-2.2653,-2.2653,-2.2653,-2.2653,-2.2653,-2.2653,-2.2653,-2.2653,-2.2653,-2.2653,-2.2653,-2.2342,-2.1725,-2.1121,-2.0901,-2.0963,-2.1054,-2.0687,-1.9925,-1.9979,-1.9646,-1.8775,-1.9004,-1.9096,-1.9188,-1.9563,-1.9563,-1.9188,-1.9096,-1.8804,-1.811,-1.7484,-1.6989,-1.6507,-1.6367,-1.6396,-1.6367,-1.6684,-1.684,-1.7048,-1.6603,-1.6557,-1.7079,-1.6864,-1.6683,-1.6588,-1.6407,-1.6123,-1.5832,-1.5825,-1.5825,-1.5825,-1.5825,-1.5737,-1.5825,-1.573,-1.5737,-1.5642,-1.5547,-1.5261,-1.4688,-1.4549,-1.441,-1.4214,-1.4183,-1.4147,-1.401,-1.3758,-1.3397,-1.3288,-1.3338,-1.3179,-1.2859,-1.2564,-1.2059,-1.1546,-1.099,-1.0685,-1.0779,-1.0491,-1.0276,-1.0127,-0.9965,-0.9666,-0.9334,-0.9167,-0.9023,-0.8946,-0.8729,-0.8257,-2.7206,-2.7431,-2.7638,-2.7853,-2.8077,-2.7853,-2.7745,-2.7853,-2.7422,-2.7098,-2.6961,-2.6215,-2.5761,-2.5359,-2.5027,-2.4494,-2.3803,-2.3562,-2.3356,-2.3046,-2.3046,-2.2946,-2.2854,-2.2846,-2.2745,-2.2653,-2.2653,-2.2653,-2.2653,-2.2653,-2.2653,-2.2653,-2.2653,-2.2653,-2.2653,-2.2653,-2.2342,-2.1725,-2.1522,-2.1224,-2.0909,-2.0985,-2.1037,-2.0884,-2.0619,-2.0169,-1.945,-1.9132,-1.9104,-1.9396,-1.9579,-1.9754,-1.9837,-1.9471,-1.9012,-1.8542,-1.768,-1.7176,-1.6945,-1.6938,-1.6938,-1.6938,-1.7135,-1.7363,-1.7529,-1.7454,-1.7529,-1.7647,-1.7326,-1.6958,-1.6777,-1.6501,-1.613,-1.5832,-1.5825,-1.5825,-1.5825,-1.5825,-1.5825,-1.5825,-1.5825,-1.5825,-1.5737,-1.5458,-1.5077,-1.4592,-1.4496,-1.44,-1.4298,-1.4298,-1.4298,-1.4274,-1.4093,-1.4002,-1.3778,-1.3508,-1.3256,-1.3048,-1.2713,-1.2226,-1.1799,-1.1263,-1.0886,-1.1096,-1.0667,-1.0357,-1.0359,-0.9894,-0.9461,-0.9389,-0.9287,-0.9096,-0.9287,-0.8995,-0.8536,-2.7422,-2.7647,-2.796,-2.8067,-2.8291,-2.8077,-2.8067,-2.796,-2.7647,-2.7431,-2.7107,-2.6791,-2.6525,-2.6087,-2.561,-2.4993,-2.4298,-2.389,-2.3646,-2.3447,-2.3456,-2.3347,-2.3147,-2.3055,-2.2846,-2.2754,-2.2644,-2.2653,-2.2653,-2.2653,-2.2653,-2.2653,-2.2653,-2.2653,-2.2653,-2.2653,-2.2333,-2.1725,-2.1725,-2.1522,-2.1224,-2.1121,-2.1156,-2.1321,-2.1039,-2.0498,-1.9944,-1.9394,-1.9293,-1.9679,-1.9762,-1.9936,-2.0292,-1.9853,-1.9304,-1.8542,-1.78,-1.7333,-1.7333,-1.7333,-1.7426,-1.7426,-1.7721,-1.7916,-1.8009,-1.8187,-1.828,-1.8187,-1.7807,-1.7434,-1.6979,-1.6508,-1.613,-1.5832,-1.5825,-1.5825,-1.5825,-1.5825,-1.5825,-1.5825,-1.5825,-1.573,-1.5642,-1.5274,-1.4885,-1.44,-1.4298,-1.4298,-1.4298,-1.4298,-1.4298,-1.4298,-1.4196,-1.419,-1.4196,-1.3872,-1.3521,-1.325,-1.3064,-1.2625,-1.2066,-1.1657,-1.1288,-1.1467,-1.0754,-1.0377,-1.035,-0.9979,-0.9703,-0.9708,-0.9613,-0.9617,-1.0048,-0.9527,-0.9238,-2.8067,-2.8184,-2.8291,-2.8291,-2.8291,-2.8291,-2.8291,-2.8291,-2.797,-2.7638,-2.7323,-2.7098,-2.6772,-2.6454,-2.5702,-2.4847,-2.3981,-2.3881,-2.3646,-2.3447,-2.3447,-2.3447,-2.3347,-2.3147,-2.3046,-2.2946,-2.2754,-2.2653,-2.2653,-2.2653,-2.2653,-2.2653,-2.2653,-2.2653,-2.2653,-2.2653,-2.2342,-2.1827,-2.1725,-2.1725,-2.1623,-2.1615,-2.1459,-2.1047,-2.1065,-2.0817,-2.0231,-2.0099,-2.0019,-1.9953,-2.0135,-2.0309,-2.0292,-2.0244,-1.9512,-1.8079,-1.7807,-1.7535,-1.7426,-1.7527,-1.7721,-1.7729,-1.8102,-1.8481,-1.8388,-1.8558,-1.8651,-1.8481,-1.8094,-1.7714,-1.7073,-1.6609,-1.613,-1.5832,-1.5825,-1.5825,-1.5825,-1.5825,-1.5825,-1.5825,-1.5825,-1.5642,-1.5267,-1.5083,-1.4885,-1.4496,-1.4298,-1.4298,-1.4298,-1.4298,-1.4298,-1.4304,-1.4112,-1.4027,-1.4208,-1.401,-1.3908,-1.3759,-1.3431,-1.3284,-1.2844,-1.2406,-1.2026,-1.1626,-1.092,-1.0546,-1.0422,-1.028,-1.0236,-1.0312,-1.0391,-1.0595,-1.0628,-1.0245,-0.9934,-2.8077,-2.8301,-2.8301,-2.8301,-2.8301,-2.8301,-2.8301,-2.8291,-2.795,-2.7745,-2.7422,-2.7098,-2.6741,-2.616,-2.5619,-2.5216,-2.4793,-2.4299,-2.4053,-2.3854,-2.3746,-2.3546,-2.3347,-2.3147,-2.3046,-2.2946,-2.2754,-2.2653,-2.2653,-2.2653,-2.2653,-2.2653,-2.2653,-2.2653,-2.2653,-2.2653,-2.2443,-2.2342,-2.2241,-2.2241,-2.2232,-2.2232,-2.2064,-2.1628,-2.1512,-2.127,-2.0801,-2.0578,-2.0384,-2.0289,-2.0365,-2.0348,-2.0326,-2.0027,-1.9296,-1.8179,-1.8172,-1.7986,-1.7621,-1.7807,-1.8001,-1.7994,-1.8288,-1.8481,-1.8481,-1.8651,-1.8743,-1.8473,-1.79,-1.7434,-1.7066,-1.669,-1.6312,-1.5927,-1.5825,-1.5825,-1.5825,-1.5825,-1.5825,-1.5825,-1.5825,-1.5642,-1.5267,-1.5083,-1.4885,-1.44,-1.4298,-1.4298,-1.4298,-1.4298,-1.4298,-1.4298,-1.4208,-1.4208,-1.4304,-1.4016,-1.3727,-1.3727,-1.3528,-1.3323,-1.2898,-1.2384,-1.1965,-1.1879,-1.1216,-1.0812,-1.0751,-1.0895,-1.0806,-1.09,-1.1096,-1.1002,-1.1096,-1.0413,-1.0117,-2.8184,-2.8301,-2.8301,-2.8301,-2.8301,-2.8301,-2.8301,-2.8291,-2.8067,-2.7862,-2.753,-2.7206,-2.6831,-2.6301,-2.5715,-2.5372,-2.5271,-2.4537,-2.4161,-2.4161,-2.4053,-2.3927,-2.3817,-2.3418,-2.3226,-2.3195,-2.2797,-2.2653,-2.2653,-2.2653,-2.2653,-2.2653,-2.2653,-2.2653,-2.2653,-2.2653,-2.2653,-2.2653,-2.2653,-2.2653,-2.2653,-2.2653,-2.2434,-2.2097,-2.1996,-2.171,-2.1395,-2.1064,-2.0958,-2.0796,-2.0525,-2.0374,-2.0252,-1.9937,-1.9393,-1.8666,-1.855,-1.8272,-1.7908,-1.8094,-1.8187,-1.828,-1.8473,-1.8566,-1.8574,-1.8651,-1.8651,-1.8187,-1.7714,-1.7246,-1.6972,-1.6777,-1.6393,-1.592,-1.5825,-1.5825,-1.5825,-1.5825,-1.5825,-1.5825,-1.5825,-1.5642,-1.5267,-1.5178,-1.4885,-1.4496,-1.4394,-1.4298,-1.4298,-1.4298,-1.4298,-1.4298,-1.4298,-1.4304,-1.4298,-1.4106,-1.3829,-1.3829,-1.3732,-1.3443,-1.3028,-1.24,-1.198,-1.1895,-1.1628,-1.121,-1.1127,-1.1375,-1.1487,-1.1585,-1.1487,-1.1389,-1.1096,-1.0413,-1.0117,-2.8514,-2.8301,-2.8281,-2.8301,-2.8291,-2.8301,-2.8301,-2.8301,-2.8291,-2.8077,-2.7853,-2.7539,-2.7178,-2.6803,-2.5968,-2.5408,-2.528,-2.4592,-2.4225,-2.4216,-2.4207,-2.4427,-2.4646,-2.3842,-2.3622,-2.3776,-2.3045,-2.267,-2.2653,-2.2653,-2.2653,-2.2653,-2.2653,-2.2653,-2.2653,-2.2653,-2.2653,-2.2653,-2.2653,-2.2653,-2.2653,-2.2653,-2.2443,-2.2232,-2.2417,-2.2255,-2.1652,-2.1618,-2.1523,-2.1335,-2.0771,-2.0374,-2.0397,-2.0172,-1.9926,-1.9453,-1.8851,-1.8473,-1.8179,-1.8373,-1.8481,-1.8481,-1.8658,-1.8751,-1.8566,-1.8643,-1.8458,-1.7908,-1.7527,-1.7246,-1.6972,-1.6777,-1.64,-1.5927,-1.5832,-1.5825,-1.5825,-1.5825,-1.5825,-1.5825,-1.5825,-1.573,-1.5547,-1.5267,-1.4987,-1.4694,-1.4496,-1.4298,-1.4298,-1.4298,-1.4298,-1.4298,-1.4298,-1.4298,-1.4298,-1.4298,-1.4112,-1.3931,-1.3829,-1.3636,-1.3147,-1.2667,-1.2373,-1.2257,-1.196,-1.1638,-1.1541,-1.1785,-1.1883,-1.1975,-1.1878,-1.1683,-1.1096,-1.0511,-1.0117,-2.8824,-2.8621,-2.8621,-2.8514,-2.8301,-2.8301,-2.8301,-2.8301,-2.8301,-2.8174,-2.796,-2.7745,-2.7422,-2.6985,-2.6324,-2.5986,-2.5702,-2.4968,-2.4583,-2.4583,-2.4473,-2.4581,-2.4769,-2.4414,-2.4083,-2.3753,-2.363,-2.3207,-2.2687,-2.2653,-2.2653,-2.2653,-2.2653,-2.2653,-2.2653,-2.2653,-2.2653,-2.2653,-2.2653,-2.2653,-2.2653,-2.2653,-2.2544,-2.2443,-2.2544,-2.2475,-2.2289,-2.2272,-2.2093,-2.1824,-2.159,-2.1343,-2.1028,-2.0636,-1.9926,-1.916,-1.9012,-1.8835,-1.8473,-1.8558,-1.8743,-1.8743,-1.8743,-1.8743,-1.8651,-1.8458,-1.8272,-1.79,-1.7613,-1.7239,-1.6972,-1.6777,-1.6494,-1.613,-1.5927,-1.5825,-1.5825,-1.5825,-1.5825,-1.5825,-1.5825,-1.573,-1.5547,-1.5267,-1.4987,-1.479,-1.4496,-1.4298,-1.4298,-1.4298,-1.4298,-1.4298,-1.4298,-1.4304,-1.4208,-1.4112,-1.3925,-1.3732,-1.3636,-1.3539,-1.3152,-1.2856,-1.2667,-1.2473,-1.2273,-1.2175,-1.2078,-1.2175,-1.2273,-1.2175,-1.198,-1.1683,-1.1194,-1.0703,-1.0019,-2.9152,-2.8727,-2.8727,-2.8514,-2.8291,-2.8301,-2.8301,-2.8301,-2.8301,-2.8184,-2.8077,-2.796,-2.7638,-2.7121,-2.6677,-2.6287,-2.5973,-2.5133,-2.4858,-2.4941,-2.472,-2.4799,-2.4986,-2.4575,-2.4103,-2.3659,-2.3493,-2.3199,-2.2662,-2.2653,-2.2653,-2.2653,-2.2653,-2.2653,-2.2653,-2.2653,-2.2653,-2.2653,-2.2653,-2.2653,-2.2653,-2.2653,-2.2653,-2.2653,-2.2653,-2.2653,-2.2544,-2.2443,-2.2332,-2.2036,-2.1994,-2.1756,-2.136,-2.0794,-1.9903,-1.9116,-1.8912,-1.8928,-1.8651,-1.8735,-1.8827,-1.8827,-1.8827,-1.8735,-1.8651,-1.8465,-1.8272,-1.79,-1.752,-1.7239,-1.7059,-1.6777,-1.6494,-1.64,-1.6123,-1.5933,-1.5927,-1.5927,-1.5832,-1.5832,-1.5825,-1.573,-1.554,-1.5267,-1.4987,-1.4783,-1.449,-1.4298,-1.4298,-1.4298,-1.4298,-1.4298,-1.4298,-1.4208,-1.4112,-1.3925,-1.3738,-1.3539,-1.334,-1.3249,-1.2958,-1.2861,-1.2667,-1.2667,-1.2473,-1.2467,-1.2467,-1.2565,-1.2662,-1.237,-1.2078,-1.1487,-1.0998,-1.0216,-0.9727,-2.9574,-2.8834,-2.8737,-2.8621,-2.8301,-2.8301,-2.8301,-2.8301,-2.8301,-2.8301,-2.8184,-2.8067,-2.7716,-2.7289,-2.6746,-2.6259,-2.589,-2.5152,-2.4977,-2.5133,-2.5005,-2.4996,-2.5185,-2.4562,-2.4083,-2.3615,-2.3123,-2.2722,-2.2653,-2.2653,-2.2653,-2.2653,-2.2653,-2.2653,-2.2653,-2.2653,-2.2653,-2.2653,-2.2653,-2.2653,-2.2653,-2.2653,-2.2653,-2.2653,-2.2653,-2.2653,-2.2552,-2.2333,-2.2131,-2.2021,-2.1887,-2.1603,-2.1354,-2.0693,-1.9837,-1.8899,-1.8827,-1.8827,-1.8827,-1.8827,-1.8827,-1.8827,-1.8735,-1.8743,-1.8566,-1.8651,-1.8465,-1.7815,-1.7434,-1.7333,-1.7239,-1.6965,-1.6683,-1.6588,-1.6312,-1.6224,-1.6224,-1.6218,-1.6028,-1.5927,-1.5832,-1.5737,-1.554,-1.5267,-1.4981,-1.4783,-1.449,-1.4394,-1.4298,-1.4298,-1.4298,-1.4298,-1.4298,-1.4208,-1.4118,-1.3829,-1.3642,-1.3346,-1.3147,-1.305,-1.2861,-1.2764,-1.2764,-1.2764,-1.2764,-1.2764,-1.2759,-1.2759,-1.2565,-1.2273,-1.1883,-1.1296,-1.0708,-1.0117,-0.9727,-3.0088,-2.9353,-2.9343,-2.893,-2.8291,-2.8301,-2.8301,-2.8301,-2.8301,-2.8291,-2.8281,-2.8184,-2.7767,-2.7276,-2.6854,-2.6349,-2.5785,-2.5117,-2.4996,-2.5262,-2.4959,-2.5014,-2.5298,-2.4941,-2.4414,-2.3865,-2.339,-2.3132,-2.267,-2.2653,-2.2653,-2.2653,-2.2653,-2.2653,-2.2653,-2.2653,-2.2653,-2.2653,-2.2653,-2.2653,-2.2653,-2.2653,-2.2653,-2.2653,-2.2653,-2.2653,-2.2544,-2.2232,-2.203,-2.1827,-2.1725,-2.1659,-2.1478,-2.0745,-1.9861,-1.897,-1.8827,-1.8827,-1.8827,-1.8827,-1.8827,-1.8735,-1.8658,-1.8566,-1.8473,-1.8651,-1.8365,-1.7807,-1.7426,-1.7333,-1.7239,-1.7059,-1.6878,-1.6588,-1.6407,-1.6319,-1.6407,-1.6319,-1.613,-1.613,-1.5832,-1.5635,-1.5452,-1.5261,-1.4981,-1.479,-1.4592,-1.4496,-1.4394,-1.4298,-1.4298,-1.4298,-1.4304,-1.4112,-1.3925,-1.3732,-1.3443,-1.3244,-1.305,-1.2856,-1.2861,-1.2764,-1.2759,-1.2764,-1.2764,-1.2759,-1.2667,-1.2667,-1.237,-1.2175,-1.1683,-1.1194,-1.0708,-1.0216,-1.0019,-3.0401,-2.9659,-2.9659,-2.9132,-2.8301,-2.8301,-2.8301,-2.8301,-2.8291,-2.8184,-2.8076,-2.8037,-2.7678,-2.6977,-2.675,-2.6333,-2.5759,-2.5154,-2.4997,-2.4996,-2.4684,-2.484,-2.4954,-2.4675,-2.4097,-2.3865,-2.3373,-2.297,-2.2687,-2.2653,-2.2653,-2.2653,-2.2653,-2.2653,-2.2653,-2.2653,-2.2653,-2.2653,-2.2653,-2.2653,-2.2653,-2.2653,-2.2653,-2.2653,-2.2653,-2.2544,-2.2434,-2.2232,-2.192,-2.1725,-2.1623,-2.153,-2.1253,-2.0547,-1.9758,-1.8899,-1.8827,-1.8827,-1.8827,-1.8827,-1.8743,-1.8658,-1.8574,-1.8473,-1.8373,-1.8458,-1.8272,-1.7908,-1.752,-1.7426,-1.7426,-1.716,-1.6972,-1.6777,-1.6602,-1.6595,-1.6588,-1.6602,-1.6407,-1.6224,-1.5838,-1.5547,-1.5363,-1.5077,-1.4885,-1.4694,-1.4592,-1.4496,-1.449,-1.4394,-1.4298,-1.4298,-1.4304,-1.4112,-1.3925,-1.3732,-1.3443,-1.3147,-1.2953,-1.2759,-1.2759,-1.2759,-1.2759,-1.2759,-1.2759,-1.2759,-1.2667,-1.257,-1.237,-1.2078,-1.1585,-1.1194,-1.0708,-1.0511,-1.0216,-3.0703,-2.9764,-2.9659,-2.9132,-2.8495,-2.8242,-2.8184,-2.8203,-2.8096,-2.79,-2.7646,-2.7598,-2.724,-2.6535,-2.6535,-2.6189,-2.5703,-2.5181,-2.4895,-2.4702,-2.4427,-2.4436,-2.4669,-2.3949,-2.3639,-2.3449,-2.2892,-2.2696,-2.2653,-2.2653,-2.2653,-2.2653,-2.2653,-2.2653,-2.2653,-2.2653,-2.2653,-2.2653,-2.2653,-2.2653,-2.2653,-2.2653,-2.2653,-2.2653,-2.2653,-2.2443,-2.2333,-2.2123,-2.203,-2.1725,-2.1522,-2.1216,-2.0931,-2.0349,-1.9654,-1.9087,-1.9012,-1.8928,-1.892,-1.892,-1.8735,-1.8651,-1.8574,-1.8388,-1.8187,-1.8079,-1.7986,-1.8087,-1.7699,-1.7613,-1.7527,-1.7261,-1.7073,-1.6972,-1.6979,-1.6878,-1.6784,-1.6878,-1.6791,-1.6319,-1.6021,-1.5547,-1.5267,-1.4885,-1.4694,-1.4592,-1.4496,-1.4496,-1.449,-1.4394,-1.4298,-1.4298,-1.4304,-1.4208,-1.3925,-1.3636,-1.3346,-1.3055,-1.2953,-1.2759,-1.2759,-1.2759,-1.2759,-1.2759,-1.2759,-1.2759,-1.2759,-1.2565,-1.2273,-1.198,-1.159,-1.1198,-1.0904,-1.0806,-1.0605,-3.1105,-3.0484,-3.0088,-2.9564,-2.886,-2.816,-2.7803,-2.7773,-2.7451,-2.7295,-2.7168,-2.7148,-2.6914,-2.6423,-2.6193,-2.5839,-2.541,-2.4951,-2.447,-2.4371,-2.4225,-2.4108,-2.4016,-2.3609,-2.3317,-2.3169,-2.2805,-2.2653,-2.2653,-2.2653,-2.2653,-2.2653,-2.2653,-2.2653,-2.2653,-2.2653,-2.2653,-2.2653,-2.2653,-2.2653,-2.2653,-2.2653,-2.2653,-2.2653,-2.2653,-2.2552,-2.2544,-2.2443,-2.2342,-2.203,-2.1717,-2.142,-2.0993,-2.0654,-2.014,-1.9584,-1.9396,-1.9396,-1.9396,-1.9196,-1.9004,-1.8743,-1.8566,-1.8381,-1.8079,-1.7707,-1.7707,-1.7986,-1.8272,-1.8179,-1.7721,-1.7434,-1.7246,-1.7066,-1.7153,-1.7153,-1.6972,-1.6986,-1.6885,-1.669,-1.6015,-1.5439,-1.535,-1.4879,-1.4688,-1.4496,-1.4496,-1.4496,-1.449,-1.4394,-1.4298,-1.4298,-1.4304,-1.4208,-1.4022,-1.3732,-1.3346,-1.3152,-1.2958,-1.2759,-1.2759,-1.2759,-1.2759,-1.2759,-1.2759,-1.2759,-1.2759,-1.237,-1.2078,-1.1785,-1.159,-1.1194,-1.0998,-1.09,-1.09,-3.0568,-3.0229,-2.963,-2.8931,-2.8261,-2.7752,-2.7457,-2.7324,-2.7129,-2.6904,-2.6748,-2.6719,-2.6484,-2.6103,-2.5877,-2.5633,-2.5283,-2.4735,-2.444,-2.4359,-2.4251,-2.4053,-2.3854,-2.3655,-2.3347,-2.3046,-2.2745,-2.2644,-2.2653,-2.2653,-2.2653,-2.2653,-2.2653,-2.2653,-2.2653,-2.2653,-2.2653,-2.2653,-2.2653,-2.2653,-2.2653,-2.2653,-2.2653,-2.2653,-2.2653,-2.2653,-2.2653,-2.2653,-2.2535,-2.2333,-2.2241,-2.1835,-2.1306,-2.095,-2.0434,-2.0004,-1.9679,-1.9587,-1.9487,-1.9204,-1.892,-1.8827,-1.8558,-1.828,-1.8087,-1.7807,-1.79,-1.8179,-1.8465,-1.8465,-1.7822,-1.7628,-1.734,-1.7246,-1.7246,-1.7239,-1.716,-1.716,-1.7059,-1.6777,-1.6109,-1.5635,-1.5255,-1.4873,-1.4688,-1.4496,-1.44,-1.44,-1.4496,-1.449,-1.4298,-1.4298,-1.4298,-1.4208,-1.4112,-1.3829,-1.3443,-1.3152,-1.2958,-1.2856,-1.2759,-1.2759,-1.2759,-1.2759,-1.2759,-1.2759,-1.2759,-1.2273,-1.198,-1.1883,-1.159,-1.1292,-1.1096,-1.1096,-1.1096,-2.9835,-2.9663,-2.8974,-2.8196,-2.7592,-2.7431,-2.7209,-2.7016,-2.6937,-2.6653,-2.6437,-2.6388,-2.6291,-2.581,-2.5762,-2.5635,-2.5235,-2.4932,-2.4637,-2.444,-2.4341,-2.4152,-2.3954,-2.3755,-2.3555,-2.3138,-2.2846,-2.2745,-2.2644,-2.2644,-2.2653,-2.2653,-2.2653,-2.2653,-2.2653,-2.2653,-2.2653,-2.2653,-2.2653,-2.2653,-2.2653,-2.2653,-2.2653,-2.2653,-2.2653,-2.2653,-2.2653,-2.2653,-2.2653,-2.2653,-2.2653,-2.2342,-2.1854,-2.1245,-2.0615,-2.0369,-1.9945,-1.9853,-1.9671,-1.9387,-1.9004,-1.892,-1.855,-1.8272,-1.8272,-1.8272,-1.8272,-1.8473,-1.8658,-1.8465,-1.7815,-1.7721,-1.7527,-1.7333,-1.7333,-1.7333,-1.7333,-1.7333,-1.7145,-1.677,-1.6204,-1.5642,-1.5255,-1.4873,-1.4688,-1.4598,-1.44,-1.4394,-1.4496,-1.4496,-1.4394,-1.4298,-1.4298,-1.4112,-1.3919,-1.3732,-1.3437,-1.3152,-1.2861,-1.2861,-1.2759,-1.2759,-1.2759,-1.2759,-1.2759,-1.2759,-1.2662,-1.2273,-1.2078,-1.198,-1.1688,-1.1292,-1.1194,-1.1194,-1.1194,-2.9948,-2.9706,-2.9126,-2.8697,-2.8235,-2.7312,-2.6963,-2.6983,-2.6517,-2.6396,-2.6453,-2.652,-2.6316,-2.611,-2.6004,-2.581,-2.5333,-2.5137,-2.4833,-2.4627,-2.444,-2.4341,-2.4152,-2.3954,-2.3755,-2.3546,-2.3247,-2.2955,-2.2854,-2.2745,-2.2653,-2.2653,-2.2653,-2.2653,-2.2653,-2.2653,-2.2653,-2.2653,-2.2653,-2.2653,-2.2653,-2.2653,-2.2653,-2.2653,-2.2653,-2.2653,-2.2653,-2.2653,-2.2653,-2.2653,-2.2653,-2.2544,-2.2289,-2.1637,-2.0985,-2.0397,-2.0201,-2.0119,-2.0027,-1.9837,-1.9654,-1.9463,-1.9096,-1.8819,-1.8735,-1.8643,-1.8643,-1.8651,-1.8658,-1.8473,-1.8087,-1.7908,-1.7621,-1.7426,-1.7333,-1.7333,-1.7333,-1.7333,-1.7326,-1.7052,-1.6393,-1.5737,-1.5356,-1.4968,-1.4783,-1.4694,-1.4592,-1.4496,-1.449,-1.449,-1.4394,-1.4298,-1.4298,-1.4016,-1.363,-1.3539,-1.3346,-1.3055,-1.2861,-1.2861,-1.2759,-1.2759,-1.2759,-1.2759,-1.2759,-1.2759,-1.2565,-1.2273,-1.2078,-1.198,-1.1585,-1.1194,-1.1194,-1.1194,-1.1194,-2.9321,-2.9311,-2.8591,-2.8098,-2.7775,-2.7211,-2.6818,-2.6788,-2.649,-2.64,-2.6496,-2.6496,-2.64,-2.6294,-2.61,-2.581,-2.5528,-2.5333,-2.503,-2.4726,-2.4538,-2.444,-2.4251,-2.4053,-2.4053,-2.3954,-2.3655,-2.3256,-2.3055,-2.2846,-2.2754,-2.2653,-2.2653,-2.2653,-2.2653,-2.2653,-2.2653,-2.2653,-2.2653,-2.2653,-2.2653,-2.2653,-2.2653,-2.2653,-2.2653,-2.2653,-2.2653,-2.2653,-2.2653,-2.2653,-2.2653,-2.2653,-2.2338,-2.1816,-2.1071,-2.0454,-2.0292,-2.0292,-2.0201,-2.0019,-1.9654,-1.9571,-1.9288,-1.9012,-1.8827,-1.8827,-1.8827,-1.8827,-1.892,-1.8743,-1.8381,-1.8094,-1.7807,-1.7527,-1.7426,-1.7333,-1.7333,-1.7333,-1.7333,-1.7239,-1.6574,-1.6015,-1.5642,-1.5261,-1.4879,-1.4688,-1.4694,-1.4592,-1.449,-1.449,-1.4394,-1.4298,-1.4298,-1.4112,-1.3727,-1.3539,-1.3346,-1.3055,-1.2861,-1.2764,-1.2759,-1.2759,-1.2759,-1.2759,-1.2759,-1.2759,-1.2565,-1.237,-1.2175,-1.198,-1.1585,-1.1292,-1.1194,-1.1194,-1.1194,-2.8715,-2.8838,-2.8073,-2.7641,-2.7357,-2.7081,-2.69,-2.6688,-2.6602,-2.6602,-2.6688,-2.6699,-2.6688,-2.6496,-2.6304,-2.6004,-2.5732,-2.5528,-2.5235,-2.4932,-2.4735,-2.444,-2.4251,-2.4161,-2.4152,-2.4152,-2.3954,-2.3646,-2.3256,-2.3147,-2.2946,-2.2846,-2.2745,-2.2653,-2.2754,-2.2644,-2.2644,-2.2653,-2.2653,-2.2653,-2.2653,-2.2653,-2.2653,-2.2653,-2.2653,-2.2653,-2.2653,-2.2653,-2.2653,-2.2619,-2.2576,-2.255,-2.249,-2.1756,-2.1002,-2.0429,-2.03,-2.0292,-2.0201,-1.992,-1.9745,-1.9671,-1.9196,-1.9012,-1.9012,-1.902,-1.902,-1.9012,-1.9004,-1.892,-1.8566,-1.8288,-1.8001,-1.7721,-1.7527,-1.7333,-1.7326,-1.7326,-1.7333,-1.7145,-1.6669,-1.6292,-1.5913,-1.5452,-1.4981,-1.4885,-1.4885,-1.4892,-1.479,-1.4688,-1.4586,-1.4394,-1.4304,-1.4112,-1.3919,-1.3636,-1.3443,-1.3152,-1.2861,-1.2759,-1.2759,-1.2759,-1.2759,-1.2759,-1.2759,-1.2759,-1.257,-1.2375,-1.2175,-1.1883,-1.1492,-1.1389,-1.1389,-1.1389,-1.1389,-2.879,-2.8481,-2.8333,-2.8019,-2.7547,-2.7357,-2.7262,-2.7167,-2.6986,-2.6996,-2.7167,-2.7167,-2.7071,-2.6794,-2.6294,-2.6091,-2.6004,-2.582,-2.543,-2.4932,-2.4833,-2.4538,-2.4251,-2.4161,-2.4161,-2.4161,-2.4161,-2.3954,-2.3646,-2.3447,-2.3347,-2.3247,-2.3046,-2.2946,-2.2955,-2.2745,-2.2653,-2.2653,-2.2653,-2.2653,-2.2653,-2.2653,-2.2653,-2.2653,-2.2653,-2.2653,-2.2653,-2.2653,-2.2653,-2.2619,-2.2235,-2.2244,-2.2304,-2.1508,-2.0831,-2.0429,-2.0292,-2.0292,-2.0292,-2.0019,-1.9837,-1.9754,-1.9371,-1.9387,-1.9387,-1.9387,-1.9396,-1.9496,-1.9379,-1.9012,-1.8658,-1.828,-1.7994,-1.7815,-1.7721,-1.7527,-1.7426,-1.7426,-1.7527,-1.7246,-1.6864,-1.6574,-1.6197,-1.5642,-1.5083,-1.5083,-1.5083,-1.5083,-1.4987,-1.4879,-1.4592,-1.4394,-1.4298,-1.4208,-1.3925,-1.3636,-1.3443,-1.3152,-1.2958,-1.2759,-1.2759,-1.2759,-1.2759,-1.2759,-1.2759,-1.2759,-1.2662,-1.2467,-1.2175,-1.1883,-1.1688,-1.159,-1.1585,-1.1585,-1.1487,-2.9128,-2.8768,-2.8488,-2.8301,-2.8019,-2.7641,-2.7452,-2.7452,-2.7262,-2.7167,-2.7262,-2.7262,-2.7167,-2.689,-2.6592,-2.639,-2.6091,-2.6004,-2.5528,-2.503,-2.4843,-2.4637,-2.4251,-2.4161,-2.4161,-2.4161,-2.4161,-2.4152,-2.3954,-2.3746,-2.3546,-2.3456,-2.3256,-2.3247,-2.3155,-2.2955,-2.2728,-2.2619,-2.2636,-2.2653,-2.2653,-2.2653,-2.2653,-2.2653,-2.2653,-2.2653,-2.2653,-2.2653,-2.2653,-2.2584,-2.2201,-2.1936,-2.179,-2.1259,-2.0711,-2.0343,-2.0292,-2.0292,-2.0292,-2.0019,-1.9936,-1.9762,-1.9571,-1.9487,-1.9587,-1.9671,-1.9662,-1.9587,-1.9387,-1.9112,-1.8743,-1.8473,-1.8288,-1.8195,-1.8009,-1.7721,-1.7621,-1.7628,-1.7535,-1.7347,-1.7153,-1.677,-1.648,-1.6021,-1.5553,-1.5356,-1.5363,-1.5363,-1.5172,-1.4975,-1.4682,-1.4394,-1.4298,-1.4202,-1.3925,-1.3642,-1.3443,-1.3147,-1.2953,-1.2856,-1.2759,-1.2759,-1.2856,-1.2856,-1.2764,-1.2759,-1.2759,-1.2565,-1.2273,-1.2078,-1.198,-1.1883,-1.178,-1.1585,-1.1585,-2.9312,-2.9035,-2.8675,-2.8488,-2.8405,-2.7925,-2.7631,-2.7536,-2.7347,-2.7262,-2.7272,-2.7262,-2.7177,-2.6996,-2.689,-2.6602,-2.6197,-2.6091,-2.5518,-2.5128,-2.4735,-2.4548,-2.4251,-2.4161,-2.4161,-2.4161,-2.4161,-2.4152,-2.4152,-2.3954,-2.3755,-2.3555,-2.3555,-2.3546,-2.3456,-2.3256,-2.3038,-2.2811,-2.2736,-2.2754,-2.2644,-2.2653,-2.2653,-2.2653,-2.2653,-2.2653,-2.2653,-2.2653,-2.2653,-2.2321,-2.2013,-2.1696,-2.1456,-2.1002,-2.0609,-2.0335,-2.0292,-2.0292,-2.0201,-2.0019,-1.9845,-1.9762,-1.9679,-1.9671,-1.9662,-1.9737,-1.982,-1.9662,-1.9387,-1.9196,-1.892,-1.8658,-1.8481,-1.8388,-1.8288,-1.8001,-1.7815,-1.7815,-1.7628,-1.734,-1.7153,-1.7066,-1.6683,-1.6494,-1.6116,-1.5825,-1.5635,-1.5629,-1.5216,-1.4893,-1.4626,-1.4333,-1.428,-1.419,-1.4112,-1.3829,-1.3534,-1.334,-1.305,-1.2953,-1.3055,-1.2953,-1.2953,-1.2856,-1.2861,-1.2764,-1.2759,-1.2565,-1.2365,-1.2273,-1.2175,-1.2175,-1.2073,-1.1878,-1.1683,-2.9312,-2.9117,-2.885,-2.8664,-2.8395,-2.8102,-2.7809,-2.7631,-2.7441,-2.7357,-2.7272,-2.7272,-2.7262,-2.7262,-2.6986,-2.6794,-2.6496,-2.5994,-2.5509,-2.503,-2.4637,-2.444,-2.4251,-2.4161,-2.4251,-2.4251,-2.4251,-2.4251,-2.4251,-2.4251,-2.4152,-2.4152,-2.3854,-2.3854,-2.3755,-2.3555,-2.3256,-2.3038,-2.3055,-2.2963,-2.2745,-2.2644,-2.2644,-2.2644,-2.2644,-2.2653,-2.2653,-2.2653,-2.2398,-2.2124,-2.1747,-2.1533,-2.1328,-2.0771,-2.0403,-2.0326,-2.0292,-2.0292,-2.0201,-2.0019,-1.9936,-1.9837,-1.9837,-1.9845,-1.9828,-2.011,-2.011,-1.9828,-1.9571,-1.9288,-1.9012,-1.8843,-1.8574,-1.8481,-1.8381,-1.8187,-1.8001,-1.7908,-1.7714,-1.7426,-1.7239,-1.7059,-1.6878,-1.6595,-1.6312,-1.5927,-1.5503,-1.5396,-1.4929,-1.4521,-1.4496,-1.4349,-1.4232,-1.4268,-1.4292,-1.401,-1.3732,-1.3539,-1.3443,-1.3346,-1.3346,-1.3249,-1.305,-1.2953,-1.2958,-1.2861,-1.2759,-1.2662,-1.2467,-1.2467,-1.237,-1.237,-1.2273,-1.2073,-1.1878,-2.9497,-2.9128,-2.9035,-2.885,-2.8571,-2.8384,-2.8196,-2.8008,-2.7641,-2.7452,-2.7357,-2.7272,-2.7272,-2.7262,-2.7167,-2.6986,-2.6794,-2.6592,-2.5907,-2.5333,-2.5039,-2.4637,-2.4449,-2.4251,-2.4242,-2.4341,-2.4341,-2.4538,-2.4637,-2.4538,-2.4637,-2.4538,-2.4242,-2.4053,-2.3954,-2.3872,-2.3673,-2.3364,-2.3373,-2.3273,-2.3155,-2.2946,-2.2846,-2.2846,-2.2644,-2.2653,-2.2653,-2.2653,-2.2329,-2.1996,-2.1602,-2.1422,-2.1251,-2.0626,-2.0343,-2.0292,-2.0292,-2.0292,-2.0292,-2.011,-1.9936,-1.9936,-1.9928,-1.992,-2.0002,-2.0201,-2.0292,-2.0019,-1.9754,-1.9479,-1.9196,-1.892,-1.8651,-1.8658,-1.8566,-1.828,-1.8094,-1.7994,-1.7807,-1.7426,-1.7239,-1.7145,-1.6965,-1.6777,-1.6407,-1.6015,-1.5577,-1.5052,-1.457,-1.4334,-1.4216,-1.4251,-1.4147,-1.4244,-1.4274,-1.41,-1.3925,-1.3829,-1.3732,-1.3636,-1.3636,-1.3448,-1.3346,-1.3152,-1.3055,-1.2958,-1.2856,-1.2764,-1.2662,-1.2565,-1.2565,-1.257,-1.2467,-1.2257,-1.2052,-2.9611,-2.922,-2.9128,-2.8943,-2.8746,-2.8488,-2.8405,-2.8301,-2.7914,-2.7641,-2.7347,-2.7357,-2.7357,-2.7357,-2.7357,-2.7156,-2.688,-2.6688,-2.612,-2.5528,-2.5128,-2.4833,-2.4538,-2.4341,-2.444,-2.4538,-2.4637,-2.4735,-2.4833,-2.4941,-2.4843,-2.4735,-2.4637,-2.444,-2.4359,-2.427,-2.408,-2.3764,-2.3564,-2.3573,-2.3347,-2.3256,-2.3147,-2.3147,-2.2946,-2.2946,-2.2793,-2.2707,-2.2339,-2.1985,-2.1543,-2.1294,-2.0934,-2.0643,-2.0352,-2.0292,-2.0292,-2.0292,-2.0201,-2.0201,-2.0019,-2.0027,-2.0019,-2.0102,-2.0192,-2.0292,-2.0292,-2.0292,-1.9936,-1.9662,-1.9379,-1.9104,-1.8827,-1.8835,-1.8743,-1.8465,-1.8187,-1.7994,-1.7714,-1.7426,-1.7333,-1.7232,-1.6973,-1.6671,-1.6106,-1.5771,-1.5206,-1.4707,-1.4264,-1.4056,-1.4111,-1.408,-1.4063,-1.4165,-1.4262,-1.419,-1.4112,-1.4112,-1.4016,-1.3919,-1.3829,-1.3732,-1.3642,-1.3545,-1.3346,-1.3055,-1.2953,-1.2856,-1.2759,-1.2759,-1.2743,-1.2614,-1.2469,-1.2346,-1.2174,-2.9817,-2.9485,-2.9231,-2.9057,-2.885,-2.8488,-2.8395,-2.8395,-2.8102,-2.782,-2.7631,-2.7631,-2.7547,-2.7536,-2.7536,-2.7347,-2.6965,-2.6678,-2.6207,-2.5625,-2.5323,-2.4932,-2.4726,-2.4726,-2.4932,-2.4627,-2.4824,-2.503,-2.5039,-2.5039,-2.5039,-2.5039,-2.4941,-2.4833,-2.4843,-2.4637,-2.4332,-2.4134,-2.3954,-2.3755,-2.3555,-2.3456,-2.3347,-2.3347,-2.3256,-2.3247,-2.2988,-2.2813,-2.239,-2.1831,-2.1526,-2.1119,-2.048,-2.0503,-2.0382,-2.0292,-2.0292,-2.0292,-2.0292,-2.0283,-2.0292,-2.0201,-2.0192,-2.0201,-2.0292,-2.0292,-2.0292,-2.0292,-2.0201,-2.0027,-1.9662,-1.9387,-1.9104,-1.892,-1.8827,-1.8558,-1.828,-1.7994,-1.7621,-1.7426,-1.7333,-1.7217,-1.7022,-1.6629,-1.592,-1.5402,-1.4922,-1.4463,-1.4166,-1.3932,-1.4006,-1.4087,-1.4096,-1.4135,-1.4238,-1.428,-1.4298,-1.4298,-1.4202,-1.4106,-1.4016,-1.4016,-1.3925,-1.3835,-1.3545,-1.3346,-1.3141,-1.2942,-1.2758,-1.2576,-1.2635,-1.2619,-1.2475,-1.2326,-1.222,-3.0762,-3.0258,-3.0165,-2.9788,-2.9242,-2.885,-2.8664,-2.8664,-2.8384,-2.8102,-2.7904,-2.7904,-2.7726,-2.7631,-2.7631,-2.7441,-2.7156,-2.7071,-2.6688,-2.611,-2.5907,-2.5703,-2.5509,-2.5314,-2.5421,-2.5509,-2.5509,-2.5509,-2.5713,-2.5528,-2.544,-2.544,-2.5342,-2.5235,-2.4941,-2.4637,-2.443,-2.4332,-2.4143,-2.4053,-2.3954,-2.3755,-2.3655,-2.3646,-2.3546,-2.3313,-2.3001,-2.2779,-2.2389,-2.1825,-2.1432,-2.1103,-2.0534,-2.0473,-2.0473,-2.0382,-2.0292,-2.0292,-2.0292,-2.0292,-2.0292,-2.0292,-2.0292,-2.0292,-2.0292,-2.0292,-2.0292,-2.0292,-2.0292,-2.0119,-1.9845,-1.9471,-1.9188,-1.9004,-1.8827,-1.8465,-1.8187,-1.7908,-1.7628,-1.7434,-1.7333,-1.7094,-1.6785,-1.6598,-1.5973,-1.554,-1.51,-1.4797,-1.4417,-1.4094,-1.3981,-1.4069,-1.416,-1.4206,-1.422,-1.4274,-1.4298,-1.4298,-1.4298,-1.4298,-1.4202,-1.4202,-1.4112,-1.3925,-1.3732,-1.3539,-1.321,-1.2849,-1.2541,-1.2366,-1.2366,-1.2463,-1.2501,-1.2393,-1.2186,-3.1212,-3.0694,-3.043,-3.0077,-2.9611,-2.9128,-2.885,-2.8757,-2.8571,-2.8384,-2.8186,-2.8102,-2.8102,-2.7925,-2.782,-2.7631,-2.7441,-2.7357,-2.7071,-2.6592,-2.6496,-2.6197,-2.5897,-2.5897,-2.5907,-2.61,-2.61,-2.61,-2.6197,-2.5917,-2.5732,-2.5635,-2.5732,-2.5538,-2.5137,-2.4941,-2.4627,-2.4538,-2.435,-2.4161,-2.4053,-2.4053,-2.3945,-2.38,-2.3601,-2.3314,-2.2956,-2.2661,-2.233,-2.1799,-2.1541,-2.1207,-2.0806,-2.0637,-2.0637,-2.0374,-2.0292,-2.0292,-2.0292,-2.0292,-2.0292,-2.0292,-2.0292,-2.0292,-2.0292,-2.0292,-2.0292,-2.0292,-2.0292,-2.011,-1.9928,-1.9463,-1.9371,-1.9288,-1.9004,-1.8643,-1.8288,-1.8009,-1.7815,-1.7527,-1.7282,-1.7021,-1.6675,-1.6472,-1.6092,-1.5782,-1.5383,-1.5116,-1.479,-1.4514,-1.4232,-1.4316,-1.4296,-1.4355,-1.4345,-1.4376,-1.4298,-1.4298,-1.4298,-1.4298,-1.4298,-1.4202,-1.4112,-1.4016,-1.3829,-1.3613,-1.3154,-1.2841,-1.2516,-1.221,-1.1978,-1.2129,-1.2361,-1.2269,-1.2081,-3.0996,-3.0823,-3.0205,-2.9931,-2.9794,-2.9405,-2.9046,-2.885,-2.8746,-2.8664,-2.8395,-2.8395,-2.8395,-2.8405,-2.8405,-2.8113,-2.7726,-2.7631,-2.7251,-2.6784,-2.6784,-2.6486,-2.639,-2.639,-2.6486,-2.639,-2.6294,-2.64,-2.6496,-2.6207,-2.6014,-2.583,-2.583,-2.5635,-2.544,-2.5137,-2.4941,-2.4843,-2.4548,-2.4449,-2.435,-2.4251,-2.4097,-2.3996,-2.3688,-2.3344,-2.3026,-2.2635,-2.2308,-2.1907,-2.1608,-2.1275,-2.1078,-2.0889,-2.0628,-2.0456,-2.0382,-2.0382,-2.0292,-2.0292,-2.0292,-2.0292,-2.0292,-2.0292,-2.0292,-2.0292,-2.0292,-2.0292,-2.0292,-2.011,-1.9928,-1.9837,-1.9654,-1.9471,-1.9188,-1.892,-1.8566,-1.8288,-1.8001,-1.7692,-1.736,-1.7062,-1.6652,-1.6315,-1.6221,-1.6082,-1.5729,-1.5562,-1.5273,-1.495,-1.4765,-1.4714,-1.4779,-1.4727,-1.4592,-1.449,-1.4394,-1.4298,-1.4298,-1.4298,-1.4298,-1.4298,-1.4208,-1.4112,-1.4022,-1.368,-1.3278,-1.2797,-1.2472,-1.2166,-1.1768,-1.1855,-1.2102,-1.2011,-1.1855,-3.0871,-3.0468,-3.0606,-3.0491,-3.0068,-2.9772,-2.9416,-2.9035,-2.885,-2.8757,-2.8653,-2.8664,-2.8581,-2.8395,-2.8405,-2.8196,-2.8008,-2.7809,-2.7631,-2.7347,-2.7167,-2.7061,-2.7061,-2.6965,-2.6965,-2.688,-2.6784,-2.6784,-2.6688,-2.6496,-2.6207,-2.6014,-2.5917,-2.5927,-2.5635,-2.5333,-2.5245,-2.5137,-2.4843,-2.4646,-2.4529,-2.4412,-2.4291,-2.3953,-2.3556,-2.3253,-2.2749,-2.2502,-2.2117,-2.1825,-2.1644,-2.1553,-2.1544,-2.1275,-2.1015,-2.0645,-2.0564,-2.0564,-2.0382,-2.0292,-2.0292,-2.0292,-2.0292,-2.0292,-2.0292,-2.0292,-2.0292,-2.0292,-2.0292,-2.0201,-2.011,-2.0019,-1.9837,-1.9654,-1.9463,-1.9104,-1.8743,-1.8365,-1.8071,-1.7572,-1.725,-1.6838,-1.6441,-1.63,-1.6159,-1.6233,-1.6148,-1.5906,-1.5666,-1.5335,-1.5192,-1.5136,-1.5031,-1.4962,-1.4783,-1.4592,-1.449,-1.4394,-1.4298,-1.4298,-1.4298,-1.4298,-1.4298,-1.4208,-1.4118,-1.3706,-1.3254,-1.2856,-1.2464,-1.1918,-1.1628,-1.1715,-1.1774,-1.1715,-1.1688,-3.0385,-2.9963,-3.0044,-2.9906,-2.9564,-2.9385,-2.9105,-2.8891,-2.8859,-2.885,-2.885,-2.8757,-2.8664,-2.8571,-2.8581,-2.8395,-2.8196,-2.8186,-2.7998,-2.7726,-2.7631,-2.7547,-2.7452,-2.7347,-2.7262,-2.7272,-2.7177,-2.7081,-2.6986,-2.6794,-2.6496,-2.6304,-2.6197,-2.6014,-2.582,-2.5625,-2.544,-2.5342,-2.5137,-2.4932,-2.4679,-2.4478,-2.4031,-2.3703,-2.3404,-2.2777,-2.2382,-2.2236,-2.1961,-2.1768,-2.1741,-2.1731,-2.1642,-2.1562,-2.1472,-2.1105,-2.0736,-2.0654,-2.0473,-2.0382,-2.0292,-2.0292,-2.0292,-2.0292,-2.0292,-2.0292,-2.0292,-2.0292,-2.0292,-2.0292,-2.0201,-2.011,-2.0019,-1.9928,-1.9654,-1.9379,-1.8912,-1.8542,-1.7964,-1.7452,-1.6965,-1.6448,-1.6226,-1.6189,-1.6192,-1.6305,-1.6309,-1.6124,-1.5896,-1.57,-1.5504,-1.553,-1.5393,-1.5267,-1.507,-1.4867,-1.4669,-1.4478,-1.4394,-1.4298,-1.4298,-1.4298,-1.4298,-1.4304,-1.4208,-1.3773,-1.3325,-1.2876,-1.2461,-1.2015,-1.1537,-1.1542,-1.1564,-1.1521,-1.151,-2.9619,-2.9332,-2.8884,-2.8804,-2.8712,-2.8619,-2.8457,-2.8491,-2.8857,-2.8903,-2.8674,-2.8659,-2.8637,-2.8604,-2.8691,-2.8675,-2.8477,-2.8384,-2.829,-2.7998,-2.782,-2.7631,-2.7536,-2.7347,-2.7357,-2.7272,-2.7272,-2.7177,-2.7177,-2.7081,-2.6784,-2.6496,-2.639,-2.6197,-2.6004,-2.5917,-2.5781,-2.545,-2.5266,-2.4965,-2.4598,-2.4225,-2.3753,-2.3463,-2.2916,-2.2309,-2.2181,-2.1988,-2.1731,-2.1731,-2.1731,-2.1731,-2.1651,-2.1651,-2.1651,-2.1463,-2.1006,-2.0736,-2.0555,-2.0473,-2.0292,-2.0292,-2.0292,-2.0292,-2.0292,-2.0292,-2.0292,-2.0292,-2.0292,-2.0292,-2.0292,-2.0201,-2.0201,-2.0019,-1.9837,-1.9563,-1.9204,-1.8632,-1.7766,-1.7191,-1.6632,-1.6226,-1.6167,-1.6141,-1.627,-1.6385,-1.6431,-1.6237,-1.6176,-1.5984,-1.5929,-1.5839,-1.5503,-1.5429,-1.5412,-1.5216,-1.4841,-1.4657,-1.4478,-1.4298,-1.4298,-1.4298,-1.4298,-1.4304,-1.4202,-1.3856,-1.3485,-1.3044,-1.2524,-1.2015,-1.1646,-1.1408,-1.1273,-1.1283,-1.1305,-2.8757,-2.8634,-2.8683,-2.8689,-2.8689,-2.8626,-2.8516,-2.8411,-2.8528,-2.8299,-2.8021,-2.8127,-2.8254,-2.8353,-2.8648,-2.8768,-2.8664,-2.8664,-2.8477,-2.829,-2.7998,-2.782,-2.7631,-2.7441,-2.7357,-2.7272,-2.7272,-2.7357,-2.7262,-2.7167,-2.7081,-2.6794,-2.6699,-2.6496,-2.6284,-2.6187,-2.6028,-2.5628,-2.5356,-2.5156,-2.4803,-2.4296,-2.3794,-2.3372,-2.2856,-2.2398,-2.2168,-2.1922,-2.1741,-2.1731,-2.1731,-2.1731,-2.1731,-2.1731,-2.1731,-2.1642,-2.1195,-2.0916,-2.0736,-2.0564,-2.0374,-2.0382,-2.0292,-2.0292,-2.0292,-2.0292,-2.0292,-2.0292,-2.0292,-2.0292,-2.0292,-2.0292,-2.0292,-2.011,-2.0019,-1.9754,-1.9471,-1.8549,-1.765,-1.7017,-1.6379,-1.6282,-1.6209,-1.6269,-1.6306,-1.6389,-1.6397,-1.6315,-1.6307,-1.6227,-1.6188,-1.6098,-1.5629,-1.5511,-1.5611,-1.5409,-1.5006,-1.4804,-1.4651,-1.4478,-1.4298,-1.4298,-1.4298,-1.4298,-1.4172,-1.382,-1.3549,-1.3136,-1.2615,-1.2071,-1.1723,-1.1473,-1.1354,-1.1359,-1.1359,-2.8128,-2.7998,-2.8015,-2.8046,-2.8057,-2.8046,-2.7973,-2.79,-2.7816,-2.755,-2.7484,-2.7866,-2.8247,-2.8298,-2.8659,-2.885,-2.885,-2.8757,-2.8664,-2.8477,-2.8186,-2.7904,-2.7726,-2.7536,-2.7452,-2.7452,-2.7452,-2.7452,-2.7441,-2.7251,-2.7167,-2.7081,-2.6986,-2.6764,-2.6542,-2.6506,-2.6168,-2.5842,-2.549,-2.5115,-2.4716,-2.4137,-2.3688,-2.3257,-2.2768,-2.24,-2.2227,-2.1919,-2.183,-2.1731,-2.1731,-2.1731,-2.1731,-2.1731,-2.1731,-2.1651,-2.1383,-2.1105,-2.0925,-2.0744,-2.0555,-2.0464,-2.0555,-2.0645,-2.0473,-2.0473,-2.0292,-2.0292,-2.0292,-2.0292,-2.0292,-2.0292,-2.0292,-2.0201,-2.0076,-1.9877,-1.9282,-1.8426,-1.7585,-1.6802,-1.639,-1.6308,-1.6299,-1.6291,-1.6417,-1.659,-1.6566,-1.6484,-1.6453,-1.6307,-1.6357,-1.6132,-1.5673,-1.5463,-1.5454,-1.5299,-1.5032,-1.4854,-1.4797,-1.4555,-1.4376,-1.4292,-1.4298,-1.4238,-1.407,-1.3874,-1.3496,-1.3158,-1.258,-1.1921,-1.1712,-1.1532,-1.144,-1.1435,-1.1354,-2.78,-2.7522,-2.7324,-2.7242,-2.7231,-2.7242,-2.7277,-2.7183,-2.7008,-2.6994,-2.716,-2.7887,-2.8374,-2.8635,-2.8669,-2.8713,-2.8746,-2.885,-2.8757,-2.8664,-2.8279,-2.8092,-2.7998,-2.7809,-2.7726,-2.7631,-2.7641,-2.7536,-2.7536,-2.7452,-2.7262,-2.7262,-2.7115,-2.6989,-2.694,-2.6557,-2.6115,-2.5747,-2.539,-2.4684,-2.4207,-2.389,-2.3493,-2.2999,-2.2659,-2.2372,-2.2274,-2.2185,-2.2097,-2.1919,-2.182,-2.1731,-2.1731,-2.1731,-2.1731,-2.1642,-2.1472,-2.1392,-2.1302,-2.1105,-2.0916,-2.0826,-2.0997,-2.0907,-2.0736,-2.0645,-2.0464,-2.0374,-2.0374,-2.0292,-2.0292,-2.0292,-2.0292,-2.024,-2.0107,-1.9833,-1.9123,-1.8321,-1.7526,-1.6769,-1.6622,-1.6531,-1.6484,-1.6476,-1.6558,-1.6648,-1.6648,-1.6566,-1.6448,-1.6346,-1.6222,-1.5913,-1.5496,-1.5374,-1.5404,-1.5134,-1.4819,-1.4993,-1.4841,-1.4564,-1.441,-1.4187,-1.4039,-1.4087,-1.3914,-1.3695,-1.3442,-1.3121,-1.2537,-1.2006,-1.1835,-1.1705,-1.1699,-1.1613,-1.144,-2.7926,-2.7522,-2.7301,-2.7231,-2.7231,-2.7231,-2.7231,-2.7149,-2.6985,-2.7107,-2.7352,-2.742,-2.7687,-2.791,-2.8127,-2.8298,-2.8626,-2.868,-2.8828,-2.8757,-2.8384,-2.829,-2.8196,-2.7998,-2.7904,-2.7904,-2.7726,-2.7641,-2.7494,-2.7421,-2.7336,-2.721,-2.6972,-2.6775,-2.661,-2.636,-2.6145,-2.5784,-2.5477,-2.4939,-2.4323,-2.3827,-2.3271,-2.3037,-2.3008,-2.2969,-2.2882,-2.2882,-2.2882,-2.2618,-2.2176,-2.182,-2.1731,-2.1731,-2.1731,-2.1642,-2.1562,-2.1482,-2.1383,-2.1186,-2.1096,-2.1006,-2.1087,-2.1087,-2.0997,-2.0997,-2.0817,-2.0736,-2.0645,-2.0374,-2.0374,-2.0292,-2.0283,-2.0056,-1.9979,-1.9507,-1.8966,-1.8275,-1.7604,-1.7219,-1.7028,-1.6958,-1.6894,-1.6886,-1.6812,-1.6812,-1.6738,-1.6648,-1.6566,-1.6389,-1.6133,-1.576,-1.5311,-1.5425,-1.5471,-1.4906,-1.4665,-1.48,-1.4849,-1.4521,-1.4192,-1.3835,-1.3725,-1.3827,-1.3767,-1.3543,-1.3284,-1.3069,-1.2827,-1.2418,-1.2117,-1.1963,-1.1871,-1.1785,-1.1613]},{"header":{"parameterUnit":"m.s-1","parameterCategory":1,"la1":31.0,"la2":29.5877,"lo1":-88.7671,"lo2":-86.6584,"dy":0.0162,"dx":0.0185,"nx":115,"ny":88,"refTime":"2024-06-29T06:00:00:Z","depth":0,"parameterNumber":3,"parameterNumberName":"V-component_of_WINDS"},"data":[0.0,0.0,0.0,0.0,0.0,0.0,0.0,0.0,0.0,0.0,0.0,0.0,0.0,0.0,0.0,0.0,0.0,0.0,0.0,0.0,0.0,0.0,0.0,0.0,0.0,0.0,0.0,0.0,0.0,0.0,0.0,0.0,0.0,0.0,0.0,0.0,0.0,0.0,0.0,0.0,0.0,0.0,0.0,0.0,0.0,0.0,0.0,0.0,0.0,0.0,0.0,0.0,0.0,0.0,0.0,0.0,0.0,0.0,0.0,0.0,0.0,0.0,0.0,0.0,0.0,0.0,0.0,0.0,0.0,0.0,0.0,0.0,0.0,0.0,0.0,0.0,0.0,0.0,0.0,0.0,0.0,0.0,0.0,0.0,0.0,0.0,0.0,0.0,0.0,0.0,0.0,0.0,0.0,0.0,0.0,0.0,0.0,0.0,0.0,0.0,0.0,0.0,0.0,0.0,0.0,0.0,0.0,0.0,0.0,0.0,0.0,0.0,0.0,0.0,0.0,0.0,0.0,0.0,0.0,0.0,0.0,0.0,0.0,0.0,0.0,0.0,0.0,0.0,0.0,0.0,0.0,0.0,0.0,0.0,0.0,0.0,0.0,0.0,0.0,0.0,0.0,0.0,0.0,0.0,0.0,0.0,0.0,0.0,0.0,0.0,0.0,0.0,0.0,0.0,0.0,0.0,0.0,0.0,0.0,0.0,0.0,0.0,0.0,0.0,0.0,0.0,0.0,0.0,0.0,0.0,0.0,0.0,0.0,0.0,0.0,0.0,0.0,0.0,0.0,0.0,0.0,0.0,0.0,0.0,0.0,0.0,0.0,0.0,0.0,0.0,0.0,0.0,0.0,0.0,0.0,0.0,0.0,0.0,0.0,0.0,0.0,0.0,0.0,0.0,0.0,0.0,0.0,0.0,0.0,0.0,0.0,0.0,0.0,0.0,0.0,0.0,0.0,0.0,0.0,0.0,0.0,0.0,0.0,0.0,0.0,0.0,0.0,0.0,0.0,0.0,0.0,0.0,0.0,0.0,0.0,0.0,0.0,0.0,0.0,0.0,0.0,0.0,0.0,0.0,0.0,0.0,0.0,0.0,0.0,0.0,0.0,0.0,0.0,0.0,0.0,0.0,0.0,0.0,0.0,0.0,0.0,0.0,0.0,0.0,0.0,0.0,0.0,0.0,0.0,0.0,0.0,0.0,0.0,0.0,0.0,0.0,0.0,0.0,0.0,0.0,0.0,0.0,0.0,0.0,0.0,0.0,0.0,0.0,0.0,0.0,0.0,0.0,0.0,0.0,0.0,0.0,0.0,0.0,0.0,0.0,0.0,0.0,0.0,0.0,0.0,0.0,0.0,0.0,0.0,0.0,0.0,0.0,0.0,0.0,0.0,0.0,0.0,0.0,0.0,0.0,0.0,0.0,0.0,0.0,0.0,0.0,0.0,0.0,0.0,0.0,0.0,0.0,0.0,0.0,0.0,0.0,0.0,0.0,0.0,0.0,0.0,0.0,0.0,0.0,0.0,0.0,0.0,0.0,0.0,0.0,0.0,0.0,0.0,0.0,0.0,0.0,0.0,0.0,0.0,0.0,0.0,0.0,0.0,0.0,0.0,0.0,0.0,0.0,0.0,0.0,0.0,0.0,0.0,0.0,0.0,0.0,0.0,0.0,0.0,0.0,0.0,0.0,0.0,0.0,0.0,0.0,0.0,0.0,0.0,0.0,0.0,0.0,0.0,0.0,0.0,0.0,0.0,0.0,0.0,0.0,0.0,0.0,0.0,0.0,0.0,0.0,0.0,0.0,0.0,0.0,0.0,0.0,0.0,0.0,0.0,0.0,0.0,0.0,0.0,0.0,0.0,0.0,0.0,0.0,0.0,0.0,0.0,0.0,0.0,0.0,0.0,0.0,0.0,0.0,0.0,0.0,0.0,0.0,0.0,0.0,0.0,0.0,0.0,0.0,0.0,0.0,0.0,0.0,0.0,0.0,0.0,0.0,0.0,0.0,0.0,0.0,0.0,0.0,0.0,0.0,0.0,0.0,0.0,0.0,0.0,0.0,0.0,0.0,0.0,0.0,0.0,0.0,0.0,0.0,0.0,0.0,0.0,0.0,0.0,0.0,0.0,0.0,0.0,0.0,0.0,0.0,0.0,0.0,0.0,0.0,0.0,0.0,0.0,0.0,0.0,0.0,0.0,0.0,0.0,0.0,0.0,0.0,0.0,0.0,0.0,0.0,0.0,0.0,0.0,0.0,0.0,0.0,0.0,0.0,0.0,0.0,0.0,0.0,0.0,0.0,0.0,0.0,0.0,0.0,0.0,0.0,0.0,0.0,0.0,0.0,0.0,0.0,0.0,0.0,0.0,0.0,0.0,0.0,0.0,0.0,0.0,0.0,0.0,0.0,0.0,0.0,0.0,0.0,0.0,0.0,0.0,0.0,0.0,0.0,0.0,0.0,0.0,0.0,0.0,0.0,0.0,0.0,0.0,0.0,0.0,0.0,0.0,0.0,0.0,0.0,0.0,0.0,0.0,0.0,0.0,0.0,0.0,0.0,0.0,0.0,0.0,0.0,0.0,0.0,0.0,0.0,0.0,0.0,0.0,0.0,0.0,0.0,0.0,0.0,0.0,0.0,0.0,0.0,0.0,0.0,0.0,0.0,0.0,0.0,0.0,0.0,0.0,0.0,0.0,0.0,0.0,0.0,0.0,0.0,0.0,0.0,0.0,0.0,0.0,0.0,0.0,0.0,0.0,0.0,0.0,0.0,0.0,0.0,0.0,0.0,0.0,0.0,0.0,0.0,0.0,0.0,0.0,0.0,0.0,0.0,0.0,0.0,0.0,0.0,0.0,0.0,0.0,0.0,0.0,0.0,0.0,0.0,0.0,0.0,0.0,0.0,0.0,0.0,0.0,0.0,0.0,0.0,0.0,0.0,0.0,0.0,0.0,0.0,0.0,0.0,0.0,0.0,0.0,0.0,0.0,0.0,0.0,0.0,0.0,0.0,0.0,0.0,0.0,0.0,0.0,0.0,0.0,0.0,0.0,0.0,0.0,0.0,0.0,0.0,0.0,0.0,0.0,0.0,0.0,0.0,0.0,0.0,0.0,0.0,0.0,0.0,0.0,0.0,0.0,0.0,0.0,0.0,0.0,0.0,0.0,0.0,0.0,0.0,0.0,0.0,0.0,0.0,0.0,0.0,0.0,0.0,0.0,0.0,0.0,0.0,0.0,0.0,0.0,0.0,0.0,0.0,0.0,0.0,0.0,0.0,0.0,0.0,0.0,0.0,0.0,0.0,0.0,0.0,0.0,0.0,0.0,0.0,0.0,0.0,0.0,0.0,0.0,0.0,0.0,0.0,0.0,0.0,0.0,0.0,0.0,0.0,0.0,0.0,0.0,0.0,0.0,0.0,0.0,0.0,0.0,0.0,0.0,0.0,0.0,0.0,0.0,0.0,0.0,0.0,0.0,0.0,0.0,0.0,0.0,0.0,0.0,0.0,0.0,0.0,0.0,0.0,0.0,0.0,0.0,0.0,0.0,0.0,0.0,0.0,0.0,0.0,0.0,0.0,0.0,0.0,0.0,0.0,0.0,0.0,0.0,0.0,0.0,0.0,0.0,0.0,0.0,0.0,0.0,0.0,0.0,0.0,0.0,0.0,0.0,0.0,0.0,0.0,0.0,0.0,0.0,0.0,0.0,0.0,0.0,0.0,0.0,0.0,0.0,0.0,0.0,0.0,0.0,0.0,0.0,0.0,0.0,0.0,0.0,0.0,0.0,0.0,0.0,0.0,0.0,0.0,0.0,0.0,0.0,0.0,0.0,0.0,0.0,0.0,0.0,0.0,0.0,0.0,0.0,0.0,0.0,0.0,0.0,0.0,0.0,0.0,0.0,0.0,0.0,0.0,0.0,0.0,0.0,0.0,0.0,0.0,0.0,0.0,0.0,0.0,0.0,0.0,0.0,0.0,0.0,0.0,0.0,0.0,0.0,0.0,0.0,0.0,0.0,0.0,0.0,0.0,0.0,0.0,0.0,0.0,0.0,0.0,0.0,0.0,0.0,0.0,0.0,0.0,0.0,0.0,0.0,0.0,0.0,0.0,0.0,0.0,0.0,0.0,0.0,0.0,0.0,0.0,0.0,0.0,0.0,0.0,0.0,0.0,0.0,0.0,0.0,0.0,0.0,0.0,0.0,0.0,0.0,0.0,0.0,0.0,0.0,0.0,0.0,0.0,0.0,0.0,0.0,0.0,0.0,0.0,0.0,0.0,-0.4512,0.0,0.0,0.0,0.0,0.0,0.0,0.0,0.0,0.0,0.0,0.0,0.0,0.0,0.0,0.0,0.0,0.0,0.0,0.0,0.0,0.0,0.0,0.0,0.0,0.0,0.0,0.0,0.0,0.0,0.0,0.0,0.0,0.0,0.0,0.0,0.0,0.0,0.0,0.0,0.0,0.0,0.0,0.0,0.0,0.0,0.0,0.0,0.0,0.0,0.0,0.0,0.0,0.0,0.0,0.0,0.0,0.0,0.0,0.0,0.0,0.0,0.0,0.0,0.0,0.0,0.0,0.0,0.0,0.0,0.0,0.0,0.0,0.0,0.0,0.0,0.0,0.0,0.0,0.0,0.0,0.0,0.0,0.0,0.0,0.0,0.0,0.0,0.0,0.0,0.0,0.0,0.0,0.0,0.0,0.0,0.0,0.0,0.0,0.0,0.0,0.0,0.0,0.0,0.0,0.0,0.0,0.0,0.0,0.0,0.0,-0.5891,-0.5464,-0.5399,-0.5113,-0.4629,0.0,0.0,0.0,0.0,0.0,0.0,0.0,0.0,0.0,0.0,0.0,0.0,0.0,0.0,0.0,0.0,0.0,0.0,0.0,0.0,0.0,0.0,0.0,0.0,0.0,0.0,0.0,0.0,0.0,0.0,0.0,0.0,0.0,0.0,0.0,0.0,0.0,0.0,0.0,0.0,0.0,0.0,0.0,0.0,0.0,0.0,0.0,0.0,0.0,0.0,0.0,0.0,0.0,0.0,0.0,0.0,0.0,0.0,0.0,0.0,0.0,0.0,0.0,0.0,0.0,0.0,0.0,0.0,0.0,0.0,0.0,0.0,0.0,0.0,0.0,0.0,0.0,0.0,0.0,0.0,0.0,0.0,0.0,0.0,0.0,0.0,0.0,0.0,0.0,0.0,0.0,0.0,0.0,0.0,0.0,0.0,0.0,0.0,0.0,0.0,0.0,0.0,0.0,0.0,0.0,0.0,0.0,0.0,0.0,0.0,0.0,0.0,-0.623,-0.5826,-0.5066,0.0,0.0,0.0,0.0,0.0,0.0,0.0,0.0,0.0,0.0,0.0,0.0,0.0,0.0,0.0,0.0,0.0,0.0,0.0,0.0,0.0,0.0,0.0,0.0,0.0,0.0,0.0,0.0,0.0,0.0,0.0,0.0,0.0,0.0,0.0,0.0,0.0,0.0,0.0,0.0,0.0,0.0,0.0,0.0,0.0,0.0,0.0,0.0,0.0,0.0,0.0,0.0,0.0,0.0,0.0,0.0,0.0,0.0,0.0,0.0,0.0,0.0,0.0,0.0,0.0,0.0,0.0,0.0,0.0,0.0,0.0,0.0,0.0,0.0,0.0,0.0,0.0,0.0,0.0,0.0,0.0,0.0,0.0,0.0,0.0,0.0,0.0,0.0,0.0,0.0,0.0,0.0,0.0,0.0,0.0,0.0,0.0,0.0,0.0,0.0,0.0,0.0,0.0,0.0,0.0,0.0,0.0,0.0,0.0,0.0,-0.7154,-0.7079,-0.7062,0.0,-0.6034,0.0,0.0,0.0,0.0,0.0,0.0,0.0,0.0,0.0,0.0,0.0,0.0,0.0,0.0,0.0,0.0,0.0,0.0,0.0,0.0,0.0,0.0,0.0,0.0,0.0,0.0,0.0,0.0,0.0,0.0,0.0,0.0,0.0,0.0,0.0,0.0,0.0,0.0,0.0,0.0,0.0,0.0,0.0,0.0,0.0,0.0,0.0,0.0,0.0,0.0,0.0,0.0,0.0,0.0,0.0,0.0,0.0,0.0,0.0,0.0,0.0,0.0,0.0,0.0,0.0,0.0,0.0,0.0,0.0,0.0,0.0,0.0,0.0,0.0,0.0,0.0,0.0,0.0,0.0,0.0,0.0,0.0,0.0,0.0,0.0,0.0,0.0,0.0,0.0,0.0,0.0,0.0,0.0,0.0,0.0,0.0,0.0,0.0,0.0,0.0,0.0,0.0,0.0,0.0,0.0,0.0,0.0,0.0,0.0,0.0,0.0,-0.7984,-0.7542,-0.7199,0.0,0.0,0.0,0.0,0.0,0.0,0.0,0.0,0.0,0.0,0.0,0.0,0.0,0.0,0.0,0.0,0.0,0.0,0.0,0.0,0.0,0.0,0.0,0.0,0.0,0.0,0.0,0.0,0.0,0.0,0.0,0.0,0.0,0.0,0.0,0.0,0.0,0.0,0.0,0.0,0.0,0.0,0.0,0.0,0.0,0.0,0.0,0.0,0.0,0.0,0.0,0.0,0.0,0.0,0.0,0.0,0.0,0.0,0.0,0.0,0.0,0.0,0.0,0.0,0.0,0.0,0.0,0.0,0.0,0.0,0.0,0.0,0.0,0.0,0.0,0.0,0.0,0.0,0.0,0.0,0.0,0.0,0.0,0.0,0.0,0.0,0.0,0.0,0.0,0.0,0.0,0.0,0.0,0.0,0.0,0.0,0.0,0.0,0.0,0.0,0.0,0.0,0.0,0.0,0.0,0.0,0.0,0.0,0.0,0.0,-0.9625,0.0,-0.8856,-0.813,-0.7758,-0.7828,0.0,0.0,0.0,0.0,0.0,0.0,0.0,0.0,0.0,0.0,0.0,0.0,0.0,0.0,0.0,0.0,0.0,0.0,0.0,0.0,0.0,0.0,0.0,0.0,0.0,0.0,0.0,0.0,0.0,0.0,0.0,0.0,0.0,0.0,0.0,0.0,0.0,0.0,0.0,0.0,0.0,0.0,0.0,0.0,0.0,0.0,0.0,0.0,0.0,0.0,0.0,0.0,0.0,0.0,0.0,0.0,0.0,0.0,0.0,0.0,0.0,0.0,0.0,0.0,0.0,0.0,0.0,0.0,0.0,0.0,0.0,0.0,0.0,0.0,0.0,0.0,0.0,0.0,0.0,0.0,0.0,0.0,0.0,0.0,0.0,0.0,0.0,0.0,0.0,0.0,0.0,0.0,0.0,0.0,0.0,0.0,0.0,0.0,0.0,0.0,0.0,0.0,0.0,0.0,0.0,0.0,0.0,0.0,0.0,-0.9665,-0.9717,-0.9727,-0.8966,-0.8571,0.0,0.0,0.0,0.0,0.0,0.0,0.0,0.0,0.0,0.0,0.0,0.0,0.0,0.0,0.0,0.0,0.0,0.0,0.0,0.0,0.0,0.0,0.0,0.0,0.0,0.0,0.0,0.0,0.0,0.0,0.0,0.0,0.0,0.0,0.0,0.0,0.0,0.0,0.0,0.0,0.0,0.0,0.0,0.0,0.0,0.0,0.0,0.0,0.0,0.0,0.0,0.0,0.0,0.0,0.0,0.0,0.0,0.0,0.0,0.0,0.0,0.0,0.0,0.0,0.0,0.0,0.0,0.0,0.0,0.0,0.0,0.0,0.0,0.0,0.0,0.0,0.0,0.0,0.0,0.0,0.0,0.0,0.0,0.0,0.0,0.0,0.0,0.0,0.0,0.0,0.0,0.0,0.0,0.0,0.0,0.0,0.0,0.0,0.0,0.0,0.0,0.0,0.0,0.0,0.0,0.0,0.0,0.0,0.0,-0.9605,-0.9677,-0.9987,-1.0502,-0.9779,-0.9426,0.0,0.0,0.0,0.0,0.0,0.0,0.0,0.0,0.0,0.0,0.0,0.0,0.0,0.0,0.0,0.0,0.0,0.0,0.0,0.0,0.0,0.0,0.0,0.0,0.0,0.0,0.0,0.0,0.0,0.0,0.0,0.0,0.0,0.0,0.0,0.0,0.0,0.0,0.0,0.0,0.0,0.0,0.0,0.0,0.0,0.0,0.0,0.0,0.0,0.0,0.0,0.0,0.0,0.0,0.0,0.0,0.0,0.0,0.0,0.0,0.0,0.0,0.0,0.0,0.0,0.0,0.0,0.0,0.0,0.0,0.0,0.0,0.0,0.0,0.0,0.0,0.0,0.0,0.0,0.0,0.0,0.0,0.0,0.0,0.0,0.0,0.0,0.0,0.0,0.0,0.0,0.0,0.0,0.0,0.0,0.0,0.0,0.0,0.0,0.0,0.0,0.0,0.0,0.0,0.0,0.0,0.0,0.0,0.0,-1.0425,0.0,-1.0806,0.0,-1.0658,-1.0276,0.0,0.0,0.0,0.0,0.0,0.0,0.0,0.0,0.0,0.0,0.0,0.0,0.0,0.0,0.0,0.0,0.0,0.0,0.0,0.0,0.0,0.0,0.0,0.0,0.0,0.0,0.0,0.0,0.0,0.0,0.0,0.0,0.0,0.0,0.0,0.0,0.0,0.0,0.0,0.0,0.0,0.0,0.0,0.0,0.0,0.0,0.0,0.0,0.0,0.0,0.0,0.0,0.0,0.0,0.0,0.0,0.0,0.0,0.0,0.0,0.0,0.0,0.0,0.0,0.0,0.0,0.0,0.0,0.0,0.0,0.0,0.0,0.0,0.0,0.0,0.0,0.0,0.0,0.0,0.0,0.0,0.0,0.0,0.0,0.0,0.0,0.0,0.0,0.0,0.0,0.0,0.0,0.0,0.0,0.0,0.0,0.0,0.0,0.0,0.0,0.0,0.0,0.0,0.0,0.0,0.0,0.0,0.0,-1.1342,-1.2161,-1.2225,-1.2289,-1.2329,-1.1591,-1.1157,0.0,0.0,0.0,0.0,0.0,0.0,0.0,0.0,0.0,0.0,0.0,0.0,0.0,0.0,0.0,0.0,0.0,0.0,0.0,0.0,0.0,0.0,0.0,0.0,0.0,0.0,0.0,0.0,0.0,0.0,0.0,0.0,0.0,0.0,0.0,0.0,0.0,0.0,0.0,0.0,0.0,0.0,0.0,0.0,0.0,0.0,0.0,0.0,0.0,0.0,0.0,0.0,0.0,0.0,0.0,0.0,0.0,0.0,0.0,0.0,0.0,0.0,0.0,0.0,0.0,0.0,0.0,0.0,0.0,0.0,0.0,0.0,0.0,0.0,0.0,0.0,0.0,0.0,0.0,0.0,0.0,0.0,0.0,0.0,0.0,0.0,0.0,0.0,0.0,0.0,0.0,0.0,0.0,0.0,0.0,0.0,0.0,0.0,0.0,0.0,0.0,0.0,0.0,0.0,0.0,0.0,0.0,0.0,0.0,-1.3797,-1.384,-1.4151,-1.4705,-1.3458,-1.2539,0.0,0.0,0.0,0.0,0.0,0.0,0.0,0.0,0.0,0.0,0.0,0.0,0.0,0.0,0.0,0.0,0.0,0.0,0.0,0.0,0.0,0.0,0.0,0.0,0.0,0.0,0.0,0.0,0.0,0.0,0.0,0.0,0.0,0.0,0.0,0.0,0.0,0.0,0.0,0.0,0.0,0.0,0.0,0.0,0.0,0.0,0.0,0.0,0.0,0.0,0.0,0.0,0.0,0.0,0.0,0.0,0.0,0.0,0.0,0.0,0.0,0.0,0.0,0.0,0.0,0.0,0.0,0.0,0.0,0.0,0.0,0.0,0.0,0.0,0.0,0.0,0.0,0.0,0.0,0.0,0.0,0.0,0.0,0.0,0.0,0.0,0.0,0.0,0.0,0.0,0.0,0.0,0.0,0.0,0.0,0.0,0.0,0.0,0.0,0.0,0.0,0.0,0.0,0.0,0.0,0.0,0.0,0.0,0.0,-1.6788,-1.6515,-1.667,-1.7219,-1.5681,-1.4354,-1.3311,0.0,0.0,0.0,0.0,0.0,0.0,0.0,0.0,0.0,0.0,0.0,0.0,0.0,0.0,0.0,0.0,0.0,0.0,0.0,0.0,0.0,0.0,0.0,0.0,0.0,0.0,0.0,0.0,0.0,0.0,0.0,0.0,0.0,0.0,0.0,0.0,0.0,0.0,0.0,0.0,0.0,0.0,0.0,0.0,0.0,0.0,0.0,0.0,0.0,0.0,0.0,0.0,0.0,0.0,0.0,0.0,0.0,0.0,0.0,0.0,0.0,0.0,0.0,0.0,0.0,0.0,0.0,0.0,0.0,0.0,0.0,0.0,0.0,0.0,0.0,0.0,0.0,0.0,0.0,0.0,0.0,0.0,0.0,0.0,0.0,0.0,0.0,0.0,0.0,0.0,0.0,0.0,0.0,0.0,0.0,0.0,0.0,0.0,0.0,0.0,0.0,0.0,0.0,0.0,0.0,0.0,0.0,0.0,-2.0794,-2.0147,-1.9804,-1.9744,-1.8172,-1.659,0.0,0.0,0.0,0.0,0.0,0.0,0.0,0.0,0.0,0.0,0.0,0.0,0.0,0.0,0.0,0.0,0.0,0.0,0.0,0.0,0.0,0.0,0.0,0.0,0.0,0.0,0.0,0.0,0.0,0.0,0.0,0.0,0.0,0.0,0.0,0.0,0.0,0.0,0.0,0.0,0.0,0.0,0.0,0.0,0.0,0.0,0.0,0.0,0.0,0.0,0.0,0.0,0.0,0.0,0.0,0.0,0.0,0.0,0.0,0.0,0.0,0.0,0.0,0.0,0.0,0.0,0.0,0.0,0.0,0.0,0.0,0.0,0.0,0.0,0.0,0.0,0.0,0.0,0.0,0.0,0.0,0.0,0.0,0.0,0.0,0.0,0.0,0.0,0.0,0.0,0.0,0.0,0.0,0.0,0.0,0.0,0.0,0.0,0.0,0.0,0.0,0.0,0.0,0.0,0.0,0.0,0.0,0.0,0.0,-2.41,-2.4635,-2.4321,-2.3134,-2.0975,-1.9112,0.0,0.0,0.0,0.0,0.0,0.0,0.0,0.0,0.0,0.0,0.0,0.0,0.0,0.0,0.0,0.0,0.0,0.0,0.0,0.0,0.0,0.0,0.0,0.0,0.0,0.0,0.0,0.0,0.0,0.0,0.0,0.0,0.0,0.0,0.0,0.0,0.0,0.0,0.0,0.0,0.0,0.0,0.0,0.0,0.0,0.0,0.0,0.0,0.0,0.0,0.0,0.0,0.0,0.0,0.0,0.0,0.0,0.0,0.0,0.0,0.0,0.0,0.0,0.0,0.0,0.0,0.0,0.0,0.0,0.0,0.0,0.0,0.0,0.0,0.0,0.0,0.0,0.0,0.0,0.0,0.0,0.0,0.0,0.0,0.0,0.0,0.0,0.0,0.0,0.0,0.0,0.0,0.0,0.0,0.0,0.0,0.0,0.0,0.0,0.0,0.0,0.0,0.0,0.0,0.0,0.0,0.0,0.0,-2.3897,-2.5999,-2.7574,-2.7911,-2.6986,-2.3946,-2.141,0.0,0.0,0.0,0.0,0.0,0.0,0.0,0.0,0.0,0.0,0.0,0.0,0.0,0.0,0.0,0.0,0.0,0.0,0.0,0.0,0.0,0.0,0.0,0.0,0.0,0.0,0.0,0.0,0.0,0.0,0.0,0.0,0.0,0.0,0.0,0.0,0.0,0.0,0.0,0.0,0.0,0.0,0.0,0.0,0.0,0.0,0.0,0.0,0.0,0.0,0.0,0.0,0.0,0.0,0.0,0.0,0.0,0.0,0.0,0.0,0.0,0.0,0.0,0.0,0.0,0.0,0.0,0.0,0.0,0.0,0.0,0.0,0.0,0.0,0.0,0.0,0.0,0.0,0.0,0.0,0.0,0.0,0.0,0.0,0.0,0.0,0.0,0.0,0.0,0.0,0.0,0.0,0.0,0.0,0.0,0.0,0.0,0.0,0.0,0.0,0.0,0.0,0.0,0.0,0.0,0.0,0.0,0.0,-2.5282,-2.7038,-2.9299,-3.0524,-3.0528,-2.6747,-2.357,0.0,0.0,0.0,0.0,0.0,0.0,0.0,0.0,0.0,0.0,0.0,0.0,0.0,0.0,0.0,0.0,0.0,0.0,0.0,0.0,0.0,0.0,0.0,0.0,0.0,0.0,0.0,0.0,0.0,0.0,0.0,0.0,0.0,0.0,0.0,0.0,0.0,0.0,0.0,0.0,0.0,0.0,0.0,0.0,0.0,0.0,0.0,0.0,0.0,0.0,0.0,0.0,0.0,0.0,0.0,0.0,0.0,0.0,0.0,0.0,0.0,0.0,0.0,0.0,0.0,0.0,0.0,0.0,0.0,0.0,0.0,0.0,0.0,0.0,0.0,0.0,0.0,0.0,0.0,0.0,0.0,0.0,0.0,0.0,0.0,0.0,0.0,0.0,0.0,0.0,0.0,0.0,0.0,0.0,0.0,0.0,0.0,0.0,0.0,0.0,0.0,0.0,0.0,0.0,0.0,0.0,0.0,0.0,-2.6449,-2.8688,-2.9956,-3.0891,-3.1504,-2.8159,-2.5243,0.0,0.0,0.0,0.0,0.0,0.0,0.0,0.0,0.0,0.0,0.0,0.0,0.0,0.0,0.0,0.0,0.0,0.0,0.0,0.0,0.0,0.0,0.0,0.0,0.0,0.0,0.0,0.0,0.0,0.0,0.0,0.0,0.0,0.0,0.0,0.0,0.0,0.0,0.0,0.0,0.0,0.0,0.0,0.0,0.0,0.0,0.0,0.0,-1.1202,0.0,0.0,0.0,0.0,0.0,0.0,0.0,0.0,0.0,0.0,0.0,0.0,0.0,0.0,0.0,0.0,0.0,0.0,0.0,0.0,0.0,0.0,0.0,0.0,0.0,0.0,0.0,0.0,0.0,0.0,0.0,0.0,0.0,0.0,0.0,0.0,0.0,0.0,0.0,0.0,0.0,0.0,0.0,0.0,0.0,0.0,0.0,0.0,0.0,0.0,0.0,0.0,0.0,0.0,0.0,0.0,0.0,0.0,0.0,-2.7415,-2.9845,-3.1114,-3.1912,-3.2265,-3.0296,-2.7901,0.0,0.0,0.0,0.0,0.0,0.0,0.0,0.0,0.0,0.0,0.0,0.0,0.0,0.0,0.0,0.0,0.0,0.0,0.0,0.0,0.0,0.0,0.0,0.0,0.0,0.0,0.0,0.0,0.0,0.0,0.0,0.0,0.0,0.0,0.0,0.0,0.0,0.0,0.0,0.0,0.0,0.0,0.0,0.0,0.0,0.0,0.0,0.0,0.0,0.0,0.0,0.0,0.0,0.0,0.0,0.0,0.0,0.0,0.0,0.0,0.0,0.0,0.0,0.0,0.0,0.0,0.0,0.0,0.0,0.0,0.0,0.0,0.0,0.0,0.0,0.0,0.0,0.0,0.0,0.0,0.0,0.0,0.0,0.0,0.0,0.0,0.0,0.0,0.0,0.0,0.0,0.0,0.0,0.0,0.0,0.0,0.0,0.0,0.0,0.0,0.0,0.0,0.0,0.0,0.0,0.0,0.0,-2.5913,-2.842,-3.108,-3.2381,-3.3125,-3.3343,-3.234,-3.0411,-2.7437,0.0,0.0,0.0,0.0,0.0,0.0,0.0,0.0,0.0,0.0,0.0,0.0,0.0,0.0,0.0,0.0,0.0,0.0,0.0,0.0,0.0,0.0,0.0,0.0,0.0,0.0,0.0,0.0,0.0,0.0,0.0,0.0,0.0,0.0,0.0,0.0,0.0,0.0,-1.0593,-1.1252,0.0,0.0,0.0,0.0,0.0,0.0,0.0,0.0,-1.3836,0.0,0.0,0.0,0.0,0.0,0.0,0.0,0.0,0.0,0.0,0.0,0.0,0.0,0.0,0.0,0.0,0.0,0.0,0.0,0.0,0.0,0.0,0.0,0.0,0.0,0.0,0.0,0.0,0.0,0.0,0.0,0.0,0.0,0.0,0.0,0.0,0.0,0.0,0.0,0.0,0.0,0.0,0.0,0.0,0.0,0.0,0.0,0.0,0.0,0.0,0.0,0.0,0.0,0.0,0.0,0.0,-2.5224,-2.7121,-2.99,-3.3566,-3.3287,-3.3729,-3.4965,-3.2934,-3.095,-2.8961,0.0,0.0,0.0,0.0,0.0,0.0,0.0,0.0,0.0,0.0,0.0,0.0,0.0,0.0,0.0,0.0,0.0,0.0,0.0,0.0,0.0,0.0,0.0,0.0,0.0,0.0,0.0,0.0,0.0,0.0,0.0,0.0,0.0,0.0,0.0,0.0,0.0,0.0,0.0,-1.2508,-1.2853,0.0,0.0,0.0,0.0,0.0,0.0,0.0,0.0,-1.5392,0.0,0.0,0.0,0.0,0.0,0.0,0.0,0.0,0.0,0.0,0.0,0.0,0.0,0.0,0.0,0.0,0.0,0.0,0.0,0.0,0.0,0.0,0.0,0.0,0.0,0.0,0.0,0.0,0.0,0.0,0.0,0.0,0.0,0.0,0.0,0.0,0.0,0.0,0.0,0.0,0.0,0.0,0.0,0.0,0.0,0.0,0.0,0.0,0.0,0.0,0.0,0.0,0.0,0.0,0.0,-2.6301,-2.8502,-3.1155,-3.4209,-3.4391,-3.4777,-3.5498,-3.3924,-3.1894,0.0,0.0,0.0,0.0,0.0,0.0,0.0,0.0,0.0,0.0,0.0,0.0,0.0,0.0,0.0,0.0,0.0,0.0,0.0,0.0,0.0,0.0,0.0,0.0,0.0,0.0,0.0,0.0,0.0,0.0,0.0,0.0,0.0,0.0,0.0,0.0,0.0,0.0,0.0,0.0,-1.4215,-1.4908,-1.5342,0.0,0.0,0.0,0.0,0.0,0.0,-1.7571,-1.7155,0.0,0.0,0.0,0.0,0.0,0.0,0.0,0.0,0.0,0.0,0.0,0.0,0.0,0.0,0.0,0.0,0.0,0.0,0.0,0.0,0.0,0.0,0.0,0.0,0.0,0.0,0.0,0.0,0.0,0.0,0.0,0.0,0.0,0.0,0.0,0.0,0.0,0.0,0.0,0.0,0.0,0.0,0.0,0.0,0.0,0.0,0.0,0.0,0.0,0.0,0.0,0.0,0.0,0.0,0.0,-2.7214,-2.9605,-3.2054,-3.4558,-3.5291,-3.5714,-3.5802,-3.4617,-3.2581,0.0,0.0,0.0,0.0,0.0,0.0,0.0,0.0,0.0,0.0,0.0,0.0,0.0,0.0,0.0,0.0,0.0,0.0,0.0,0.0,0.0,0.0,0.0,0.0,0.0,0.0,0.0,0.0,0.0,0.0,0.0,0.0,0.0,0.0,0.0,0.0,0.0,0.0,0.0,0.0,0.0,-1.7,-1.7318,-1.8716,0.0,0.0,0.0,0.0,-1.9842,-1.9386,0.0,0.0,0.0,0.0,0.0,0.0,0.0,0.0,0.0,0.0,0.0,0.0,0.0,0.0,0.0,0.0,0.0,0.0,0.0,0.0,0.0,0.0,0.0,0.0,0.0,0.0,0.0,0.0,0.0,0.0,0.0,0.0,0.0,0.0,0.0,0.0,0.0,0.0,0.0,0.0,0.0,0.0,0.0,0.0,0.0,0.0,0.0,0.0,0.0,0.0,0.0,0.0,0.0,0.0,0.0,0.0,-2.8072,-2.9964,-3.242,-3.5352,-3.5624,-3.6024,-3.6603,-3.4375,-3.2284,0.0,0.0,0.0,0.0,0.0,0.0,0.0,0.0,0.0,0.0,0.0,0.0,0.0,0.0,0.0,0.0,0.0,0.0,0.0,0.0,0.0,0.0,0.0,0.0,0.0,0.0,0.0,0.0,0.0,0.0,0.0,0.0,0.0,0.0,0.0,0.0,0.0,0.0,0.0,0.0,0.0,-1.8286,-1.9755,-2.0798,-2.1651,0.0,0.0,-2.2442,-2.2545,-2.2481,0.0,0.0,0.0,0.0,0.0,0.0,0.0,0.0,0.0,0.0,0.0,0.0,0.0,0.0,0.0,0.0,0.0,0.0,0.0,0.0,0.0,0.0,0.0,0.0,0.0,0.0,0.0,0.0,0.0,0.0,0.0,0.0,0.0,0.0,0.0,0.0,0.0,0.0,0.0,0.0,0.0,0.0,0.0,0.0,0.0,0.0,0.0,0.0,0.0,0.0,0.0,0.0,0.0,0.0,0.0,-2.6149,-2.8952,-3.1222,-3.3721,-3.6358,-3.6395,-3.669,-3.7459,-3.546,-3.3364,0.0,0.0,0.0,0.0,0.0,0.0,0.0,0.0,0.0,0.0,0.0,0.0,0.0,0.0,0.0,0.0,0.0,0.0,0.0,0.0,0.0,0.0,0.0,0.0,0.0,0.0,0.0,0.0,0.0,0.0,0.0,0.0,0.0,0.0,0.0,0.0,0.0,0.0,0.0,0.0,0.0,0.0,-2.1047,-2.2274,0.0,0.0,0.0,-2.2953,-2.2946,0.0,0.0,0.0,0.0,0.0,0.0,0.0,0.0,0.0,0.0,0.0,0.0,0.0,0.0,0.0,0.0,0.0,0.0,0.0,0.0,0.0,0.0,0.0,0.0,0.0,0.0,0.0,0.0,0.0,0.0,0.0,0.0,0.0,0.0,0.0,0.0,0.0,0.0,0.0,0.0,0.0,0.0,0.0,0.0,0.0,0.0,0.0,0.0,0.0,0.0,0.0,0.0,0.0,0.0,0.0,0.0,0.0,-2.9812,-3.2236,-3.4529,-3.6639,-3.6777,-3.7161,-3.791,-3.6274,0.0,0.0,0.0,0.0,0.0,0.0,0.0,0.0,0.0,0.0,0.0,0.0,0.0,0.0,0.0,0.0,0.0,0.0,0.0,0.0,0.0,0.0,0.0,0.0,0.0,0.0,0.0,-0.9372,0.0,0.0,0.0,0.0,0.0,0.0,0.0,0.0,0.0,0.0,0.0,0.0,0.0,0.0,-2.2165,-2.2604,-2.4089,-2.4902,0.0,0.0,-2.4157,-2.415,-2.4157,-2.4022,0.0,0.0,0.0,0.0,0.0,0.0,0.0,0.0,0.0,0.0,0.0,0.0,0.0,0.0,0.0,0.0,0.0,0.0,0.0,0.0,0.0,0.0,0.0,0.0,0.0,0.0,0.0,0.0,0.0,0.0,0.0,0.0,0.0,0.0,0.0,0.0,0.0,0.0,0.0,0.0,0.0,0.0,0.0,0.0,0.0,0.0,0.0,0.0,0.0,0.0,0.0,0.0,0.0,0.0,0.0,-3.0672,-3.2495,-3.418,-3.5651,-3.6398,-3.714,-3.7748,-3.6167,-3.4541,0.0,0.0,0.0,0.0,0.0,0.0,0.0,0.0,0.0,0.0,0.0,0.0,0.0,0.0,0.0,0.0,0.0,0.0,0.0,0.0,0.0,0.0,0.0,0.0,0.0,0.0,0.0,0.0,0.0,0.0,0.0,0.0,0.0,0.0,0.0,0.0,0.0,0.0,0.0,0.0,0.0,-2.3469,-2.502,-2.6683,-2.7699,0.0,0.0,-2.7557,-2.7538,-2.7566,-2.7036,-2.5474,0.0,0.0,0.0,0.0,0.0,0.0,0.0,0.0,0.0,0.0,0.0,0.0,0.0,0.0,0.0,0.0,0.0,0.0,0.0,0.0,0.0,0.0,0.0,0.0,0.0,0.0,0.0,0.0,0.0,0.0,0.0,0.0,0.0,0.0,0.0,0.0,0.0,0.0,0.0,0.0,0.0,0.0,0.0,0.0,0.0,0.0,0.0,0.0,0.0,0.0,0.0,0.0,0.0,-2.8724,-3.0742,-3.3443,-3.5352,-3.6379,-3.7028,-3.7692,-3.844,-3.7349,-3.5929,0.0,0.0,0.0,0.0,0.0,0.0,0.0,0.0,0.0,0.0,0.0,0.0,0.0,0.0,0.0,0.0,0.0,0.0,0.0,0.0,0.0,0.0,0.0,0.0,0.0,0.0,0.0,0.0,-1.3071,-1.3451,-1.3985,0.0,0.0,0.0,0.0,0.0,0.0,0.0,0.0,0.0,0.0,-2.5092,-2.6736,-2.7518,0.0,0.0,-2.8674,-2.8471,-2.797,-2.8317,-2.8259,-2.7133,-2.6111,0.0,0.0,0.0,0.0,0.0,0.0,0.0,0.0,0.0,0.0,0.0,0.0,0.0,0.0,0.0,0.0,0.0,0.0,0.0,0.0,0.0,0.0,0.0,0.0,0.0,0.0,0.0,0.0,0.0,0.0,0.0,0.0,0.0,0.0,0.0,0.0,0.0,0.0,0.0,0.0,0.0,0.0,0.0,0.0,0.0,0.0,0.0,0.0,0.0,0.0,0.0,0.0,-2.9797,-3.1697,-3.4279,-3.613,-3.7136,-3.7497,-3.8071,-3.8796,-3.8019,-3.6793,0.0,0.0,0.0,0.0,0.0,0.0,0.0,0.0,0.0,0.0,0.0,0.0,0.0,0.0,0.0,0.0,0.0,0.0,0.0,0.0,0.0,0.0,0.0,0.0,0.0,0.0,0.0,0.0,-1.4562,-1.5074,-1.5679,0.0,0.0,0.0,0.0,0.0,0.0,0.0,0.0,0.0,0.0,-2.7026,-2.8433,-2.9068,-2.9608,-3.0224,-3.0267,-2.9948,-2.9132,-2.9467,-2.9486,-2.8431,0.0,0.0,0.0,0.0,0.0,0.0,0.0,0.0,0.0,0.0,0.0,0.0,0.0,0.0,0.0,0.0,0.0,0.0,0.0,0.0,0.0,0.0,0.0,0.0,0.0,0.0,0.0,-1.4399,0.0,0.0,-1.4422,0.0,0.0,0.0,0.0,0.0,0.0,0.0,0.0,0.0,0.0,0.0,0.0,0.0,0.0,0.0,0.0,0.0,0.0,0.0,0.0,0.0,0.0,-3.1552,-3.3963,-3.4964,-3.6181,-3.7599,-3.7691,-3.8029,-3.8652,-3.79,-3.6754,-3.5156,0.0,0.0,0.0,0.0,0.0,0.0,0.0,0.0,0.0,0.0,0.0,0.0,0.0,0.0,0.0,0.0,0.0,0.0,0.0,0.0,0.0,0.0,0.0,0.0,0.0,0.0,-1.4993,-1.6441,-1.7378,0.0,0.0,0.0,0.0,0.0,0.0,0.0,0.0,0.0,0.0,-2.7428,-2.9348,-3.0225,-3.1737,-3.2667,-3.2756,-3.2781,-3.2513,-3.161,-3.1514,-3.0996,0.0,0.0,0.0,0.0,0.0,0.0,0.0,0.0,0.0,0.0,0.0,0.0,0.0,0.0,0.0,0.0,0.0,0.0,0.0,0.0,0.0,0.0,0.0,0.0,0.0,0.0,0.0,-1.6943,-1.9041,0.0,0.0,0.0,0.0,0.0,0.0,0.0,0.0,0.0,0.0,0.0,-2.7358,-2.7339,0.0,0.0,0.0,0.0,0.0,0.0,0.0,0.0,0.0,0.0,0.0,0.0,-3.2138,-3.4023,-3.5954,-3.7165,-3.7691,-3.8129,-3.8493,-3.8689,-3.8352,-3.7387,-3.5736,0.0,0.0,0.0,0.0,0.0,0.0,0.0,0.0,0.0,0.0,0.0,0.0,0.0,0.0,0.0,0.0,0.0,0.0,0.0,0.0,0.0,0.0,0.0,0.0,0.0,-1.5376,0.0,0.0,0.0,0.0,0.0,0.0,0.0,0.0,0.0,0.0,0.0,-2.5674,-2.6817,-2.8648,-3.0414,-3.1814,-3.2448,-3.3023,0.0,0.0,0.0,0.0,0.0,0.0,0.0,0.0,0.0,0.0,0.0,0.0,0.0,0.0,-2.6622,-2.4184,-2.3717,-2.3724,-2.3724,0.0,0.0,0.0,0.0,0.0,0.0,0.0,0.0,0.0,0.0,0.0,0.0,0.0,0.0,-2.1043,0.0,-2.2661,0.0,0.0,0.0,0.0,0.0,0.0,0.0,0.0,-2.9085,-3.0063,-3.1023,-3.0809,-3.1084,0.0,-3.1029,-2.9514,0.0,0.0,0.0,0.0,0.0,0.0,0.0,0.0,-3.3269,-3.5101,-3.6985,-3.807,-3.8364,-3.908,-3.9438,-3.9438,-3.8789,-3.7781,-3.6425,-3.4302,-3.2147,0.0,0.0,0.0,0.0,0.0,0.0,0.0,0.0,0.0,0.0,0.0,0.0,0.0,0.0,0.0,0.0,0.0,0.0,0.0,0.0,0.0,0.0,0.0,-1.7589,0.0,0.0,0.0,0.0,0.0,0.0,0.0,0.0,0.0,-2.4998,-2.6569,-2.8121,-2.8983,-3.0521,-3.1976,-3.3063,0.0,0.0,0.0,0.0,0.0,0.0,0.0,-3.3824,-3.3032,-3.2468,-3.2109,-3.2084,-3.1565,-3.1142,-3.1128,0.0,0.0,-2.7594,-2.6872,-2.6776,-2.7046,-2.6872,-2.6786,-2.7074,-2.7142,-2.7046,0.0,0.0,0.0,0.0,0.0,0.0,0.0,0.0,-2.4864,-2.5705,0.0,-2.6568,0.0,0.0,0.0,0.0,0.0,-2.8466,0.0,0.0,-3.2331,-3.3587,-3.4832,-3.4211,-3.4348,-3.5064,-3.4312,-3.3845,-3.3577,-3.0753,0.0,0.0,0.0,0.0,0.0,0.0,-3.4968,-3.7247,-3.8086,-3.8824,-3.9604,-4.037,-4.0755,-4.07,-3.9231,-3.8034,-3.718,-3.553,-3.3828,-3.2144,-2.9917,0.0,0.0,0.0,0.0,0.0,0.0,0.0,0.0,0.0,0.0,0.0,0.0,0.0,0.0,0.0,0.0,0.0,0.0,0.0,0.0,-2.0012,0.0,0.0,0.0,0.0,0.0,0.0,0.0,0.0,0.0,0.0,-2.7038,-2.8811,-3.059,-3.1398,0.0,0.0,0.0,0.0,-3.535,-3.5388,-3.5381,-3.5109,-3.4376,-3.4271,-3.4063,-3.3244,0.0,0.0,-3.2996,-3.2905,-3.2902,-3.2863,-3.294,-3.2359,-3.0874,-2.985,-2.9452,-3.0124,-2.9682,-2.9533,-3.0213,-3.029,-3.0147,-3.1355,0.0,0.0,0.0,0.0,-2.4581,-2.5876,-2.8851,-2.8576,-2.9536,-3.1338,-3.074,0.0,0.0,0.0,0.0,0.0,0.0,-3.3442,-3.388,-3.4733,-3.5666,-3.6595,-3.6328,-3.6887,-3.8081,-3.7317,-3.718,-3.7591,-3.6177,-3.44,-3.2338,0.0,0.0,0.0,0.0,-3.6838,-3.7949,-3.9276,-4.0071,-4.0221,-4.0491,-4.0582,-4.051,-4.0093,-3.9443,-3.8544,-3.75,-3.617,-3.4551,-3.2229,0.0,0.0,0.0,0.0,0.0,0.0,0.0,0.0,0.0,0.0,0.0,0.0,0.0,0.0,0.0,0.0,0.0,0.0,0.0,-2.0164,-2.1157,-2.2215,0.0,0.0,0.0,0.0,0.0,0.0,0.0,0.0,0.0,-3.1556,-3.1778,-3.2,0.0,0.0,-3.4165,-3.4786,-3.5608,-3.6353,-3.6927,-3.7001,0.0,-3.6782,-3.7261,-3.7373,-3.653,-3.6361,-3.631,-3.6296,-3.6262,-3.6192,-3.6172,-3.6212,-3.6023,-3.5505,-3.3394,-3.1891,-3.1929,-3.1856,-3.1801,-3.2039,-3.2135,-3.2134,-3.8465,-3.5278,-3.1617,-3.0659,-3.1482,-3.034,-3.1297,-3.3701,-3.3309,-3.3743,-3.4663,-3.4176,-3.3647,-3.3045,-3.2498,0.0,0.0,0.0,-3.5719,-3.6064,-3.6894,-3.7693,-3.847,-3.8474,-3.893,-3.9784,-3.9349,-3.9298,-3.9662,-3.9193,-3.8122,-3.6318,0.0,0.0,-3.6736,-3.764,-3.8419,-3.9104,-4.0273,-4.0926,-4.0943,-4.1233,-4.1251,-4.0815,-4.0816,-4.0418,-3.9515,-3.8976,-3.7936,-3.6412,-3.4655,-3.2678,0.0,0.0,0.0,0.0,0.0,0.0,0.0,0.0,0.0,0.0,0.0,-1.8596,0.0,0.0,0.0,0.0,-2.2551,-2.3174,-2.2773,-2.3558,0.0,0.0,0.0,0.0,0.0,0.0,0.0,-3.0165,-3.2022,-3.3635,-3.4548,-3.4566,-3.4489,-3.4558,-3.5032,-3.5581,-3.611,0.0,-3.7125,-3.7602,-3.7641,-3.7622,-3.7697,-3.8116,-3.8288,-3.7809,-3.7696,-3.766,-3.7641,-3.7585,-3.7528,-3.7528,-3.7528,-3.7509,-3.7528,-3.5892,-3.4628,-3.4658,-3.4439,-3.437,-3.4717,-3.4836,-3.4801,-4.4316,-4.3191,-3.6738,-3.5234,-3.7037,-3.6353,-3.6926,-3.8346,-3.8413,-3.7911,-3.7037,-3.7016,-3.6188,-3.4724,-3.4742,0.0,-3.4545,-3.6163,-3.7254,-3.7954,-3.8726,-3.9607,-4.0545,-4.0509,-4.0582,-4.0763,-4.0709,-4.0545,-4.0378,-4.0489,-4.0563,-4.0546,-3.9208,-3.8928,-3.9628,-3.953,-3.9822,-4.0437,-4.114,-4.1551,-4.1663,-4.2405,-4.2345,-4.1492,-4.1343,-4.0909,-4.0119,-3.9899,-3.9129,-3.7666,-3.6845,-3.545,-3.3344,0.0,0.0,0.0,0.0,0.0,0.0,0.0,0.0,0.0,0.0,0.0,0.0,0.0,0.0,0.0,-2.5206,0.0,-2.5968,-2.6786,0.0,0.0,0.0,-2.9246,-3.0093,-3.1655,-3.2654,-3.2597,0.0,0.0,-3.6366,-3.6948,-3.7461,-3.7718,-3.7662,-3.7623,-3.7753,-3.7718,-3.77,-3.7852,-3.7775,-3.7716,-3.7888,-3.7908,-3.7985,-3.8118,-3.7833,-3.7871,-3.7871,-3.7793,-3.7657,-3.7733,-3.7638,-3.7676,-3.7638,-3.766,-3.7738,-3.779,-3.712,-3.6791,-3.7456,-3.7621,-3.7401,-4.5981,-4.5726,-4.4147,-4.2573,-4.1074,-4.0933,-4.1076,-4.1268,-4.0735,-4.0282,-3.9953,-3.9287,-3.8768,-3.8429,-3.854,-3.8615,-3.8761,-3.9047,-3.9372,-3.9679,-3.9711,-4.0572,-4.2016,-4.1346,-4.1647,-4.2763,-4.2279,-4.1952,-4.1797,-4.1815,-4.1934,-4.2055,-4.1674,-4.1067,-4.0346,-4.0745,-4.0979,-4.107,-4.1872,-4.2199,-4.2123,-4.2436,-4.2436,-4.2101,-4.159,-4.087,-4.0006,-3.9379,-3.8611,-3.7612,-3.6238,-3.5827,-3.6399,-3.2522,0.0,0.0,0.0,0.0,0.0,0.0,0.0,0.0,0.0,-2.3369,-2.4267,0.0,-2.5254,0.0,-2.73,-2.8474,-2.8454,-2.9319,0.0,0.0,-3.1824,-3.2598,-3.3445,-3.4485,-3.4923,-3.4301,-3.5907,-3.7211,-3.7589,-3.7894,-3.8338,-3.8995,-3.8102,-3.7616,-3.8343,-3.8436,-3.8643,-3.9174,-3.9267,-3.9323,-3.9267,-3.9345,-3.9518,-4.0321,-3.9804,-3.9345,-3.9345,-3.9323,-3.9323,-3.9387,-3.9368,-3.9407,-3.939,-3.9508,-3.9548,-3.9563,-3.851,-3.7551,-3.7843,-3.7947,-3.7916,-4.7267,-4.7634,-4.7683,-4.6571,-4.4751,-4.4246,-4.3727,-4.3244,-4.2882,-4.2406,-4.1884,-4.1061,-4.0683,-4.066,-4.0719,-4.0801,-4.0864,-4.1138,-4.1321,-4.1484,-4.1718,-4.2359,-4.334,-4.281,-4.3102,-4.3946,-4.3215,-4.284,-4.2804,-4.2465,-4.2369,-4.2548,-4.2468,-4.2078,-4.1445,-4.1785,-4.1869,-4.1761,-4.2253,-4.2422,-4.2287,-4.2427,-4.2445,-4.2287,-4.194,-4.1332,-4.0467,-4.0039,-3.9289,-3.8183,-3.7291,-3.672,-3.6488,-3.3856,-3.184,0.0,0.0,0.0,0.0,0.0,0.0,0.0,0.0,0.0,0.0,0.0,-2.915,-2.9948,-3.0838,-3.1339,-3.1291,-3.1885,-3.2594,-3.344,-3.3997,-3.4682,-3.5544,-3.6419,-3.6791,-3.6252,-3.742,-3.8399,-3.8686,-3.8756,-3.8964,-3.9458,-3.8794,-3.8455,-3.8987,-3.9078,-3.9226,-3.9683,-3.9731,-3.975,-3.9796,-3.9823,-4.0019,-4.046,-4.0214,-3.9889,-3.9889,-3.9889,-3.9911,-3.9994,-4.0015,-4.0036,-4.0077,-4.0157,-4.0215,-4.0138,-3.9544,-3.9004,-3.8997,-3.9077,-3.9123,-4.8176,-4.8826,-4.8788,-4.8364,-4.7639,-4.6387,-4.5401,-4.4671,-4.4671,-4.4121,-4.3156,-4.2449,-4.2123,-4.2053,-4.2053,-4.2009,-4.2,-4.2622,-4.2984,-4.3102,-4.3761,-4.4177,-4.4403,-4.4314,-4.4404,-4.4565,-4.3801,-4.3472,-4.3583,-4.2888,-4.2596,-4.2624,-4.2489,-4.2507,-4.2606,-4.2606,-4.2548,-4.2448,-4.2578,-4.2578,-4.2448,-4.2458,-4.2445,-4.2328,-4.2221,-4.1846,-4.1185,-4.0953,-4.0238,-3.8953,-3.8649,-3.7631,-3.5632,-3.4804,-3.4159,0.0,-3.1544,0.0,0.0,0.0,0.0,0.0,0.0,0.0,0.0,-3.1555,-3.3149,-3.5157,-3.495,-3.4587,-3.4293,-3.4655,-3.5166,-3.5858,-3.6147,-3.657,-3.734,-3.8159,-3.8503,-3.8121,-3.9008,-3.9608,-3.9414,-3.9401,-3.9343,-3.9354,-3.9317,-3.9301,-3.9575,-3.9513,-3.9508,-3.9594,-3.9533,-3.9596,-3.9693,-3.975,-3.98,-3.98,-3.9845,-3.9889,-3.9889,-3.9911,-3.9933,-3.9996,-4.0036,-4.0057,-4.0117,-4.0196,-4.0215,-4.0215,-4.0157,-4.0191,-4.0226,-4.0255,-4.0476,-4.8449,-4.852,-4.8073,-4.7721,-4.741,-4.6623,-4.6177,-4.6,-4.5417,-4.4618,-4.374,-4.3581,-4.3511,-4.3511,-4.3511,-4.362,-4.3792,-4.3715,-4.3832,-4.4031,-4.399,-4.4349,-4.507,-4.4424,-4.4534,-4.5121,-4.4448,-4.4139,-4.4156,-4.4085,-4.3782,-4.3177,-4.3226,-4.3268,-4.3286,0.0,0.0,0.0,-4.3304,-4.3298,-4.3268,-4.2667,-4.2387,-4.2445,-4.1859,0.0,-4.131,-4.0125,-3.9318,-3.9013,-3.7792,0.0,0.0,0.0,0.0,0.0,0.0,0.0,0.0,0.0,0.0,0.0,-3.3502,-3.3161,-3.2855,-3.313,-3.4167,-3.623,-3.8255,-3.8729,-3.7022,-3.8229,-3.9175,-3.9342,-3.9946,-4.0457,-4.0747,-4.0887,-4.0551,-3.9287,-3.984,-4.002,-3.9397,-3.9183,-3.9202,-3.9322,-3.9202,-3.9183,-3.9309,-3.9432,-3.9483,-3.952,-3.9527,-3.962,-3.9712,-3.9698,-3.9727,-3.9731,-3.9781,-3.9804,-3.9826,-3.9911,-3.9996,-4.0057,-4.0137,-4.0176,-4.0234,-4.0272,-4.0252,-4.0289,-4.027,-4.027,-4.0252,-4.0342,-4.0411,-4.9116,0.0,-4.91,-4.8767,0.0,-4.8066,-4.7764,-4.7357,-4.6249,-4.5479,-4.5045,-4.5062,-4.5045,-4.5045,-4.5045,-4.511,-4.5205,-4.5093,-4.511,-4.5205,-4.5093,-4.5256,-4.5738,-4.5369,-4.5399,-4.5859,-4.5134,-4.4799,-4.4837,-4.4546,-4.4201,-4.3811,-4.3872,-4.3898,-4.3916,-4.4272,-4.4316,-4.4053,-4.4064,-4.3904,-4.3518,-4.3108,-4.2757,-4.2503,-4.2109,0.0,0.0,0.0,0.0,0.0,0.0,0.0,0.0,0.0,0.0,-3.6598,-3.6073,-3.5439,-3.4679,-3.4588,-3.4932,-3.5711,-3.6146,-3.5996,-3.5102,-3.4884,-3.5721,-3.7969,-3.9708,-4.0229,-3.9296,-4.0018,-4.0622,-4.0708,-4.1102,-4.1373,-4.1452,-4.1531,-4.1415,-4.1026,-4.096,-4.0903,-4.0754,-4.0447,-4.0317,-4.0355,-4.0374,-4.0188,-3.9844,-3.9517,-3.9399,-3.9495,-3.9508,-3.9564,-3.9607,-3.9631,-3.9656,-3.9665,-3.9712,-3.9758,-3.9804,-3.9867,-3.9933,-4.0036,-4.0077,-4.0118,-4.0215,-4.0234,-4.0271,-4.0234,-4.0252,-4.0252,-4.0215,-4.0307,-4.0377,-4.9858,-5.038,-5.0276,-4.9913,-4.9447,-4.9325,-4.8924,-4.8329,0.0,0.0,0.0,-4.6242,-4.6172,-4.6189,-4.6189,-4.6189,-4.6189,-4.6189,-4.6189,-4.6189,-4.6189,-4.6189,-4.6189,-4.6189,-4.627,-4.6315,-4.5734,-4.5482,-4.5505,-4.4968,-4.4615,-4.4491,-4.4473,-4.4501,-4.4554,-4.5244,-4.5389,-4.4965,-4.4831,-4.4458,-4.3861,-4.3558,-4.3197,-4.2701,-4.2535,-4.2221,-4.1674,-4.1477,-4.1117,-4.0525,-4.0344,-4.0111,-3.977,-3.9482,-3.9156,-3.8627,-3.7848,-3.7142,-3.649,-3.6309,-3.6508,-3.7142,-3.7812,-3.7812,-3.6942,-3.6599,-3.7307,-3.9514,-4.0437,-4.0962,-4.101,-4.1223,-4.1397,-4.1534,-4.1581,-4.1613,-4.1646,-4.1741,-4.2088,-4.2477,-4.2045,-4.1792,-4.2168,-4.173,-4.1489,-4.1512,-4.1431,-4.1386,-4.069,-3.9835,-3.9283,-3.9476,-3.9508,-3.9477,-3.9502,-3.9521,-3.957,-3.9588,-3.9618,-3.9689,-3.9758,-3.9804,-3.9848,-3.9994,-4.0015,-4.0058,-4.0176,-4.0196,-4.0196,-4.0196,-4.0196,-4.0177,-4.0196,-4.029,-4.0342,-5.031,-5.0363,-4.9719,-4.9388,-4.9304,-4.8479,-4.806,-4.7941,-4.73,-4.7003,-4.6864,-4.6287,-4.604,-4.6023,-4.6122,-4.6189,-4.6189,-4.6189,-4.6189,-4.6189,-4.6189,-4.6189,-4.6189,-4.6189,-4.6221,-4.6221,-4.6116,-4.6063,-4.6094,-4.6068,-4.5811,-4.5247,-4.5234,-4.5244,-4.5333,-4.6041,-4.6424,-4.63,-4.5645,-4.5255,-4.5131,-4.3837,-4.3241,-4.3411,-4.2726,-4.2414,-4.2582,-4.1821,-4.1369,-4.1243,-4.0556,-4.0143,-4.0293,-4.0147,-4.0076,-4.0112,-3.9478,-3.9007,-3.8862,-3.8246,-3.7902,-3.8011,-3.8119,-3.8119,-3.7993,-3.7935,-3.8407,-3.9642,-4.1433,-4.2341,-4.1958,-4.2536,-4.2953,-4.3094,-4.3164,-4.3198,-4.3159,-4.321,-4.331,-4.355,-4.2862,-4.2244,-4.2202,-4.1728,-4.1446,-4.1416,-4.1656,-4.1531,-4.1332,-4.017,-3.9402,-3.9483,-3.9476,-3.9451,-3.9645,-3.9469,-3.9589,-3.9502,-3.9596,-3.965,-3.9712,-3.9879,-4.0006,-4.0013,-4.0131,-4.0153,-4.0174,-4.0157,-4.0177,-4.0196,-4.0196,-4.0215,-4.0215,-4.029,-4.0306,-5.0223,-5.0114,-4.9694,-4.9612,-4.9764,-4.9288,-4.9076,-4.8951,-4.8335,-4.7871,-4.7596,-4.73,-4.6917,-4.6551,-4.6618,-4.6442,-4.6073,-4.6073,-4.614,-4.6189,-4.6189,-4.6189,-4.6189,-4.6189,-4.6189,-4.6189,-4.6189,-4.6189,-4.6239,-4.6253,-4.6143,-4.5826,-4.5839,-4.5822,-4.5857,-4.6174,-4.6447,-4.659,-4.6376,-4.5985,-4.5404,-4.4867,-4.4217,-4.3507,-4.3072,-4.2821,-4.2706,-4.2289,-4.2013,-4.1934,-4.1554,-4.1375,-4.1432,-4.1474,-4.1353,-4.1014,-4.0763,-4.0456,-4.0039,-3.9659,-3.9441,-3.9441,-3.9441,-3.9315,-3.9025,-3.85,-3.9097,-4.1198,-4.2486,-4.2941,-4.2686,-4.3121,-4.3429,-4.3479,-4.3479,-4.3532,-4.3566,-4.3582,-4.3634,-4.3682,-4.3354,-4.3059,-4.3019,-4.276,-4.2645,-4.2686,-4.2471,-4.2277,-4.2329,-4.1314,-4.057,-4.0753,-4.0726,-4.0699,-4.0699,-4.0699,-4.0558,-4.0192,-4.0139,-4.004,-3.9873,-4.0102,-4.0511,-4.0634,-4.0677,-4.0718,-4.0739,-4.0402,-4.0214,-4.0196,-4.0215,-4.0234,-4.0253,-4.0344,-4.0413,-4.9935,-4.9877,-4.9725,-4.9767,-5.0017,-5.0017,-4.9942,-4.9698,-4.9189,-4.8808,-4.8494,-4.8201,-4.7611,-4.7021,-4.6969,-4.6638,-4.6042,-4.5972,-4.609,-4.6172,-4.6189,-4.6189,-4.6189,-4.6189,-4.6189,-4.6189,-4.6189,-4.6189,-4.6189,-4.6189,-4.6189,-4.6189,-4.6189,-4.6189,-4.6189,-4.6189,-4.6301,-4.659,-4.686,-4.6585,-4.5797,-4.5739,-4.5036,-4.3779,-4.3433,-4.3072,-4.2584,-4.249,-4.2432,-4.2351,-4.231,-4.2269,-4.2246,-4.2409,-4.2243,-4.1728,-4.1665,-4.1324,-4.06,-4.051,-4.051,-4.051,-4.0492,-4.0347,-3.9986,-3.9226,-3.984,-4.2412,-4.305,-4.3214,-4.3178,-4.3286,-4.3411,-4.3497,-4.3479,-4.3479,-4.3479,-4.3548,-4.3582,-4.3582,-4.3582,-4.3597,-4.3719,-4.3771,-4.3712,-4.368,-4.3404,-4.3113,-4.3062,-4.253,-4.2225,-4.2201,-4.2025,-4.1689,-4.1725,-4.1679,-4.1428,-4.0942,-4.0974,-4.0841,-4.0546,-4.0835,-4.1165,-4.1287,-4.1253,-4.1298,-4.1421,-4.114,-4.086,-4.094,-4.1017,-4.096,-4.1017,-4.1089,-4.085,-4.9649,-4.9547,-4.953,-4.9411,-4.9367,-4.9488,-4.9488,-4.9333,-4.9504,-4.9588,-4.943,-4.8432,-4.7555,-4.688,-4.6951,-4.6673,-4.6042,-4.5972,-4.609,-4.6172,-4.6189,-4.6189,-4.6189,-4.6189,-4.6189,-4.6189,-4.6189,-4.6189,-4.6189,-4.6189,-4.6189,-4.6189,-4.6189,-4.6189,-4.6189,-4.6189,-4.6319,-4.659,-4.6888,-4.6944,-4.6809,-4.5932,-4.5133,-4.4492,-4.3588,-4.286,-4.2417,-4.2187,-4.2145,-4.2103,-4.1952,-4.1952,-4.2103,-4.2145,-4.2234,-4.2408,-4.1951,-4.1269,-4.0601,-4.051,-4.0582,-4.051,-4.0528,-4.0654,-4.0906,-4.0583,-4.0981,-4.2539,-4.3087,-4.3178,-4.3214,-4.3305,-4.3411,-4.3497,-4.3479,-4.3479,-4.3479,-4.3479,-4.3532,-4.3479,-4.3513,-4.3532,-4.3566,-4.36,-4.3701,-4.3897,-4.3799,-4.3701,-4.3745,-4.3652,-4.354,-4.3441,-4.266,-4.1853,-4.1827,-4.1667,-4.18,-4.1736,-4.1744,-4.171,-4.1632,-4.1378,-4.1316,-4.2059,-4.1688,-4.1601,-4.218,-4.2319,-4.2288,-4.2103,-4.2219,-4.245,-4.2546,-4.2432,-4.1989,-4.959,-4.9488,-4.935,-4.9229,-4.9124,-4.9229,-4.929,-4.9229,-4.9471,-4.9649,-4.9656,-4.9304,-4.8705,-4.7945,-4.7568,-4.7053,-4.6465,-4.5996,-4.5838,-4.5972,-4.5972,-4.6023,-4.609,-4.6073,-4.6122,-4.6189,-4.6189,-4.6189,-4.6189,-4.6189,-4.6189,-4.6189,-4.6189,-4.6189,-4.6189,-4.6189,-4.6319,-4.659,-4.6684,-4.6842,-4.6962,-4.6585,-4.5896,-4.5042,-4.4218,-4.3501,-4.2928,-4.2472,-4.2163,-4.2072,-4.1987,-4.1884,-4.1823,-4.1995,-4.2205,-4.2391,-4.242,-4.2247,-4.194,-4.1922,-4.1922,-4.1922,-4.1884,-4.1917,-4.206,-4.1879,-4.206,-4.2603,-4.2882,-4.305,-4.3142,-4.3269,-4.3429,-4.3497,-4.3479,-4.3479,-4.3479,-4.3479,-4.3479,-4.3479,-4.3479,-4.3479,-4.3532,-4.3652,-4.3786,-4.3929,-4.3961,-4.3992,-4.4005,-4.4005,-4.4005,-4.3931,-4.3373,-4.3095,-4.3044,-4.317,-4.3023,-4.2679,-4.2576,-4.2637,-4.219,-4.2033,-4.2092,-4.2905,-4.2389,-4.2325,-4.3149,-4.2857,-4.2675,-4.2791,-4.2773,-4.2794,-4.2773,-4.2775,-4.2431,-4.9471,-4.9367,-4.9168,-4.9107,-4.9001,-4.9124,-4.9107,-4.9168,-4.9367,-4.9488,-4.9666,-4.986,-4.9625,-4.9062,-4.8165,-4.7254,-4.6428,-4.5892,-4.5667,-4.577,-4.5787,-4.5821,-4.5922,-4.599,-4.6073,-4.614,-4.6172,-4.6189,-4.6189,-4.6189,-4.6189,-4.6189,-4.6189,-4.6189,-4.6189,-4.6189,-4.6301,-4.659,-4.659,-4.6684,-4.6842,-4.6888,-4.6422,-4.5464,-4.4862,-4.421,-4.3261,-4.2803,-4.2334,-4.1962,-4.1902,-4.1797,-4.1604,-4.1858,-4.2115,-4.2391,-4.2709,-4.29,-4.29,-4.29,-4.2862,-4.2862,-4.2783,-4.2724,-4.2685,-4.2588,-4.2548,-4.2588,-4.2727,-4.288,-4.3104,-4.3287,-4.3429,-4.3497,-4.3479,-4.3479,-4.3479,-4.3479,-4.3479,-4.3479,-4.3479,-4.3513,-4.3566,-4.3738,-4.3851,-4.3992,-4.4005,-4.4005,-4.4005,-4.4005,-4.4005,-4.4005,-4.4017,-4.3999,-4.4017,-4.3998,-4.3882,-4.3679,-4.3409,-4.3315,-4.2784,-4.2756,-4.2875,-4.3555,-4.3133,-4.3225,-4.3954,-4.3659,-4.3321,-4.334,-4.3361,-4.338,-4.3523,-4.342,-4.3463,-4.9107,-4.9063,-4.9001,-4.9001,-4.9001,-4.9001,-4.9001,-4.9001,-4.9185,-4.935,-4.9547,-4.9649,-4.9825,-4.9752,-4.8338,-4.6978,-4.5823,-4.5632,-4.5667,-4.577,-4.577,-4.577,-4.5821,-4.5922,-4.5972,-4.6023,-4.614,-4.6189,-4.6189,-4.6189,-4.6189,-4.6189,-4.6189,-4.6189,-4.6189,-4.6189,-4.6319,-4.6542,-4.659,-4.659,-4.6637,-4.6619,-4.6283,-4.5655,-4.5432,-4.4643,-4.3386,-4.3103,-4.2687,-4.1833,-4.1745,-4.1639,-4.1604,-4.1736,-4.2083,-4.2591,-4.2727,-4.286,-4.2862,-4.2842,-4.2783,-4.2802,-4.2645,-4.2503,-4.2544,-4.2427,-4.2387,-4.2503,-4.2627,-4.2765,-4.3067,-4.3269,-4.3429,-4.3497,-4.3479,-4.3479,-4.3479,-4.3479,-4.3479,-4.3479,-4.3479,-4.3566,-4.3719,-4.3804,-4.3851,-4.3961,-4.4005,-4.4005,-4.4005,-4.4005,-4.4005,-4.4023,-4.4085,-4.4153,-4.4055,-4.4097,-4.4109,-4.3972,-4.393,-4.4138,-4.4065,-4.3987,-4.4113,-4.4159,-4.3796,-4.3927,-4.4699,-4.4973,-4.4782,-4.4665,-4.4566,-4.4558,-4.4269,-4.4821,-4.481,-4.9124,-4.9018,-4.9018,-4.9018,-4.9018,-4.9018,-4.9018,-4.9001,-4.9152,-4.929,-4.9471,-4.9649,-4.9509,-4.92,-4.8183,-4.7424,-4.6874,-4.5942,-4.5476,-4.5581,-4.5615,-4.5718,-4.5821,-4.5922,-4.5972,-4.6023,-4.614,-4.6189,-4.6189,-4.6189,-4.6189,-4.6189,-4.6189,-4.6189,-4.6189,-4.6189,-4.627,-4.6319,-4.6368,-4.6368,-4.635,-4.635,-4.6257,-4.6118,-4.5611,-4.5099,-4.4607,-4.4129,-4.3465,-4.2538,-4.2458,-4.2185,-4.1674,-4.1754,-4.2097,-4.257,-4.2552,-4.2631,-4.2804,-4.2727,-4.2667,-4.2649,-4.2566,-4.2503,-4.2503,-4.2387,-4.2346,-4.2486,-4.2688,-4.288,-4.3049,-4.3196,-4.334,-4.3463,-4.3479,-4.3479,-4.3479,-4.3479,-4.3479,-4.3479,-4.3479,-4.3566,-4.3719,-4.3804,-4.3851,-4.3992,-4.4005,-4.4005,-4.4005,-4.4005,-4.4005,-4.4005,-4.4055,-4.4055,-4.4023,-4.4116,-4.4207,-4.4207,-4.4248,-4.4269,-4.4252,-4.3912,-4.3886,-4.4334,-4.4164,-4.4185,-4.4782,-4.4948,-4.501,-4.4967,-4.4919,-4.4962,-4.4919,-4.5103,-4.517,-4.9063,-4.9018,-4.9018,-4.9018,-4.9018,-4.9018,-4.9018,-4.9001,-4.9107,-4.9246,-4.9411,-4.959,-4.9416,-4.8948,-4.8109,-4.7717,-4.7527,-4.6148,-4.5441,-4.5441,-4.5476,-4.5719,-4.5996,-4.596,-4.6079,-4.6269,-4.6227,-4.6189,-4.6189,-4.6189,-4.6189,-4.6189,-4.6189,-4.6189,-4.6189,-4.6189,-4.6189,-4.6189,-4.6189,-4.6189,-4.6189,-4.6189,-4.6253,-4.6328,-4.5857,-4.5517,-4.5364,-4.4915,-4.4188,-4.3356,-4.3031,-4.2476,-4.1754,-4.2035,-4.231,-4.2422,-4.2409,-4.253,-4.2706,-4.2627,-4.2588,-4.2548,-4.2486,-4.2445,-4.2463,-4.2387,-4.2387,-4.2588,-4.2765,-4.2956,-4.3086,-4.3142,-4.3268,-4.3444,-4.3479,-4.3479,-4.3479,-4.3479,-4.3479,-4.3479,-4.3479,-4.3566,-4.3719,-4.3771,-4.3851,-4.3961,-4.3974,-4.4005,-4.4005,-4.4005,-4.4005,-4.4005,-4.4005,-4.4023,-4.4005,-4.4067,-4.4195,-4.4195,-4.4226,-4.4314,-4.4336,-4.3968,-4.3943,-4.4391,-4.4562,-4.4549,-4.463,-4.4789,-4.4821,-4.4796,-4.4821,-4.4846,-4.4919,-4.5103,-4.517,-4.8894,-4.9018,-4.8984,-4.9018,-4.9001,-4.9018,-4.9018,-4.9018,-4.9001,-4.9124,-4.9229,-4.9428,-4.9538,-4.9365,-4.8328,-4.7786,-4.7545,-4.6251,-4.5561,-4.5544,-4.5527,-4.5941,-4.6598,-4.6291,-4.636,-4.6917,-4.6475,-4.6224,-4.6189,-4.6189,-4.6189,-4.6189,-4.6189,-4.6189,-4.6189,-4.6189,-4.6189,-4.6189,-4.6189,-4.6189,-4.6189,-4.6189,-4.627,-4.635,-4.6217,-4.5884,-4.5394,-4.5323,-4.4871,-4.3986,-4.3303,-4.2476,-4.2053,-4.2529,-4.2731,-4.2197,-4.2341,-4.2486,-4.257,-4.2508,-4.2503,-4.2503,-4.2405,-4.2364,-4.2445,-4.2369,-4.245,-4.2706,-4.2842,-4.2956,-4.3086,-4.3142,-4.3286,-4.3463,-4.3497,-4.3479,-4.3479,-4.3479,-4.3479,-4.3479,-4.3479,-4.3513,-4.36,-4.3719,-4.3837,-4.3915,-4.3961,-4.4005,-4.4005,-4.4005,-4.4005,-4.4005,-4.4005,-4.4005,-4.4005,-4.4005,-4.4085,-4.4184,-4.4195,-4.4255,-4.4383,-4.4177,-4.424,-4.4576,-4.4636,-4.46,-4.4625,-4.4764,-4.4738,-4.4693,-4.4719,-4.477,-4.4919,-4.508,-4.517,-4.869,-4.8832,-4.8832,-4.8894,-4.9018,-4.9018,-4.9018,-4.9018,-4.9018,-4.9046,-4.9168,-4.929,-4.9471,-4.9443,-4.8736,-4.8363,-4.8338,-4.6958,-4.6234,-4.6234,-4.627,-4.6721,-4.7328,-4.7403,-4.7265,-4.7125,-4.6881,-4.6547,-4.6259,-4.6189,-4.6189,-4.6189,-4.6189,-4.6189,-4.6189,-4.6189,-4.6189,-4.6189,-4.6189,-4.6189,-4.6189,-4.6189,-4.6221,-4.627,-4.6221,-4.6081,-4.5954,-4.5919,-4.555,-4.4746,-4.4513,-4.4003,-4.3353,-4.3022,-4.2731,-4.2287,-4.2205,-4.2305,-4.2486,-4.2427,-4.2346,-4.2346,-4.2346,-4.2346,-4.2387,-4.245,-4.253,-4.2688,-4.2786,-4.2938,-4.3086,-4.3142,-4.3251,-4.3429,-4.3463,-4.3479,-4.3479,-4.3479,-4.3479,-4.3479,-4.3479,-4.3513,-4.36,-4.3719,-4.3837,-4.3883,-4.3961,-4.4005,-4.4005,-4.4005,-4.4005,-4.4005,-4.4005,-4.4023,-4.4055,-4.4085,-4.4165,-4.4226,-4.4255,-4.4285,-4.4401,-4.4468,-4.4542,-4.4597,-4.4632,-4.4659,-4.4685,-4.4659,-4.4632,-4.4659,-4.4712,-4.477,-4.4895,-4.5014,-4.5192,-4.8517,-4.8769,-4.8769,-4.8894,-4.9001,-4.9018,-4.9018,-4.9018,-4.9018,-4.9063,-4.9124,-4.9168,-4.935,-4.9436,-4.8877,-4.8667,-4.8592,-4.7269,-4.6751,-4.6906,-4.6736,-4.7136,-4.7744,-4.7715,-4.7561,-4.7195,-4.6863,-4.6529,-4.6207,-4.6189,-4.6189,-4.6189,-4.6189,-4.6189,-4.6189,-4.6189,-4.6189,-4.6189,-4.6189,-4.6189,-4.6189,-4.6189,-4.6189,-4.6189,-4.6189,-4.6189,-4.6221,-4.627,-4.6042,-4.5686,-4.5598,-4.5105,-4.4038,-4.3595,-4.3172,-4.2436,-4.2228,-4.2264,-4.2387,-4.2328,-4.2287,-4.2287,-4.2287,-4.2328,-4.2387,-4.2468,-4.253,-4.2688,-4.2824,-4.2938,-4.3031,-4.3142,-4.3251,-4.3286,-4.3411,-4.3481,-4.3463,-4.3463,-4.3497,-4.3497,-4.3479,-4.3513,-4.3582,-4.3719,-4.3837,-4.3865,-4.3942,-4.4005,-4.4005,-4.4005,-4.4005,-4.4005,-4.4005,-4.4055,-4.4085,-4.4165,-4.4244,-4.4285,-4.4325,-4.4373,-4.4458,-4.4487,-4.4542,-4.4542,-4.4597,-4.4578,-4.4578,-4.4551,-4.4524,-4.4605,-4.4685,-4.4821,-4.4943,-4.5148,-4.5275,-4.8261,-4.8707,-4.8786,-4.8832,-4.9018,-4.9018,-4.9018,-4.9018,-4.9018,-4.9018,-4.9063,-4.9107,-4.9239,-4.9231,-4.8751,-4.8615,-4.8437,-4.7303,-4.6975,-4.7269,-4.7027,-4.701,-4.7617,-4.7436,-4.7265,-4.7107,-4.6632,-4.633,-4.6189,-4.6189,-4.6189,-4.6189,-4.6189,-4.6189,-4.6189,-4.6189,-4.6189,-4.6189,-4.6189,-4.6189,-4.6189,-4.6189,-4.6189,-4.6189,-4.6189,-4.6189,-4.6239,-4.6301,-4.6398,-4.6429,-4.6406,-4.5806,-4.4519,-4.4377,-4.3782,-4.2448,-4.2287,-4.2287,-4.2287,-4.2287,-4.2287,-4.2287,-4.2328,-4.2346,-4.2445,-4.2387,-4.2468,-4.2745,-4.288,-4.29,-4.2938,-4.3068,-4.3178,-4.3214,-4.334,-4.3394,-4.3394,-4.3376,-4.3446,-4.3463,-4.3497,-4.3532,-4.3582,-4.3719,-4.3818,-4.3865,-4.3942,-4.3974,-4.4005,-4.4005,-4.4005,-4.4005,-4.4005,-4.4055,-4.4104,-4.4195,-4.4274,-4.4344,-4.4383,-4.4411,-4.4487,-4.4515,-4.4515,-4.4515,-4.4515,-4.4515,-4.4496,-4.4496,-4.4551,-4.4632,-4.4738,-4.4889,-4.5033,-4.517,-4.5275,-4.7919,-4.8373,-4.8356,-4.8627,-4.9001,-4.9018,-4.9018,-4.9018,-4.9018,-4.9001,-4.8984,-4.9063,-4.8829,-4.8456,-4.8446,-4.8277,-4.7739,-4.699,-4.701,-4.751,-4.6941,-4.7044,-4.7579,-4.7657,-4.7403,-4.7091,-4.6914,-4.665,-4.6224,-4.6189,-4.6189,-4.6189,-4.6189,-4.6189,-4.6189,-4.6189,-4.6189,-4.6189,-4.6189,-4.6189,-4.6189,-4.6189,-4.6189,-4.6189,-4.6189,-4.6189,-4.6221,-4.635,-4.6447,-4.6542,-4.659,-4.6448,-4.58,-4.4999,-4.3835,-4.2608,-4.2287,-4.2287,-4.2287,-4.2287,-4.2287,-4.2328,-4.2405,-4.2445,-4.2486,-4.2387,-4.249,-4.2727,-4.2862,-4.29,-4.2938,-4.3031,-4.3123,-4.3214,-4.3305,-4.3359,-4.3305,-4.3359,-4.3429,-4.3429,-4.3497,-4.3548,-4.3634,-4.3701,-4.3818,-4.3883,-4.3929,-4.3961,-4.3974,-4.4005,-4.4005,-4.4005,-4.4023,-4.4085,-4.4165,-4.4226,-4.4314,-4.4354,-4.4411,-4.4468,-4.4487,-4.4515,-4.4496,-4.4515,-4.4515,-4.4496,-4.4542,-4.4542,-4.4605,-4.4659,-4.477,-4.4895,-4.5033,-4.5148,-4.5192,-4.7721,-4.8163,-4.8163,-4.8483,-4.9018,-4.9018,-4.9018,-4.9018,-4.9001,-4.8815,-4.8629,-4.8562,-4.8182,-4.7682,-4.7766,-4.7752,-4.7442,-4.6814,-4.6766,-4.701,-4.6424,-4.6717,-4.743,-4.74,-4.7039,-4.7091,-4.6879,-4.6578,-4.6259,-4.6189,-4.6189,-4.6189,-4.6189,-4.6189,-4.6189,-4.6189,-4.6189,-4.6189,-4.6189,-4.6189,-4.6189,-4.6189,-4.6189,-4.6189,-4.6189,-4.6221,-4.6253,-4.635,-4.6477,-4.659,-4.6637,-4.6702,-4.6635,-4.5347,-4.3861,-4.2448,-4.2287,-4.2287,-4.2287,-4.2287,-4.2346,-4.2405,-4.2463,-4.2486,-4.2508,-4.245,-4.253,-4.2706,-4.2824,-4.2862,-4.2862,-4.3012,-4.3086,-4.3142,-4.3251,-4.3233,-4.3214,-4.3251,-4.3305,-4.3394,-4.3516,-4.36,-4.3686,-4.3786,-4.3851,-4.3915,-4.3929,-4.3961,-4.3942,-4.3974,-4.4005,-4.4005,-4.4023,-4.4085,-4.4165,-4.4226,-4.4314,-4.4383,-4.444,-4.4496,-4.4496,-4.4496,-4.4496,-4.4496,-4.4496,-4.4496,-4.4542,-4.457,-4.4605,-4.4685,-4.4796,-4.4895,-4.5033,-4.508,-4.5148,-4.7504,-4.8098,-4.8163,-4.8483,-4.8861,-4.8917,-4.8815,-4.8849,-4.8663,-4.8325,-4.7885,-4.78,-4.742,-4.6901,-4.6901,-4.7005,-4.7095,-4.6378,-4.6333,-4.6215,-4.5941,-4.6201,-4.7138,-4.65,-4.6395,-4.6776,-4.642,-4.6277,-4.6189,-4.6189,-4.6189,-4.6189,-4.6189,-4.6189,-4.6189,-4.6189,-4.6189,-4.6189,-4.6189,-4.6189,-4.6189,-4.6189,-4.6189,-4.6189,-4.6189,-4.627,-4.6301,-4.6381,-4.6447,-4.659,-4.6684,-4.6824,-4.6738,-4.5437,-4.3886,-4.262,-4.2205,-4.2264,-4.2246,-4.2246,-4.2328,-4.2387,-4.2463,-4.2544,-4.2588,-4.2591,-4.2631,-4.2609,-4.2729,-4.2786,-4.2842,-4.2992,-4.3067,-4.3086,-4.3104,-4.3123,-4.316,-4.3123,-4.3178,-4.3359,-4.3428,-4.36,-4.3719,-4.3851,-4.3915,-4.3929,-4.3961,-4.3961,-4.3942,-4.3974,-4.4005,-4.4005,-4.4023,-4.4055,-4.4165,-4.4255,-4.4344,-4.443,-4.444,-4.4496,-4.4496,-4.4496,-4.4496,-4.4496,-4.4496,-4.4496,-4.4496,-4.4551,-4.4632,-4.4712,-4.4815,-4.4914,-4.4986,-4.501,-4.5038,-4.7218,-4.7621,-4.7919,-4.8244,-4.8509,-4.8287,-4.8156,-4.8105,-4.7547,-4.7276,-4.7056,-4.7022,-4.6616,-4.5998,-4.6062,-4.5903,-4.5606,-4.548,-4.5541,-4.5595,-4.5561,-4.558,-4.6135,-4.584,-4.6011,-4.6217,-4.6245,-4.6189,-4.6189,-4.6189,-4.6189,-4.6189,-4.6189,-4.6189,-4.6189,-4.6189,-4.6189,-4.6189,-4.6189,-4.6189,-4.6189,-4.6189,-4.6189,-4.6189,-4.6189,-4.6239,-4.6221,-4.627,-4.6319,-4.6447,-4.6572,-4.6731,-4.6603,-4.532,-4.3687,-4.248,-4.2072,-4.2072,-4.2072,-4.2121,-4.2187,-4.2346,-4.2445,-4.2526,-4.2591,-4.2747,-4.2747,-4.2631,-4.253,-4.257,-4.2783,-4.288,-4.2956,-4.3049,-4.2994,-4.2994,-4.3086,-4.3123,-4.3141,-4.3196,-4.341,-4.3597,-4.3649,-4.3832,-4.3897,-4.3961,-4.3961,-4.3961,-4.3942,-4.3974,-4.4005,-4.4005,-4.4023,-4.4055,-4.4135,-4.4226,-4.4344,-4.4401,-4.4458,-4.4496,-4.4496,-4.4496,-4.4496,-4.4496,-4.4496,-4.4496,-4.4496,-4.4605,-4.4685,-4.4764,-4.4815,-4.4895,-4.4943,-4.4967,-4.4967,-4.6403,-4.6996,-4.6961,-4.7212,-4.7502,-4.7349,-4.7318,-4.7327,-4.6989,-4.6599,-4.6329,-4.6278,-4.5872,-4.5213,-4.5275,-4.5077,-4.4916,-4.5086,-4.5247,-4.5335,-4.5371,-4.5476,-4.5581,-4.5684,-4.5821,-4.5972,-4.6122,-4.6172,-4.6189,-4.6189,-4.6189,-4.6189,-4.6189,-4.6189,-4.6189,-4.6189,-4.6189,-4.6189,-4.6189,-4.6189,-4.6189,-4.6189,-4.6189,-4.6189,-4.6189,-4.6189,-4.6189,-4.6189,-4.6204,-4.6301,-4.6368,-4.656,-4.6482,-4.5184,-4.3571,-4.2176,-4.1962,-4.2005,-4.203,-4.2139,-4.2246,-4.2287,-4.2427,-4.2548,-4.2609,-4.2727,-4.2688,-4.257,-4.2468,-4.2468,-4.2763,-4.2822,-4.2918,-4.2956,-4.2956,-4.2938,-4.3012,-4.3012,-4.3031,-4.3142,-4.3375,-4.3548,-4.3682,-4.3814,-4.3897,-4.3961,-4.3992,-4.3992,-4.3961,-4.3942,-4.4005,-4.4005,-4.4005,-4.4055,-4.4085,-4.4195,-4.4314,-4.4401,-4.4458,-4.4468,-4.4496,-4.4496,-4.4496,-4.4496,-4.4496,-4.4496,-4.4496,-4.4632,-4.4712,-4.4738,-4.4815,-4.487,-4.4919,-4.4919,-4.4919,-4.5506,-4.6338,-4.592,-4.6012,-4.6378,-4.6337,-4.6422,-4.6558,-4.6422,-4.5933,-4.5561,-4.5476,-4.5081,-4.4705,-4.4621,-4.4626,-4.4831,-4.4978,-4.514,-4.5247,-4.53,-4.5423,-4.5528,-4.5632,-4.5736,-4.5905,-4.6073,-4.6122,-4.6172,-4.6172,-4.6189,-4.6189,-4.6189,-4.6189,-4.6189,-4.6189,-4.6189,-4.6189,-4.6189,-4.6189,-4.6189,-4.6189,-4.6189,-4.6189,-4.6189,-4.6189,-4.6189,-4.6189,-4.6189,-4.6189,-4.6189,-4.6319,-4.6076,-4.5046,-4.3464,-4.1762,-4.1815,-4.1858,-4.1945,-4.2055,-4.2187,-4.2246,-4.2409,-4.253,-4.253,-4.253,-4.253,-4.2486,-4.2405,-4.2468,-4.2745,-4.2783,-4.2842,-4.29,-4.29,-4.29,-4.29,-4.29,-4.2975,-4.3123,-4.3339,-4.3566,-4.3682,-4.3814,-4.3897,-4.3947,-4.3992,-4.3974,-4.3961,-4.3961,-4.3974,-4.4005,-4.4005,-4.4085,-4.4147,-4.4226,-4.4296,-4.4401,-4.4487,-4.4487,-4.4496,-4.4496,-4.4496,-4.4496,-4.4496,-4.4496,-4.4524,-4.4632,-4.4685,-4.4712,-4.4789,-4.487,-4.4895,-4.4895,-4.4895,-4.5033,-4.531,-4.5499,-4.5702,-4.5851,-4.568,-4.5547,-4.5354,-4.5017,-4.4589,-4.4464,-4.4356,-4.4454,-4.4327,-4.4367,-4.448,-4.4776,-4.4886,-4.5032,-4.5123,-4.5247,-4.53,-4.5423,-4.5528,-4.5632,-4.5718,-4.5871,-4.604,-4.609,-4.6122,-4.6189,-4.6189,-4.6189,-4.6189,-4.6189,-4.6189,-4.6189,-4.6189,-4.6189,-4.6189,-4.6189,-4.6189,-4.6189,-4.6189,-4.6189,-4.6189,-4.6189,-4.6189,-4.6189,-4.6189,-4.6189,-4.6221,-4.5954,-4.4859,-4.3265,-4.2053,-4.1648,-4.171,-4.1754,-4.1823,-4.1909,-4.1977,-4.2145,-4.2269,-4.2328,-4.2369,-4.2369,-4.2387,-4.2405,-4.2486,-4.2609,-4.2706,-4.2804,-4.2862,-4.29,-4.29,-4.29,-4.29,-4.2882,-4.3013,-4.3268,-4.3532,-4.3667,-4.3781,-4.3865,-4.3915,-4.3929,-4.3961,-4.3942,-4.3942,-4.3974,-4.4005,-4.4005,-4.4116,-4.4237,-4.4285,-4.4344,-4.443,-4.4487,-4.4487,-4.4496,-4.4496,-4.4496,-4.4496,-4.4496,-4.4496,-4.4551,-4.4632,-4.4685,-4.4712,-4.4796,-4.4895,-4.4895,-4.4895,-4.4895,-4.409,-4.4494,-4.445,-4.4533,-4.4666,-4.4623,-4.4633,-4.4583,-4.4306,-4.4155,-4.4097,-4.4097,-4.4155,-4.4196,-4.431,-4.448,-4.4665,-4.4776,-4.4923,-4.5069,-4.5194,-4.5247,-4.5371,-4.5476,-4.5476,-4.5528,-4.5684,-4.5889,-4.599,-4.6073,-4.614,-4.6189,-4.6189,-4.6189,-4.6189,-4.6189,-4.6189,-4.6189,-4.6189,-4.6189,-4.6189,-4.6189,-4.6189,-4.6189,-4.6189,-4.6189,-4.6189,-4.6189,-4.6189,-4.6189,-4.6189,-4.6189,-4.58,-4.4729,-4.3202,-4.1938,-4.1604,-4.1604,-4.1648,-4.1736,-4.1909,-4.197,-4.2079,-4.2205,-4.2287,-4.2287,-4.2287,-4.2287,-4.2246,-4.2346,-4.2526,-4.2627,-4.2727,-4.2842,-4.2862,-4.29,-4.29,-4.29,-4.29,-4.2938,-4.3178,-4.341,-4.3566,-4.3701,-4.3832,-4.3897,-4.3915,-4.3929,-4.3942,-4.3942,-4.3974,-4.4005,-4.4005,-4.4085,-4.4207,-4.4285,-4.4344,-4.443,-4.4487,-4.4515,-4.4496,-4.4496,-4.4496,-4.4496,-4.4496,-4.4496,-4.4551,-4.4605,-4.4659,-4.4712,-4.4796,-4.487,-4.4895,-4.4895,-4.4895,-4.3179,-4.3777,-4.3436,-4.3388,-4.3568,-4.3763,-4.3898,-4.3981,-4.4056,-4.4056,-4.3981,-4.3998,-4.3981,-4.4097,-4.4212,-4.4367,-4.457,-4.4665,-4.4831,-4.4978,-4.5086,-4.5247,-4.5371,-4.5441,-4.5423,-4.5423,-4.5528,-4.5667,-4.5889,-4.5922,-4.6023,-4.6073,-4.6122,-4.6189,-4.614,-4.6172,-4.6172,-4.6189,-4.6189,-4.6189,-4.6189,-4.6189,-4.6189,-4.6189,-4.6189,-4.6189,-4.6189,-4.6189,-4.6189,-4.6119,-4.6032,-4.5979,-4.5856,-4.4606,-4.3061,-4.1885,-4.1622,-4.1604,-4.1648,-4.1762,-4.1866,-4.1945,-4.2121,-4.2205,-4.2205,-4.2222,-4.2222,-4.2205,-4.2187,-4.2246,-4.2445,-4.2566,-4.2667,-4.2783,-4.2842,-4.29,-4.2882,-4.2882,-4.29,-4.2975,-4.3142,-4.3286,-4.3426,-4.3634,-4.3818,-4.3851,-4.3851,-4.3869,-4.3883,-4.3897,-4.391,-4.3974,-4.4023,-4.4085,-4.4147,-4.4255,-4.4314,-4.4401,-4.4487,-4.4496,-4.4496,-4.4496,-4.4496,-4.4496,-4.4496,-4.4496,-4.457,-4.4624,-4.4659,-4.4738,-4.484,-4.4846,-4.4846,-4.4846,-4.4846,-4.2682,-4.303,-4.301,-4.3146,-4.3449,-4.3568,-4.3628,-4.3687,-4.3822,-4.3839,-4.3687,-4.3687,-4.3747,-4.3939,-4.4196,-4.4293,-4.4367,-4.4497,-4.472,-4.4978,-4.5032,-4.5194,-4.5371,-4.5441,-4.5441,-4.5441,-4.5441,-4.5528,-4.5667,-4.577,-4.5821,-4.5871,-4.5972,-4.6023,-4.604,-4.6122,-4.6189,-4.6189,-4.6189,-4.6189,-4.6189,-4.6189,-4.6189,-4.6189,-4.6189,-4.6189,-4.6189,-4.6189,-4.6189,-4.6119,-4.5589,-4.5607,-4.573,-4.4097,-4.271,-4.1885,-4.1604,-4.1604,-4.1604,-4.1736,-4.1823,-4.1884,-4.2019,-4.2055,-4.2055,-4.2055,-4.2072,-4.2048,-4.2037,-4.2205,-4.2405,-4.2548,-4.2649,-4.2745,-4.2783,-4.2842,-4.2862,-4.2862,-4.2842,-4.2956,-4.3087,-4.3178,-4.3321,-4.3566,-4.3804,-4.3804,-4.3804,-4.3804,-4.3837,-4.3832,-4.3929,-4.3974,-4.4005,-4.4055,-4.4165,-4.4255,-4.4314,-4.4401,-4.4458,-4.4496,-4.4496,-4.4496,-4.4496,-4.4496,-4.4496,-4.4496,-4.4524,-4.4578,-4.4659,-4.4738,-4.4789,-4.4815,-4.4796,-4.4796,-4.4821,-4.2381,-4.265,-4.2837,-4.2961,-4.3146,-4.3388,-4.3509,-4.3509,-4.3628,-4.3687,-4.3628,-4.3628,-4.3687,-4.3881,-4.4039,-4.4138,-4.4293,-4.4367,-4.4665,-4.4923,-4.5049,-4.514,-4.5371,-4.5441,-4.5441,-4.5441,-4.5441,-4.5423,-4.5528,-4.5615,-4.5718,-4.5787,-4.5889,-4.5871,-4.5939,-4.604,-4.6087,-4.6119,-4.6154,-4.6189,-4.6189,-4.6189,-4.6189,-4.6189,-4.6189,-4.6189,-4.6189,-4.6189,-4.6189,-4.6049,-4.5519,-4.4975,-4.4676,-4.3588,-4.2464,-4.171,-4.1604,-4.1604,-4.1604,-4.1736,-4.1797,-4.1902,-4.197,-4.203,-4.2005,-4.1945,-4.1927,-4.2005,-4.2055,-4.2181,-4.2346,-4.2486,-4.2566,-4.2606,-4.2685,-4.2783,-4.2804,-4.2822,-4.286,-4.2936,-4.2994,-4.3123,-4.3214,-4.3428,-4.3618,-4.3667,-4.3686,-4.3686,-4.3753,-4.38,-4.3878,-4.3974,-4.4005,-4.4036,-4.4165,-4.4274,-4.4314,-4.4383,-4.444,-4.4468,-4.4496,-4.4496,-4.4468,-4.4468,-4.4515,-4.4496,-4.4496,-4.4551,-4.4632,-4.4685,-4.4712,-4.4738,-4.4745,-4.4796,-4.4796,-4.2254,-4.2445,-4.2713,-4.2837,-4.2916,-4.3207,-4.3372,-4.3432,-4.3552,-4.3628,-4.3645,-4.3628,-4.3704,-4.3839,-4.3881,-4.4056,-4.4253,-4.4293,-4.4648,-4.4869,-4.5086,-4.5211,-4.5371,-4.5441,-4.5441,-4.5441,-4.5441,-4.5423,-4.5423,-4.5528,-4.5632,-4.5736,-4.5736,-4.5718,-4.5787,-4.5889,-4.5955,-4.6003,-4.6105,-4.614,-4.6172,-4.6189,-4.6189,-4.6189,-4.6189,-4.6189,-4.6189,-4.6189,-4.6189,-4.5765,-4.5133,-4.4483,-4.3992,-4.3061,-4.2254,-4.1692,-4.1604,-4.1604,-4.1648,-4.1736,-4.1841,-4.1902,-4.1962,-4.1945,-4.1927,-4.1849,-4.1788,-4.1927,-4.2055,-4.2121,-4.2246,-4.2405,-4.2503,-4.2544,-4.2566,-4.2667,-4.2745,-4.2745,-4.2822,-4.2918,-4.2994,-4.3049,-4.3178,-4.3251,-4.3393,-4.3479,-4.3548,-4.3529,-4.3572,-4.356,-4.3712,-4.3788,-4.3949,-4.3999,-4.4085,-4.4195,-4.4266,-4.4325,-4.4411,-4.444,-4.443,-4.444,-4.444,-4.4468,-4.4487,-4.4515,-4.4496,-4.4551,-4.4587,-4.4632,-4.4659,-4.4659,-4.4667,-4.4719,-4.477,-4.2254,-4.2365,-4.2571,-4.2696,-4.2899,-4.3068,-4.3235,-4.3372,-4.3492,-4.3568,-4.3645,-4.3645,-4.3628,-4.3628,-4.3822,-4.3939,-4.4097,-4.435,-4.4631,-4.4923,-4.514,-4.5247,-4.5371,-4.5441,-4.5371,-4.5371,-4.5371,-4.5371,-4.5371,-4.5371,-4.5423,-4.5423,-4.5581,-4.5581,-4.5632,-4.5736,-4.5889,-4.5955,-4.599,-4.6058,-4.6122,-4.6172,-4.6172,-4.6172,-4.6172,-4.6189,-4.6189,-4.6189,-4.5923,-4.5361,-4.4589,-4.415,-4.3728,-4.2587,-4.1832,-4.1674,-4.1604,-4.1604,-4.1648,-4.1736,-4.1797,-4.1823,-4.1823,-4.1841,-4.1805,-4.1692,-4.1692,-4.1805,-4.197,-4.2079,-4.2205,-4.2323,-4.2463,-4.2503,-4.2526,-4.2588,-4.2667,-4.2706,-4.2765,-4.2862,-4.2938,-4.3031,-4.3123,-4.3233,-4.334,-4.3463,-4.318,-4.3177,-4.3051,-4.3087,-4.3323,-4.3515,-4.3801,-4.3912,-4.3986,-4.4097,-4.4226,-4.4285,-4.4314,-4.4344,-4.4344,-4.4373,-4.4411,-4.444,-4.4458,-4.4487,-4.4496,-4.4524,-4.4578,-4.4578,-4.4605,-4.4605,-4.4632,-4.4667,-4.4719,-4.2125,-4.2381,-4.2445,-4.2571,-4.2759,-4.2883,-4.3007,-4.3129,-4.3388,-4.3509,-4.3568,-4.3645,-4.3645,-4.3628,-4.3687,-4.3822,-4.3939,-4.4039,-4.4423,-4.4776,-4.494,-4.514,-4.5264,-4.5371,-4.5353,-4.53,-4.53,-4.5194,-4.514,-4.5194,-4.514,-4.5194,-4.5353,-4.5476,-4.5528,-4.5615,-4.5719,-4.5855,-4.5873,-4.5924,-4.5939,-4.6023,-4.6073,-4.6073,-4.6172,-4.6189,-4.6189,-4.6189,-4.5782,-4.5098,-4.429,-4.3921,-4.357,-4.2289,-4.171,-4.1604,-4.1604,-4.1604,-4.1604,-4.1692,-4.1797,-4.1797,-4.178,-4.1762,-4.1701,-4.1648,-4.1604,-4.1736,-4.1884,-4.2012,-4.2121,-4.2246,-4.2387,-4.2405,-4.2445,-4.2548,-4.2627,-4.2649,-4.2727,-4.2862,-4.2938,-4.2975,-4.3068,-4.3142,-4.3305,-4.341,-4.3091,-4.2802,-4.2617,-4.2532,-4.2798,-4.3219,-4.354,-4.3838,-4.3931,-4.4048,-4.4165,-4.4195,-4.4226,-4.4255,-4.4255,-4.4333,-4.4344,-4.4401,-4.443,-4.4458,-4.4468,-4.4515,-4.4524,-4.4551,-4.4551,-4.457,-4.4578,-4.4576,-4.4591,-4.2093,-4.2318,-4.2381,-4.2508,-4.2618,-4.2837,-4.2916,-4.2961,-4.319,-4.3388,-4.3552,-4.3568,-4.3568,-4.3568,-4.3568,-4.3671,-4.3864,-4.3981,-4.4344,-4.4665,-4.4869,-4.5032,-4.5194,-4.53,-4.5247,-4.5194,-4.514,-4.5086,-4.5032,-4.4995,-4.5049,-4.5086,-4.514,-4.5247,-4.5335,-4.5405,-4.5528,-4.565,-4.5753,-4.577,-4.5821,-4.5889,-4.5922,-4.5922,-4.6023,-4.6023,-4.5968,-4.5793,-4.5299,-4.4581,-4.3927,-4.3419,-4.2921,-4.2324,-4.1727,-4.1604,-4.1604,-4.1604,-4.1648,-4.1648,-4.1736,-4.1754,-4.1736,-4.1675,-4.1631,-4.1604,-4.1604,-4.1604,-4.1797,-4.1927,-4.2037,-4.2163,-4.2287,-4.2305,-4.2346,-4.2468,-4.2588,-4.2649,-4.2765,-4.2862,-4.29,-4.292,-4.2813,-4.2869,-4.2792,-4.275,-4.2353,-4.2115,-4.202,-4.2008,-4.2174,-4.2699,-4.328,-4.3596,-4.3893,-4.3999,-4.4085,-4.4085,-4.4116,-4.4147,-4.4195,-4.4226,-4.4274,-4.4304,-4.4344,-4.443,-4.444,-4.4468,-4.4496,-4.4496,-4.4439,-4.4354,-4.4213,-4.4146,-4.4275,-4.1995,-4.2109,-4.2334,-4.2477,-4.2571,-4.2837,-4.2899,-4.2899,-4.3068,-4.3251,-4.3372,-4.3372,-4.3449,-4.3432,-4.3432,-4.3552,-4.3789,-4.3964,-4.427,-4.4609,-4.4759,-4.4978,-4.5069,-4.5069,-4.4978,-4.5123,-4.5015,-4.4923,-4.494,-4.494,-4.494,-4.494,-4.4995,-4.5032,-4.5049,-4.514,-4.5283,-4.5389,-4.5528,-4.5632,-4.5736,-4.5787,-4.5821,-4.5821,-4.5889,-4.5871,-4.5608,-4.5259,-4.4663,-4.3785,-4.3173,-4.259,-4.199,-4.1805,-4.156,-4.1604,-4.1604,-4.1604,-4.1604,-4.1587,-4.1604,-4.1648,-4.1631,-4.1648,-4.1604,-4.1604,-4.1604,-4.1604,-4.1648,-4.1754,-4.1927,-4.2055,-4.2163,-4.2246,-4.2287,-4.2427,-4.2548,-4.2649,-4.2804,-4.2862,-4.29,-4.2884,-4.2667,-4.2487,-4.2298,-4.2032,-4.1562,-4.1414,-4.1434,-4.1637,-4.186,-4.2409,-4.3064,-4.3503,-4.3819,-4.3949,-4.4005,-4.4005,-4.4036,-4.4067,-4.4116,-4.4116,-4.4165,-4.4214,-4.4304,-4.4344,-4.4364,-4.4402,-4.413,-4.3857,-4.4064,-4.4008,-4.3866,-4.3705,-4.3694,-4.2928,-4.2616,-4.2682,-4.2541,-4.235,-4.2571,-4.2696,-4.2696,-4.2883,-4.3068,-4.3174,-4.3174,-4.3312,-4.3372,-4.3372,-4.3492,-4.3671,-4.3747,-4.3981,-4.4327,-4.4423,-4.4519,-4.4631,-4.4742,-4.4703,-4.4631,-4.4631,-4.4631,-4.4536,-4.4665,-4.4737,-4.4737,-4.4793,-4.4831,-4.4995,-4.514,-4.523,-4.5283,-4.5406,-4.5476,-4.5528,-4.5632,-4.5684,-4.5667,-4.5718,-4.5509,-4.5142,-4.4707,-4.3941,-4.3067,-4.2521,-4.2096,-4.1638,-4.1515,-4.1515,-4.156,-4.1604,-4.1604,-4.1604,-4.1604,-4.1604,-4.1604,-4.1604,-4.1604,-4.1604,-4.1604,-4.1604,-4.1604,-4.1604,-4.171,-4.1841,-4.1995,-4.2103,-4.2187,-4.2287,-4.2468,-4.2588,-4.2706,-4.2822,-4.288,-4.29,-4.2575,-4.2341,-4.1869,-4.161,-4.1565,-4.1207,-4.1213,-4.1285,-4.1521,-4.1785,-4.2353,-4.294,-4.3398,-4.3763,-4.3931,-4.4005,-4.4005,-4.4005,-4.4005,-4.4036,-4.4036,-4.4085,-4.4165,-4.4226,-4.4285,-4.4242,-4.4083,-4.338,-4.3125,-4.3125,-4.3463,-4.3595,-4.3219,-4.2852,-4.3158,-4.2833,-4.2661,-4.2361,-4.2093,-4.2381,-4.2571,-4.2634,-4.2759,-4.2883,-4.299,-4.3068,-4.3068,-4.3207,-4.3251,-4.3372,-4.3492,-4.3568,-4.3747,-4.4039,-4.4097,-4.4253,-4.4406,-4.4406,-4.4423,-4.431,-4.431,-4.431,-4.4253,-4.444,-4.457,-4.4626,-4.457,-4.4682,-4.4886,-4.4995,-4.5123,-4.5194,-4.5318,-4.5441,-4.5476,-4.5476,-4.5511,-4.5477,-4.5338,-4.5025,-4.4572,-4.3999,-4.3357,-4.2554,-4.205,-4.1847,-4.1503,-4.1391,-4.1391,-4.1542,-4.1604,-4.1604,-4.1604,-4.1604,-4.1604,-4.1604,-4.1604,-4.1604,-4.1604,-4.1604,-4.1604,-4.1604,-4.1604,-4.1692,-4.178,-4.1977,-4.2019,-4.2079,-4.2187,-4.2369,-4.2566,-4.2685,-4.2745,-4.2842,-4.2774,-4.2394,-4.1796,-4.1288,-4.0851,-4.0846,-4.0873,-4.0972,-4.1195,-4.1562,-4.1927,-4.2477,-4.3039,-4.3534,-4.3825,-4.3918,-4.4005,-4.4005,-4.4005,-4.4005,-4.4005,-4.4036,-4.4085,-4.4116,-4.4195,-4.4181,-4.4055,-4.3699,-4.294,-4.2235,-4.1773,-4.2299,-4.3106,-4.2787,-4.213,-4.2663,-4.262,-4.215,-4.1962,-4.1963,-4.219,-4.2461,-4.2571,-4.2618,-4.2696,-4.2899,-4.2899,-4.2899,-4.2916,-4.2916,-4.3084,-4.3312,-4.3372,-4.3611,-4.3923,-4.3923,-4.408,-4.4138,-4.4138,-4.408,-4.4138,-4.4196,-4.4155,-4.4097,-4.427,-4.4384,-4.4514,-4.4514,-4.4626,-4.4737,-4.4886,-4.4995,-4.5049,-4.5211,-4.5264,-4.5318,-4.5371,-4.532,-4.513,-4.4785,-4.437,-4.3765,-4.3022,-4.24,-4.186,-4.1509,-4.1308,-4.1146,-4.122,-4.1373,-4.148,-4.156,-4.156,-4.1604,-4.1604,-4.1604,-4.1604,-4.1604,-4.1604,-4.1604,-4.1604,-4.1604,-4.1604,-4.1604,-4.1692,-4.178,-4.1823,-4.1909,-4.1995,-4.2103,-4.2246,-4.2445,-4.2566,-4.2667,-4.2711,-4.27,-4.223,-4.1216,-4.0636,-4.0148,-4.0309,-4.0448,-4.0805,-4.1123,-4.1926,-4.2281,-4.2733,-4.3227,-4.3698,-4.3929,-4.3942,-4.3974,-4.4005,-4.4005,-4.4005,-4.4005,-4.4005,-4.4055,-4.4085,-4.4135,-4.4058,-4.3772,-4.3203,-4.2444,-4.174,-4.1041,-4.1342,-4.2205,-4.1886,-4.1342,-4.2295,-4.1936,-4.2319,-4.2161,-4.1767,-4.1931,-4.2206,-4.2445,-4.2571,-4.2634,-4.268,-4.2696,-4.2775,-4.2899,-4.2916,-4.3007,-4.3129,-4.3235,-4.3372,-4.3552,-4.3687,-4.373,-4.373,-4.3789,-4.3789,-4.3864,-4.3923,-4.3923,-4.3981,-4.4097,-4.427,-4.4384,-4.444,-4.4457,-4.4626,-4.4776,-4.4848,-4.4886,-4.5049,-4.5157,-4.5177,-4.5196,-4.4972,-4.4578,-4.4302,-4.3733,-4.2785,-4.2319,-4.1816,-4.1263,-4.1138,-4.0965,-4.0948,-4.1088,-4.1244,-4.1408,-4.1471,-4.1471,-4.156,-4.1604,-4.1604,-4.1604,-4.1604,-4.1604,-4.1604,-4.1604,-4.1604,-4.1604,-4.1604,-4.1648,-4.1692,-4.1736,-4.1823,-4.1909,-4.1977,-4.2163,-4.2346,-4.249,-4.2573,-4.2423,-4.2428,-4.1415,-4.0438,-3.9842,-3.9498,-3.9679,-3.9967,-4.0379,-4.1079,-4.1849,-4.2607,-4.3041,-4.3347,-4.3763,-4.3865,-4.3929,-4.3942,-4.3974,-4.4005,-4.4005,-4.4005,-4.4005,-4.4005,-4.4055,-4.4104,-4.3804,-4.3351,-4.2717,-4.2079,-4.1222,-4.0553,-4.0854,-4.106,-4.0854,-4.076,-4.144,-4.1241,-4.1351,-4.1162,-4.0879,-4.1007,-4.1183,-4.1453,-4.2187,-4.2571,-4.2571,-4.2634,-4.2696,-4.2759,-4.2775,-4.2899,-4.3007,-4.299,-4.3113,-4.3312,-4.3372,-4.3449,-4.3509,-4.3552,-4.3628,-4.3645,-4.3704,-4.3763,-4.3822,-4.3939,-4.4097,-4.4212,-4.4253,-4.4384,-4.4497,-4.4609,-4.4737,-4.4793,-4.4886,-4.4978,-4.4984,-4.4849,-4.4491,-4.4113,-4.3786,-4.2837,-4.2095,-4.1819,-4.1302,-4.094,-4.0888,-4.0871,-4.0918,-4.0982,-4.1029,-4.1198,-4.1363,-4.1426,-4.1515,-4.156,-4.1604,-4.1604,-4.1604,-4.1604,-4.1604,-4.1604,-4.1604,-4.1604,-4.1604,-4.1604,-4.1648,-4.1692,-4.1736,-4.178,-4.1909,-4.2037,-4.2228,-4.2391,-4.2322,-4.2134,-4.1468,-4.0456,-3.9661,-3.9084,-3.8851,-3.9121,-3.9373,-3.966,-4.0613,-4.1714,-4.2598,-4.3254,-4.3468,-4.3719,-4.3767,-4.3795,-4.3841,-4.3905,-4.3974,-4.4005,-4.4005,-4.4005,-4.4005,-4.4023,-4.4055,-4.3681,-4.3247,-4.2445,-4.1734,-4.0888,-4.0234,-4.0253,-4.0328,-4.0178,-4.014,-4.021,-4.0372,-3.9756,-3.9645,-3.9518,-3.9754,-3.9895,-3.9942,-4.1405,-4.2251,-4.2312,-4.2488,-4.2456,-4.2407,-4.2537,-4.2713,-4.2821,-4.2883,-4.2945,-4.3113,-4.3251,-4.3372,-4.3432,-4.3552,-4.3568,-4.3645,-4.3645,-4.3704,-4.3704,-4.3763,-4.3923,-4.4097,-4.4138,-4.4253,-4.4367,-4.444,-4.4429,-4.4304,-4.4432,-4.4579,-4.4605,-4.4386,-4.3976,-4.3666,-4.2873,-4.1957,-4.1716,-4.1354,-4.0871,-4.0871,-4.0871,-4.0871,-4.0935,-4.0935,-4.0935,-4.1012,-4.1226,-4.1363,-4.1453,-4.1515,-4.1604,-4.1604,-4.1604,-4.1604,-4.1604,-4.1604,-4.1604,-4.1604,-4.1604,-4.1604,-4.1604,-4.1648,-4.1648,-4.1736,-4.1823,-4.1952,-4.2139,-4.2096,-4.1854,-4.1502,-4.0655,-3.9661,-3.903,-3.8491,-3.833,-3.86,-3.8708,-3.8959,-3.9787,-4.1103,-4.2044,-4.2933,-4.318,-4.3269,-4.3523,-4.3572,-4.3721,-4.3804,-4.3905,-4.4005,-4.4005,-4.4005,-4.4005,-4.4023,-4.4036,-4.3613,-4.3096,-4.2333,-4.1613,-4.0888,-4.0284,-3.9783,-3.9639,-3.9677,-3.9752,-3.8686,-3.8874,-3.9298,-3.9487,-3.9487,-3.9581,-3.9612,-3.9831,-4.018,-4.0603,-4.0962,-4.1504,-4.1889,-4.2035,-4.2472,-4.265,-4.2696,-4.2696,-4.2821,-4.2945,-4.3113,-4.3251,-4.3372,-4.3492,-4.3568,-4.3645,-4.3645,-4.3568,-4.3628,-4.3687,-4.3763,-4.3939,-4.3998,-4.4097,-4.4179,-4.4236,-4.3967,-4.3726,-4.3478,-4.3572,-4.3617,-4.3163,-4.2705,-4.2381,-4.1662,-4.1467,-4.1257,-4.1013,-4.0888,-4.0871,-4.0871,-4.0871,-4.0871,-4.0871,-4.0871,-4.0918,-4.1152,-4.1272,-4.1363,-4.1471,-4.1542,-4.156,-4.1604,-4.1604,-4.1604,-4.1604,-4.1604,-4.1604,-4.1604,-4.1604,-4.1604,-4.1604,-4.1604,-4.1692,-4.1736,-4.1884,-4.1995,-4.1663,-4.133,-4.058,-3.9788,-3.9067,-3.842,-3.8097,-3.7954,-3.7918,-3.7936,-3.8205,-3.8887,-3.9913,-4.0834,-4.1666,-4.2365,-4.2616,-4.2892,-4.3214,-4.3273,-4.361,-4.3786,-4.3905,-4.4005,-4.4005,-4.4005,-4.4005,-4.3943,-4.3502,-4.2973,-4.2304,-4.1586,-4.075,-4.0221,-3.9683,-3.9596,-3.9614,-3.9614,-3.7668,-3.7838,-3.8383,-3.8602,-3.8618,-3.8602,-3.8679,-3.8756,-3.8817,-3.8982,-3.9434,-4.0736,-4.1682,-4.1954,-4.2488,-4.2571,-4.2571,-4.2634,-4.2696,-4.2821,-4.299,-4.3174,-4.3312,-4.3432,-4.3509,-4.3509,-4.3509,-4.3509,-4.3492,-4.3611,-4.3687,-4.3763,-4.3822,-4.3889,-4.3956,-4.3681,-4.3337,-4.3009,-4.2423,-4.2215,-4.2382,-4.2018,-4.1869,-4.1529,-4.1287,-4.1043,-4.0937,-4.0793,-4.084,-4.0871,-4.0871,-4.0871,-4.0871,-4.0871,-4.0871,-4.0935,-4.1076,-4.1198,-4.129,-4.138,-4.1453,-4.1498,-4.1453,-4.1408,-4.1515,-4.1515,-4.1604,-4.1604,-4.1604,-4.1604,-4.1604,-4.1604,-4.1604,-4.1648,-4.1622,-4.1674,-4.135,-4.0905,-4.0444,-3.9823,-3.9085,-3.842,-3.7936,-3.7918,-3.7757,-3.7703,-3.7649,-3.7685,-3.8295,-3.8887,-3.9734,-4.0436,-4.1097,-4.1635,-4.1889,-4.232,-4.2746,-4.3139,-4.3592,-4.3818,-4.3918,-4.3986,-4.4005,-4.3819,-4.3627,-4.3341,-4.2805,-4.2052,-4.1147,-4.0244,-3.9858,-3.9564,-3.9571,-3.9552,-3.9596,-3.706,-3.7194,-3.7436,-3.7496,-3.748,-3.7496,-3.7543,-3.7587,-3.7689,-3.7844,-3.8253,-4.02,-4.1477,-4.2056,-4.2504,-4.2569,-4.2618,-4.2571,-4.2634,-4.2696,-4.2929,-4.3052,-4.3113,-4.3235,-4.3312,-4.3372,-4.3388,-4.3432,-4.3432,-4.3509,-4.3628,-4.3628,-4.3604,-4.3614,-4.3322,-4.2916,-4.2409,-4.2016,-4.1433,-4.0879,-4.0891,-4.0965,-4.1104,-4.1069,-4.0878,-4.0568,-4.06,-4.0648,-4.0697,-4.0793,-4.0823,-4.0871,-4.0871,-4.0871,-4.0871,-4.0918,-4.1029,-4.1093,-4.114,-4.1198,-4.1272,-4.1318,-4.1209,-4.1255,-4.1363,-4.1408,-4.1498,-4.1542,-4.1542,-4.1604,-4.1604,-4.1604,-4.1604,-4.1499,-4.1455,-4.1349,-4.0778,-4.0202,-3.9595,-3.9031,-3.8456,-3.7793,-3.7685,-3.7667,-3.7631,-3.7613,-3.7613,-3.7649,-3.7829,-3.8277,-3.8923,-3.9387,-3.9847,-4.0312,-4.0928,-4.1299,-4.1848,-4.2636,-4.3102,-4.3526,-4.3701,-4.3342,-4.3206,-4.3355,-4.3144,-4.2783,-4.231,-4.1613,-4.069,-3.9892,-3.9638,-3.9514,-3.9495,-3.952,-3.9571,-3.6892,-3.7194,-3.7405,-3.748,-3.748,-3.748,-3.748,-3.7539,-3.7658,-3.8003,-3.8523,-3.8978,-3.9911,-4.08,-4.1504,-4.1954,-4.2439,-4.252,-4.2539,-4.2634,-4.2883,-4.2945,-4.3007,-4.3113,-4.3174,-4.3174,-4.3312,-4.3388,-4.3366,-4.3459,-4.3535,-4.3545,-4.2749,-4.2642,-4.2585,-4.1981,-4.1238,-4.0866,-4.0575,-4.0105,-3.9887,-4.005,-4.0307,-4.0307,-4.0256,-4.0188,-4.0238,-4.0238,-4.0238,-4.0387,-4.0631,-4.0823,-4.0871,-4.0871,-4.0871,-4.0918,-4.0982,-4.1047,-4.1076,-4.1134,-4.118,-4.1226,-4.1163,-4.1163,-4.1209,-4.1209,-4.13,-4.1363,-4.1408,-4.1542,-4.1542,-4.1604,-4.1587,-4.135,-4.1192,-4.0898,-4.0442,-3.9642,-3.8854,-3.8449,-3.8021,-3.7646,-3.7503,-3.7485,-3.754,-3.754,-3.7594,-3.7613,-3.7649,-3.7918,-3.824,-3.8522,-3.887,-3.9665,-4.0568,-4.0404,-4.0845,-4.1793,-4.2521,-4.2778,-4.2724,-4.2266,-4.224,-4.2556,-4.237,-4.1991,-4.15,-4.1138,-4.0682,-3.9991,-3.9634,-3.9436,-3.9444,-3.9469,-3.952]}]]